GEFSMA_500_meanwind_000.txt.gz
Wind_Speed
14 13 13 13 12 11 8 8 5 6 9 10 11 16 20 23 23 23 23 21 20 19 18 17 16 16 14 14 13 14 14 16 17 19 21 19 18 16 14 12 10 9 8
16 14 15 17 17 15 12 9 7 8 10 11 12 16 19 24 28 30 27 25 24 23 23 22 22 22 21 20 18 17 17 19 17 18 21 21 20 18 17 15 12 10 9
17 16 17 19 20 18 17 17 16 16 13 13 12 16 20 21 24 28 28 26 26 26 26 25 23 22 21 21 21 18 18 20 19 17 20 20 21 19 16 15 13 12 10
16 18 18 19 20 19 21 22 23 23 19 15 16 17 21 23 24 25 27 25 23 24 24 24 21 20 20 20 19 19 19 20 21 19 19 20 20 18 16 15 14 13 12
18 18 18 19 19 22 25 27 26 24 21 21 22 22 23 24 24 24 26 25 24 24 23 24 24 23 20 20 17 17 18 21 23 21 20 19 19 19 17 17 16 15 13
18 19 18 21 22 24 27 31 29 25 25 26 25 25 24 22 23 22 23 24 23 23 23 24 25 24 21 19 15 14 15 18 22 23 22 21 20 19 18 17 17 16 15
19 19 21 22 24 26 28 29 29 26 26 26 25 24 23 21 21 21 21 23 24 23 22 23 24 22 22 21 19 16 15 17 21 24 24 22 21 21 19 17 16 16 16
22 22 24 24 26 29 28 26 26 24 25 26 26 25 23 22 19 20 22 23 24 24 23 23 25 23 22 23 22 19 19 19 21 24 25 23 22 22 21 20 18 17 16
25 26 26 26 27 26 23 23 24 25 25 24 24 25 25 24 23 23 25 25 26 25 23 23 25 24 23 23 22 20 21 22 23 23 24 24 24 23 23 23 21 19 18
28 28 26 24 23 22 22 21 24 27 25 25 24 25 26 29 27 23 27 25 25 26 25 24 25 24 24 23 22 21 21 22 23 25 25 25 25 25 25 25 24 21 20
28 28 25 25 23 20 21 22 25 28 27 28 27 27 26 28 24 27 24 23 25 26 27 25 26 25 25 23 22 20 22 23 23 25 26 26 27 27 28 28 28 25 24
29 29 26 25 21 22 23 23 27 27 26 29 30 29 28 29 28 28 25 24 26 27 28 26 27 27 26 25 24 25 26 25 25 26 25 25 26 26 27 28 29 29 28
31 28 28 28 26 26 23 25 29 28 26 28 28 28 28 28 28 32 28 25 30 29 27 25 25 26 26 27 26 26 27 27 26 25 25 25 24 23 23 23 24 27 27
28 30 32 33 30 28 25 25 29 28 25 24 24 24 25 27 27 27 27 26 28 29 27 24 21 23 22 23 24 25 27 28 26 24 23 24 22 21 21 20 21 23 24
28 32 34 34 33 29 24 23 24 23 22 20 19 18 18 18 19 24 26 29 32 31 27 23 22 20 18 17 19 21 24 28 28 26 24 23 22 22 22 21 20 20 20
31 34 34 34 33 28 24 22 23 21 19 16 15 16 17 17 15 18 21 22 23 26 25 23 23 20 19 18 16 18 20 26 28 27 25 24 25 26 24 23 21 20 20
31 32 29 28 25 23 23 23 22 21 19 16 15 15 16 14 12 14 15 17 20 24 24 24 25 23 22 21 21 18 17 21 26 29 29 28 29 29 27 25 23 22 21
24 25 28 24 18 17 20 22 22 20 19 16 16 15 15 16 14 13 13 15 18 19 25 30 30 27 26 24 23 23 22 21 22 25 28 29 29 30 28 26 25 24 24
21 22 25 23 20 18 18 20 22 22 20 18 18 18 17 17 17 18 17 15 16 20 23 25 28 28 29 29 28 26 25 25 24 24 24 25 27 27 27 26 25 25 25
22 22 24 23 23 21 19 20 24 24 21 20 21 23 22 20 19 18 20 21 19 20 22 23 25 26 29 31 30 30 30 29 28 27 26 27 28 28 28 26 26 26 26
17 17 20 18 19 19 20 21 27 27 25 22 24 26 26 24 21 21 21 21 21 21 23 24 25 24 24 27 32 32 32 32 33 31 31 30 28 28 30 30 30 29 30
13 15 15 14 16 20 21 23 27 28 28 27 27 27 29 28 23 22 24 24 24 24 25 26 26 27 27 28 32 35 35 32 32 35 34 31 29 31 31 30 31 32 31
14 15 16 14 15 16 16 19 23 25 23 27 27 27 28 30 28 26 25 26 25 26 26 25 24 25 26 28 31 31 35 37 37 36 35 35 33 34 34 32 31 32 34
16 15 15 15 15 15 14 16 18 18 18 19 23 25 27 28 29 28 27 26 26 27 27 26 24 24 25 24 25 30 32 36 39 42 39 37 37 36 34 33 33 33 34
14 13 14 15 15 16 17 18 17 19 20 19 21 23 26 27 28 28 28 28 27 27 28 28 28 27 27 28 28 28 32 37 37 42 43 38 37 36 33 33 34 35 35
13 13 13 14 15 16 17 18 19 20 22 21 22 25 25 25 25 24 25 26 25 24 25 24 26 27 27 27 28 27 26 32 39 42 44 41 40 41 40 36 34 34 36

GEFSMA_500_meanwind_006.txt.gz
Wind_Speed
11 10 10 10 9 9 10 11 11 10 9 7 7 8 10 14 17 18 18 19 20 19 19 18 16 16 14 13 12 12 12 11 13 15 18 21 21 20 20 18 16 14 13
15 13 11 11 12 13 14 15 14 12 11 11 11 12 12 15 19 22 23 24 24 24 23 22 21 20 19 18 18 17 16 15 14 15 16 18 21 21 21 20 18 16 14
18 16 15 14 14 16 18 19 18 16 16 16 16 15 16 16 19 22 25 27 28 28 28 27 27 26 24 22 22 22 21 20 18 18 18 17 18 22 23 23 21 18 17
22 19 17 17 18 19 20 21 19 20 21 21 21 18 18 20 21 24 26 28 30 30 31 31 31 30 29 26 24 24 23 23 22 21 21 20 19 22 25 25 23 20 19
24 21 19 19 21 21 21 21 22 23 24 24 24 22 21 22 24 26 27 29 31 32 31 31 31 30 30 28 26 23 23 23 24 23 22 22 22 20 24 26 24 21 19
27 23 21 22 23 24 23 22 23 23 25 26 26 25 23 24 25 26 27 28 29 31 31 30 30 30 29 28 27 23 22 22 23 24 23 24 23 21 20 22 22 21 18
29 25 23 24 24 24 24 24 23 24 25 25 25 24 22 22 24 26 25 25 26 28 29 28 27 28 28 27 27 25 22 21 22 22 23 24 24 22 21 20 20 19 18
31 27 25 24 24 24 24 25 26 26 24 23 22 22 23 24 25 25 24 24 24 25 26 25 25 25 26 26 25 24 22 21 20 20 21 23 25 24 23 23 22 20 18
33 30 27 25 24 24 25 26 26 24 23 22 22 24 26 25 25 25 24 24 24 23 24 24 23 24 25 26 25 24 24 23 22 21 20 22 24 25 25 24 23 21 19
34 32 28 26 25 25 26 26 25 22 22 23 24 25 26 26 26 27 27 26 25 26 26 26 25 24 26 26 25 25 25 24 25 24 23 23 24 26 26 26 25 23 22
34 32 29 28 27 27 27 27 24 22 22 24 26 26 27 27 27 27 28 28 27 27 28 27 27 25 26 25 25 26 26 26 26 25 25 25 26 27 27 28 28 26 24
34 31 28 28 29 28 28 27 25 24 24 24 26 27 27 26 26 26 26 28 27 27 26 24 25 26 26 25 24 25 27 27 27 27 26 27 27 28 28 28 27 26 26
34 31 29 28 28 28 28 28 26 26 26 26 25 25 26 27 27 27 26 27 27 27 26 24 24 26 26 25 24 26 26 27 28 28 27 27 27 28 29 29 27 27 28
33 30 27 27 28 29 28 29 30 30 29 27 25 24 25 27 27 28 27 26 26 26 25 24 25 27 27 26 25 27 28 28 29 29 29 29 29 28 27 28 27 27 26
29 23 21 24 27 29 30 32 32 30 29 27 25 24 25 27 26 25 24 23 23 24 24 23 22 26 26 25 24 26 28 29 30 31 31 32 31 30 28 27 26 24 23
17 15 19 24 29 32 33 33 31 28 27 26 25 24 25 26 24 22 21 20 20 21 23 25 23 25 27 25 24 25 27 29 30 31 31 32 32 31 30 28 25 24 23
14 18 22 26 28 29 29 29 27 24 24 25 25 24 24 23 22 21 20 20 21 22 24 26 27 27 29 28 25 25 25 24 24 25 26 28 30 31 30 28 26 25 24
15 18 21 23 25 25 25 24 24 23 23 24 24 23 22 22 22 21 19 17 18 19 21 22 25 28 29 29 27 25 24 22 20 19 20 23 27 29 29 28 28 27 26
13 17 21 24 25 25 24 23 23 23 23 24 25 24 23 22 22 21 20 18 18 18 19 20 23 27 28 29 28 25 24 23 21 20 21 21 23 27 29 29 30 29 29
15 18 21 23 23 23 23 23 23 23 24 25 25 25 24 24 24 23 20 19 19 19 19 20 22 25 27 28 28 27 26 26 25 25 25 24 24 25 27 28 29 29 29
16 18 20 20 19 20 20 20 21 23 25 25 26 26 25 25 26 25 22 20 19 19 20 21 22 23 26 29 30 29 29 28 29 30 31 30 29 28 27 27 28 29 30
16 19 21 20 19 18 16 17 19 22 24 25 26 26 27 27 26 26 24 23 22 21 22 23 24 23 25 26 27 28 28 28 29 32 34 34 33 33 32 31 30 31 31
17 20 21 21 20 19 18 18 19 21 24 25 25 25 25 27 28 27 26 25 24 23 23 24 25 24 23 24 26 27 27 27 28 30 33 33 34 35 36 36 35 35 34
20 21 22 22 21 19 18 18 19 20 20 21 22 22 21 23 25 28 28 27 26 26 25 25 25 26 26 25 26 26 27 27 28 28 29 31 33 36 37 38 38 38 38
19 20 21 20 20 19 19 19 19 19 20 20 20 21 21 21 21 23 25 26 26 27 28 27 26 26 26 26 25 26 26 26 27 27 27 27 29 33 37 39 40 40 41
17 18 19 19 20 20 20 20 20 20 21 21 21 21 22 22 22 22 22 24 25 25 27 27 26 26 25 25 25 26 28 28 28 28 29 29 29 30 33 37 41 43 43

GEFSMA_500_meanwind_012.txt.gz
Wind_Speed
15 14 13 13 14 14 13 11 11 11 11 10 11 10 10 11 13 14 15 15 16 17 17 18 17 16 15 14 13 12 11 9 8 9 11 12 14 16 16 15 15 14 12
20 18 16 16 17 17 16 14 14 14 14 14 13 12 13 14 15 16 17 17 18 19 20 21 21 21 20 19 18 17 16 15 13 12 12 13 13 15 18 18 18 17 16
24 23 21 20 20 19 18 17 16 17 16 15 14 15 15 16 16 17 18 19 20 21 22 23 24 24 24 24 23 22 21 20 19 18 17 16 16 15 16 19 21 21 19
26 26 25 24 23 22 21 21 19 18 17 17 16 16 17 18 19 19 19 20 22 23 23 24 24 25 26 27 28 28 26 25 24 22 21 20 19 18 17 17 20 22 22
26 26 26 26 25 24 24 24 22 21 20 19 18 18 18 20 21 21 21 22 23 23 24 24 24 25 26 27 28 29 29 28 26 25 23 21 21 20 19 19 19 21 23
27 26 26 27 26 26 27 27 25 24 22 21 19 19 20 21 21 21 22 22 22 22 23 23 24 24 25 26 27 28 28 28 27 25 23 21 22 21 21 20 20 20 22
29 28 28 29 29 28 29 28 27 26 23 22 20 20 20 20 20 20 21 23 22 22 22 22 23 23 23 24 25 26 26 26 26 25 23 21 21 21 21 21 21 21 20
30 30 30 31 31 31 30 29 28 26 24 22 20 20 20 20 20 20 22 24 24 23 23 21 21 21 21 21 22 23 24 24 24 24 23 21 21 20 20 21 21 21 21
32 31 32 33 33 33 31 29 29 27 25 23 21 20 21 21 22 22 24 25 25 24 23 23 21 20 19 19 20 21 22 22 23 23 23 22 20 19 18 20 21 21 20
34 34 35 36 36 34 31 31 31 29 27 25 23 22 22 23 24 25 25 26 26 25 24 24 23 22 20 20 21 22 22 22 23 23 23 23 22 19 17 18 21 22 22
38 37 39 39 37 34 31 31 33 32 30 27 25 23 23 24 25 26 27 27 26 25 24 24 24 25 23 21 23 23 23 24 24 24 23 24 23 21 19 18 20 22 23
40 40 40 39 37 34 33 34 35 35 32 28 26 24 24 25 27 27 27 28 27 25 23 23 24 25 25 24 24 25 25 25 25 25 25 25 24 23 21 21 21 23 24
40 40 38 37 37 34 34 35 37 36 33 28 25 24 25 26 27 27 27 27 26 26 23 23 24 25 26 26 24 25 25 25 26 26 26 26 25 24 23 22 23 25 25
38 37 35 35 35 34 34 35 37 34 30 26 25 25 26 27 26 26 26 26 26 25 24 23 23 24 25 26 24 24 25 25 25 26 26 26 25 24 24 23 24 26 26
35 35 36 37 36 36 34 34 34 30 27 25 25 26 26 26 25 25 25 25 24 24 24 23 21 22 23 25 24 25 25 25 25 26 26 25 24 23 23 24 25 26 27
34 35 36 35 35 34 33 31 29 26 24 24 25 25 25 25 24 24 24 24 24 23 22 22 21 21 21 22 23 24 25 25 25 26 26 25 24 23 24 26 27 28 29
31 31 30 28 27 26 26 26 24 21 21 22 23 24 24 24 24 24 24 25 24 23 21 21 21 21 21 21 23 24 23 24 24 25 26 25 24 24 26 28 29 30 30
21 19 19 20 21 22 21 20 20 19 20 22 23 23 24 23 24 24 24 25 25 24 22 21 21 21 20 21 22 23 24 23 23 23 23 23 22 22 23 25 26 27 28
13 13 14 15 15 16 16 18 19 20 21 22 22 23 23 23 23 23 24 25 25 24 23 22 20 20 20 20 20 22 23 24 23 21 20 19 19 19 19 19 20 22 24
8 10 12 14 16 17 18 19 20 20 21 21 21 22 22 22 23 23 24 25 25 24 23 21 21 20 19 18 17 18 20 22 22 21 19 19 19 19 19 20 20 21 23
12 13 15 16 17 18 19 19 19 20 21 21 21 21 22 22 22 22 23 25 25 24 23 21 20 20 19 17 16 16 18 20 20 20 21 21 21 21 23 24 24 25 25
15 16 16 17 18 19 19 19 20 20 20 20 21 22 22 22 21 22 22 24 25 24 24 23 21 20 20 18 17 15 15 18 20 21 23 25 25 25 26 27 28 29 29
17 18 19 20 21 21 21 21 21 20 20 20 20 21 21 20 20 19 20 21 23 24 24 23 23 22 21 20 18 17 16 15 18 21 22 23 25 26 27 27 28 30 30
16 17 18 20 21 21 22 21 20 20 20 20 20 19 18 17 17 17 16 16 18 21 23 24 23 22 21 20 18 16 14 13 12 13 15 18 21 23 24 25 26 28 29
15 16 17 18 19 20 20 20 19 19 19 19 19 18 17 16 16 15 14 14 14 15 18 20 21 21 20 19 18 17 16 16 16 15 16 17 18 20 22 23 24 25 26
16 17 17 18 18 18 18 18 17 18 18 19 18 18 17 17 17 16 15 14 14 14 14 16 19 19 19 18 18 17 17 17 17 17 18 19 20 22 23 24 26 27 29

GEFSMA_500_meanwind_018.txt.gz
Wind_Speed
21 21 21 20 19 18 17 17 17 16 14 12 11 11 11 11 11 10 10 10 10 10 10 10 10 11 11 11 11 11 11 10 9 8 8 9 10 12 14 16 16 16 15
21 23 23 22 22 21 20 20 20 19 18 16 14 14 14 14 14 13 13 13 12 12 12 13 13 14 14 15 16 16 15 14 13 13 13 12 12 12 13 16 18 19 18
21 22 24 24 25 25 24 23 23 22 21 20 18 17 17 17 17 16 15 15 15 16 16 16 16 16 17 18 19 20 20 19 18 18 17 16 16 15 14 15 16 19 21
23 23 24 25 25 26 26 25 25 25 25 24 23 21 20 19 20 20 19 18 18 18 18 18 19 19 19 20 21 22 22 23 23 22 22 20 19 19 18 17 17 17 19
25 25 25 25 25 26 26 26 25 25 26 26 26 25 24 22 21 21 21 20 19 18 18 19 20 20 20 21 21 22 24 25 25 25 25 24 23 22 21 20 20 18 18
27 28 28 27 26 26 26 26 25 25 26 27 28 28 28 26 23 22 22 22 20 19 18 19 20 21 21 21 22 22 23 25 25 26 26 26 25 24 23 21 21 21 20
30 30 30 28 27 27 27 27 27 27 27 29 29 29 29 28 26 24 22 21 21 20 20 20 21 21 21 22 22 23 23 23 24 25 26 26 26 25 24 23 22 23 23
32 31 31 30 28 28 28 26 27 27 28 28 29 30 30 29 28 26 24 22 21 21 22 23 22 22 22 22 22 22 22 22 22 23 24 24 25 25 25 24 23 23 24
30 31 32 31 29 29 29 27 26 27 27 27 28 31 31 30 28 27 26 24 21 21 22 24 24 23 22 22 22 22 22 22 21 21 22 23 24 24 24 24 22 22 23
30 31 31 31 31 31 29 27 26 26 26 25 27 30 32 30 29 28 27 26 24 23 23 23 24 24 23 23 22 22 21 22 22 21 21 22 23 24 24 24 22 21 21
32 33 33 34 32 30 28 26 26 25 25 25 26 28 30 31 30 29 28 27 26 25 25 25 24 24 23 23 22 21 21 22 22 22 22 22 23 23 24 24 23 22 21
32 34 33 33 32 29 27 26 25 25 25 26 26 26 29 31 32 31 30 29 28 27 27 27 25 23 23 23 22 21 21 21 22 23 23 23 24 24 25 26 25 23 22
34 35 35 35 32 29 26 25 25 24 25 26 27 28 28 30 32 33 33 32 29 28 28 28 26 23 22 23 23 22 22 22 23 23 24 24 24 25 26 26 27 26 24
34 34 35 34 33 30 27 24 24 24 26 28 28 29 30 31 32 33 33 32 31 30 28 28 27 24 22 22 23 22 22 22 22 23 23 24 24 25 26 27 27 28 27
35 34 33 32 31 29 28 27 26 28 29 30 31 31 32 32 33 34 34 33 31 30 29 27 26 24 22 21 21 21 21 21 22 22 23 23 24 25 26 27 28 28 28
36 33 33 32 31 32 33 32 30 31 32 32 32 32 33 33 33 33 33 32 30 29 29 27 24 23 21 21 20 19 20 20 21 22 22 23 24 25 26 26 27 28 29
32 31 31 31 31 32 32 32 32 33 34 34 34 33 33 33 33 33 32 31 29 28 27 25 23 22 21 20 19 19 19 20 21 21 22 23 24 26 26 27 27 28 29
27 27 27 26 26 26 26 27 28 29 30 31 32 31 31 30 29 28 28 28 27 25 25 23 21 20 20 20 19 19 19 19 21 22 23 23 24 25 26 26 27 28 28
19 19 18 18 18 19 19 19 21 23 24 26 26 26 26 25 25 24 25 25 24 23 22 22 20 20 20 20 19 19 19 20 21 23 23 23 23 24 25 26 26 26 26
8 9 10 11 12 14 15 16 17 17 18 19 19 19 20 20 21 22 22 22 22 21 21 20 20 19 20 20 20 19 19 20 21 22 23 23 24 26 25 25 24 24 23
9 10 11 12 13 14 15 15 16 16 16 16 16 17 17 18 18 20 20 20 19 19 19 19 20 19 20 20 20 19 19 18 19 20 22 23 25 26 26 25 25 24 24
12 12 13 13 14 15 15 16 17 17 18 18 18 18 19 19 19 20 20 19 19 18 18 19 20 20 20 20 20 19 18 17 17 17 19 21 22 24 25 26 26 27 27
14 14 15 15 16 16 16 17 17 18 18 19 19 20 21 21 21 21 20 19 18 18 18 19 20 20 21 21 20 20 18 16 15 16 16 16 18 20 23 24 27 29 30
17 17 18 18 18 18 18 17 17 17 18 19 19 21 22 22 22 21 20 18 17 17 17 18 18 19 20 20 20 19 18 17 16 15 14 14 15 16 19 21 24 25 28
18 18 19 19 19 18 18 17 17 17 17 18 19 20 21 22 22 21 19 18 16 15 15 15 15 16 17 18 18 18 17 16 16 15 14 14 14 15 16 19 21 24 27
18 18 17 16 16 16 15 15 15 16 16 17 18 19 20 20 20 19 19 18 16 14 13 13 12 12 13 14 15 16 16 15 15 15 15 15 16 17 19 21 23 25 27

GEFSMA_500_meanwind_024.txt.gz
Wind_Speed
16 17 18 18 18 17 16 15 14 13 13 12 13 12 10 9 8 8 8 7 7 8 8 7 7 8 8 8 9 9 9 8 8 8 7 8 8 10 11 12 14 15 15
18 19 19 20 20 20 19 19 19 17 16 16 16 15 14 12 11 10 10 10 10 10 9 9 9 9 9 10 11 11 12 12 12 12 12 11 12 12 12 13 14 16 18
20 21 21 22 22 22 22 22 22 21 20 20 19 19 17 16 14 13 12 12 12 12 12 12 11 10 10 11 11 13 14 15 15 16 16 16 16 16 15 16 16 17 18
23 24 24 25 25 25 25 25 25 24 23 22 22 21 20 19 18 17 15 14 14 14 14 14 13 12 12 12 12 14 15 16 17 18 19 19 20 20 20 19 19 19 20
26 27 28 28 28 28 28 28 27 26 25 23 23 22 21 20 20 19 19 17 16 16 16 16 15 14 13 13 13 14 15 17 18 19 20 21 22 22 23 23 23 22 22
29 30 30 31 31 31 30 30 30 29 28 26 24 23 22 22 22 22 22 21 19 18 18 17 16 16 15 14 14 15 16 18 19 20 20 21 21 23 24 25 26 26 25
32 33 33 33 33 34 33 32 31 31 30 29 27 26 25 24 25 25 25 24 22 20 19 19 18 17 17 16 16 17 17 18 19 20 20 21 21 22 23 25 27 28 28
35 35 35 36 35 35 35 34 33 32 32 31 29 28 28 27 26 26 26 26 25 23 21 20 19 19 19 18 18 18 19 20 20 20 21 21 21 21 22 24 26 27 28
39 38 36 35 35 34 34 34 35 34 32 32 32 31 30 30 29 26 26 26 26 24 23 22 21 21 21 20 20 20 20 21 21 21 21 21 21 21 22 23 25 26 27
42 40 39 37 36 34 32 33 33 33 34 33 33 33 32 31 29 27 27 26 27 26 25 24 23 23 22 22 22 21 22 22 22 22 22 22 21 21 21 22 23 25 26
42 41 39 37 34 32 29 29 29 29 30 33 34 34 33 33 31 30 29 28 28 28 27 27 26 25 25 24 23 23 23 23 23 23 23 22 22 22 22 22 23 24 25
39 38 35 33 31 28 27 27 27 27 28 31 32 33 33 32 32 31 30 29 29 29 29 29 29 28 27 26 25 24 24 24 24 24 24 23 23 22 23 23 23 24 25
34 33 32 31 30 30 29 29 28 28 29 31 31 32 33 33 31 31 31 30 29 29 30 31 31 31 30 29 28 26 25 24 25 25 24 24 24 24 24 24 24 25 25
32 32 31 31 32 32 32 32 30 30 31 32 32 32 32 32 32 32 31 31 29 29 30 32 33 32 31 31 30 28 26 26 25 25 25 25 25 25 25 25 25 25 25
32 33 34 35 36 36 36 35 33 32 32 32 32 32 32 32 33 32 30 30 31 30 31 32 32 33 33 32 31 29 28 27 26 26 26 25 25 25 25 25 25 25 26
33 34 36 37 38 37 37 36 35 34 33 33 33 34 34 34 33 32 32 32 32 32 32 32 32 32 32 32 31 30 28 27 26 26 26 26 25 25 26 25 25 26 26
30 31 32 33 34 34 34 34 34 33 33 33 34 35 34 34 34 33 33 33 33 32 32 32 31 30 30 31 30 29 28 26 26 26 26 26 25 25 25 25 25 25 26
19 21 23 24 25 26 27 28 29 30 31 32 32 34 34 33 33 33 33 33 33 33 33 32 31 29 29 28 28 27 27 26 26 25 25 25 25 25 25 25 25 25 25
10 12 13 15 17 18 20 21 23 24 25 27 30 31 32 32 32 32 33 33 33 32 32 31 29 28 26 26 25 25 25 25 25 25 25 25 24 24 24 24 25 25 25
6 7 9 10 11 13 14 16 17 18 20 23 25 27 28 30 30 30 30 29 29 29 28 27 26 24 24 23 23 24 24 24 25 24 24 24 24 24 24 24 24 24 24
8 8 9 10 11 13 14 15 15 16 17 18 19 20 21 22 22 23 24 24 24 24 24 23 22 21 21 21 22 22 23 23 23 23 23 22 22 22 23 23 24 24 25
11 11 12 13 14 14 15 16 16 16 16 16 16 15 16 16 16 16 17 18 18 19 19 18 18 19 19 19 20 21 21 22 22 22 22 21 20 20 20 21 22 23 24
12 12 12 12 13 13 14 16 17 17 18 17 16 15 14 14 13 13 13 13 14 14 15 15 16 16 17 18 19 20 20 21 20 20 19 19 18 18 18 19 20 21 22
14 13 13 13 13 13 13 13 14 16 17 18 18 17 17 16 15 15 13 12 13 13 13 13 14 15 16 16 17 18 19 19 19 19 19 18 17 17 17 17 17 18 19
17 16 16 15 14 13 12 12 12 12 14 17 18 18 18 18 18 17 17 16 15 13 13 13 14 15 15 15 16 17 17 18 18 18 17 17 16 16 16 16 17 18 19
20 20 19 18 16 15 13 11 10 10 12 14 16 17 18 19 19 19 18 16 15 14 13 12 12 12 13 13 14 14 15 15 15 15 14 13 13 14 15 15 17 18 20

GEFSMA_500_meanwind_030.txt.gz
Wind_Speed
19 18 17 16 15 14 14 14 14 14 13 13 12 12 11 11 10 9 8 7 7 6 6 6 6 7 7 7 7 7 7 7 7 7 6 7 7 7 8 8 10 11 13
22 21 20 18 17 16 15 16 16 16 16 16 15 15 15 14 14 13 12 11 10 9 9 9 9 9 10 10 10 10 10 10 10 10 10 10 10 10 11 11 11 12 12
26 24 22 21 19 18 17 17 17 17 18 18 18 18 18 17 17 17 17 16 15 13 13 12 12 12 12 13 12 12 12 12 12 12 12 13 13 13 14 14 14 14 15
31 28 26 24 22 20 19 19 19 20 20 20 20 20 20 20 20 20 20 20 19 18 16 16 15 15 15 15 15 14 14 14 14 14 14 14 15 15 16 17 17 17 18
35 33 31 27 25 22 21 21 21 22 22 21 21 21 21 21 21 21 22 22 22 21 20 19 18 18 17 17 17 16 16 15 15 15 15 16 16 16 17 18 19 20 20
35 33 31 30 27 25 24 24 23 24 24 24 24 23 23 22 22 22 23 23 24 24 23 22 21 21 20 19 18 18 17 16 16 16 16 16 17 17 18 18 19 20 21
36 33 32 32 30 27 26 26 25 26 26 26 26 26 25 25 24 24 24 25 25 25 25 25 24 23 23 22 21 20 19 18 17 16 17 17 17 18 18 19 20 21 21
38 35 33 32 32 30 29 28 26 26 28 28 27 27 26 26 26 26 26 25 25 25 26 26 26 26 26 25 24 22 21 19 18 18 18 18 18 18 18 19 20 21 21
42 38 35 34 33 31 30 29 29 28 28 28 28 28 28 28 28 28 28 27 27 27 27 27 27 28 28 27 26 24 23 21 20 19 19 19 19 19 20 20 20 21 21
44 41 39 37 36 34 32 31 30 30 29 29 29 29 29 31 30 29 29 29 29 29 29 28 28 29 29 29 28 26 25 23 22 21 21 20 20 20 20 20 20 21 21
44 42 41 40 38 37 36 34 31 30 29 29 28 27 28 31 32 32 31 31 31 30 30 29 29 29 29 29 29 28 27 25 24 23 22 22 21 21 21 21 21 22 22
43 41 40 39 39 38 37 36 33 31 30 28 28 26 26 28 30 33 33 34 33 33 32 31 30 30 30 30 30 29 28 27 26 25 24 23 23 23 23 22 22 22 23
42 41 40 39 38 38 37 35 34 32 30 28 27 27 26 26 29 31 33 35 35 35 35 34 33 32 31 31 30 30 29 29 28 27 26 25 25 25 24 24 23 23 24
38 39 39 38 37 37 36 35 34 32 31 29 28 28 28 27 27 30 32 34 36 37 37 37 35 33 32 31 30 30 30 30 29 28 28 27 26 26 25 25 24 24 25
32 33 34 34 34 35 34 34 33 33 33 32 31 31 31 31 31 30 31 33 35 37 38 37 35 33 32 31 31 31 31 31 30 30 29 28 27 27 26 26 25 25 25
26 28 30 32 33 33 33 34 34 35 36 35 35 35 35 35 34 33 32 32 34 35 36 37 36 34 32 31 30 31 31 31 31 31 30 29 28 27 26 26 26 26 26
22 24 27 29 31 33 34 35 36 37 38 39 39 39 38 37 37 36 36 35 36 36 36 36 36 34 33 31 30 30 30 30 30 30 30 29 28 27 26 25 25 26 26
18 21 24 26 29 32 34 36 37 38 39 40 40 40 40 39 37 37 37 36 36 36 35 35 34 32 31 30 29 29 28 29 28 29 28 28 27 25 25 24 25 26 26
12 15 18 21 24 26 29 31 32 34 35 36 37 38 38 38 38 37 37 37 36 35 34 33 31 31 30 29 28 28 27 26 26 26 25 24 23 23 22 23 24 25 25
7 10 12 14 16 18 21 23 24 26 28 29 30 32 33 34 35 36 37 37 35 34 33 32 31 29 29 28 27 26 25 24 24 23 22 21 20 20 21 21 22 24 24
5 7 9 12 14 16 17 19 21 22 23 24 25 26 27 28 30 32 33 33 32 31 32 31 29 27 26 25 24 23 22 22 20 19 18 18 18 19 20 20 21 22 22
7 7 8 9 11 13 15 17 19 20 21 22 22 23 24 24 25 27 28 29 29 28 28 28 27 25 24 23 22 21 20 19 18 18 17 17 17 17 18 18 18 19 20
11 11 10 10 12 13 15 16 17 18 19 19 20 20 20 21 22 21 20 21 23 24 23 23 22 21 21 20 20 19 18 18 17 16 16 16 16 15 15 16 16 17 18
14 14 14 14 14 14 15 16 17 18 18 18 18 19 19 18 18 17 15 16 18 19 19 20 19 18 18 18 17 17 17 16 15 14 14 14 14 13 14 14 15 16 17
17 17 17 17 16 16 16 15 16 16 17 17 17 18 18 18 17 16 15 14 14 14 16 17 17 16 15 15 14 14 14 13 13 13 12 12 12 12 12 12 13 14 16
18 19 19 19 19 17 16 14 13 14 15 16 17 18 19 19 18 17 16 14 12 13 13 13 14 14 13 13 13 13 12 12 11 11 11 10 10 10 9 9 10 11 12

GEFSMA_500_meanwind_036.txt.gz
Wind_Speed
25 24 22 21 21 21 20 20 19 17 16 15 14 13 12 11 9 8 8 6 6 5 4 3 3 3 4 5 5 6 6 6 6 6 5 5 4 4 4 4 4 4 5
29 27 26 25 24 24 23 22 21 20 20 18 17 16 15 15 13 12 12 11 9 9 8 7 7 7 7 7 7 8 8 8 8 8 8 8 7 7 7 7 7 7 8
32 32 30 28 27 27 26 25 24 23 22 20 19 19 18 17 17 16 15 15 14 13 12 11 11 10 10 10 10 10 10 10 10 10 10 10 10 10 11 11 11 11 11
34 33 32 32 30 29 28 28 27 25 24 22 21 21 20 19 19 19 18 18 18 17 16 15 14 14 13 13 13 13 13 13 12 12 12 12 12 12 13 13 14 14 14
38 36 34 34 35 33 31 30 29 28 26 24 23 22 21 21 20 20 20 20 20 21 20 19 18 17 17 16 16 15 15 15 15 14 14 14 14 14 14 15 15 15 15
43 40 37 36 36 36 34 32 31 31 29 26 25 23 22 22 21 21 21 21 21 22 23 23 22 21 20 19 19 18 17 17 17 17 16 16 15 15 15 15 16 16 16
48 46 43 40 38 38 36 35 34 33 32 29 26 24 23 23 23 22 22 23 22 23 24 24 24 23 23 22 22 21 20 19 19 18 18 18 17 17 17 16 16 17 17
50 49 47 44 42 40 38 37 36 34 33 31 29 26 24 23 23 23 22 23 23 23 24 25 25 25 24 24 24 23 23 22 21 20 20 19 19 19 18 18 18 18 18
51 50 48 46 45 43 39 36 35 34 33 31 29 27 25 24 24 23 22 23 24 24 25 26 26 25 25 24 24 25 25 24 23 22 21 21 21 20 20 20 19 19 19
49 49 47 47 45 43 40 39 35 33 32 31 29 27 27 26 25 24 23 23 24 24 25 26 26 26 25 25 25 25 25 25 24 24 23 23 22 22 22 22 21 21 21
45 45 46 45 45 43 42 41 39 35 32 31 28 27 26 25 25 25 24 23 23 25 26 25 26 27 26 25 26 26 26 25 25 25 25 24 24 23 23 23 23 23 22
39 40 42 42 42 41 40 40 38 36 34 32 30 27 26 25 25 24 24 24 25 26 26 26 27 27 27 26 25 27 27 25 25 26 26 26 26 25 25 25 24 24 24
33 35 37 39 38 38 38 38 36 35 34 33 31 30 28 27 27 26 25 24 25 26 27 29 29 28 29 28 26 26 26 26 26 27 27 27 27 27 27 26 26 26 26
28 31 33 36 36 36 37 37 35 34 34 33 32 31 30 30 29 28 28 27 27 26 26 28 30 31 30 30 28 28 29 29 29 28 29 29 28 29 28 28 28 28 28
21 24 28 32 35 35 35 35 35 34 34 34 32 31 31 31 31 30 30 29 28 28 27 27 28 29 30 31 31 31 31 31 31 30 30 30 30 30 30 30 30 29 29
15 19 23 26 29 31 32 33 34 34 34 33 32 31 32 32 32 31 31 30 30 29 28 28 28 28 29 30 31 32 32 33 33 32 31 31 31 31 31 31 31 31 30
9 12 16 20 23 25 28 30 33 33 34 33 33 33 33 34 33 33 33 33 32 32 31 30 30 30 30 30 30 32 33 33 33 33 31 31 31 32 32 31 30 30 29
7 8 10 13 17 20 23 26 28 31 32 33 34 34 34 35 36 36 36 35 34 34 33 32 32 31 31 30 30 31 32 32 32 32 32 31 30 29 29 29 28 27 26
8 8 9 11 13 16 19 22 24 26 29 31 32 34 35 36 37 38 38 38 38 37 36 34 33 31 30 30 30 30 30 30 29 30 30 29 29 27 27 27 26 25 23
10 9 9 10 11 13 15 18 20 22 25 27 29 31 32 34 36 37 38 38 38 38 37 35 34 33 31 29 28 28 27 27 27 26 26 26 26 25 24 23 22 21 20
12 11 10 10 11 12 14 15 18 20 22 23 25 27 28 29 31 32 33 34 35 36 36 35 33 32 31 30 28 26 25 24 24 24 23 23 22 21 20 19 18 17 16
14 14 13 12 12 12 14 15 17 18 20 21 22 23 23 24 25 27 28 29 30 30 31 31 30 30 31 29 26 25 24 23 22 22 21 19 17 17 16 16 15 14 14
16 16 15 15 14 14 14 15 17 19 19 20 20 21 20 21 21 22 22 22 23 23 25 26 27 26 27 26 24 23 23 22 21 20 19 17 16 15 14 13 13 12 13
18 18 18 17 16 16 15 16 17 18 19 20 20 19 18 18 18 19 19 19 20 20 21 22 23 23 23 23 22 20 20 20 19 18 16 15 14 13 12 11 11 11 11
20 20 20 19 19 18 17 16 16 16 17 17 18 18 17 16 15 16 17 18 17 17 18 19 20 20 20 20 20 20 19 19 17 16 14 13 13 12 11 10 10 9 9
23 22 21 21 21 21 18 16 15 14 13 14 15 15 15 15 14 14 15 15 15 14 15 17 18 18 18 17 17 17 17 16 15 13 12 11 11 10 9 8 7 6 6

GEFSMA_500_meanwind_042.txt.gz
Wind_Speed
26 26 27 26 26 27 26 25 23 21 20 19 17 16 15 14 13 11 10 9 8 7 6 5 4 3 3 2 2 2 2 2 2 3 2 1 0 1 1 2 3 5 6
29 28 27 26 27 28 29 28 26 25 24 22 21 20 19 18 17 16 14 13 12 10 9 8 7 6 4 3 2 1 1 1 1 1 1 1 1 2 3 4 4 5 6
33 32 30 29 29 29 30 30 30 29 27 26 24 23 22 21 21 20 19 17 15 14 13 12 11 9 8 6 5 4 3 3 3 3 3 3 3 4 4 5 6 6 7
37 35 33 32 31 30 30 31 32 32 30 28 27 26 25 24 24 24 23 21 20 18 16 15 14 13 11 10 8 7 6 6 6 6 6 6 6 6 6 6 7 8 8
40 39 37 35 33 32 32 32 32 32 31 31 30 29 28 28 28 27 26 25 23 22 20 19 17 16 15 14 12 11 10 9 8 8 8 8 8 8 8 8 9 9 9
40 40 40 39 37 35 34 34 33 33 33 32 32 32 31 30 30 29 29 28 26 25 23 22 21 19 18 17 16 14 13 12 11 11 11 11 11 11 11 11 10 10 11
39 40 40 40 40 39 37 35 34 34 33 33 33 33 32 32 32 31 30 29 28 27 26 24 23 22 21 20 19 18 16 15 14 13 13 13 13 13 13 13 12 12 12
38 39 40 40 41 40 39 38 37 36 33 32 32 32 33 32 33 33 31 30 29 29 28 26 25 24 23 22 21 20 19 18 18 17 16 16 16 15 15 15 14 14 14
37 38 39 40 41 41 41 41 39 39 36 34 33 33 33 33 32 33 32 31 30 29 29 28 26 25 24 23 23 22 21 20 19 19 19 19 18 18 17 17 17 16 16
35 37 38 40 41 42 42 42 43 41 39 37 35 34 34 34 34 34 34 33 31 30 29 29 28 27 26 25 24 23 23 22 21 20 20 20 20 20 19 19 19 19 18
34 36 37 39 41 41 42 42 43 43 42 40 38 36 36 35 35 35 35 35 34 32 30 30 29 28 27 26 25 24 24 23 22 22 21 21 21 21 21 20 20 20 20
30 33 35 36 39 40 41 42 43 43 42 42 40 39 37 35 36 37 38 38 36 35 33 32 31 30 28 27 26 25 24 24 23 23 23 22 22 22 21 21 21 22 22
23 26 29 32 35 38 40 41 42 43 42 42 42 41 39 37 36 37 37 39 39 38 36 34 32 31 29 28 27 26 25 25 24 23 23 23 23 22 22 22 23 23 24
17 20 24 26 29 33 36 38 41 41 41 40 41 42 40 38 36 37 38 38 38 38 36 35 33 31 30 28 28 28 27 26 26 25 25 25 25 24 24 24 24 24 25
11 15 17 21 23 26 30 34 38 40 41 41 40 40 39 38 38 38 38 39 39 38 37 37 35 32 30 28 28 29 29 29 29 28 27 27 28 27 27 26 27 27 27
7 8 11 14 18 22 25 29 34 37 39 41 41 40 40 39 38 39 39 40 40 40 39 37 36 34 32 30 30 29 29 29 29 29 29 29 29 29 29 29 30 29 29
9 7 7 9 12 16 19 23 29 34 36 38 40 40 39 41 40 40 41 40 40 40 39 39 38 36 34 32 31 30 30 29 29 29 30 30 30 31 31 31 31 30 29
10 9 7 7 7 11 15 19 22 27 31 34 37 38 38 38 39 39 40 41 41 41 40 39 39 36 34 32 31 31 30 30 29 28 29 30 30 31 31 30 30 30 30
11 10 9 8 7 8 10 13 17 21 25 29 32 34 35 36 37 36 35 36 38 39 39 39 37 36 34 33 32 31 29 28 28 28 28 29 30 30 30 30 29 30 29
13 11 10 9 8 9 10 11 14 17 20 24 26 29 31 33 33 33 33 33 33 34 35 35 35 34 34 33 32 31 30 29 28 28 27 28 28 29 29 28 28 28 27
15 14 12 11 10 10 10 12 13 16 18 20 23 25 28 30 31 31 32 33 33 34 34 34 35 35 35 34 33 32 31 30 29 28 27 27 27 28 28 27 27 26 25
17 16 15 14 13 12 12 13 14 16 17 20 21 22 25 26 27 29 31 32 33 33 34 34 35 35 35 35 34 34 32 31 30 29 28 28 27 27 27 26 25 24 21
19 18 17 15 15 14 14 14 14 16 17 19 20 21 22 24 26 27 28 29 29 31 32 33 32 33 34 35 35 34 33 32 30 29 28 27 26 26 25 25 23 20 18
21 20 19 18 17 16 15 15 15 16 17 18 20 21 21 22 23 24 26 26 26 27 28 29 30 31 33 33 32 32 31 30 29 27 26 25 24 23 22 21 19 17 16
23 23 22 21 19 18 16 15 15 15 16 17 18 20 20 20 21 21 22 24 25 25 27 28 28 29 29 29 29 28 28 27 26 26 25 24 23 22 20 19 17 16 15
25 25 25 24 22 20 17 15 13 12 13 15 16 17 18 19 20 20 20 21 21 22 23 24 25 25 26 26 26 25 25 25 24 24 23 23 21 20 18 17 16 15 14

GEFSMA_500_meanwind_048.txt.gz
Wind_Speed
27 27 27 27 27 26 25 24 22 22 22 21 19 17 16 14 13 12 10 9 8 7 6 5 5 4 4 4 4 4 4 3 3 3 3 3 2 2 2 2 2 2 3
33 30 28 28 28 28 27 26 25 25 26 25 24 22 20 19 17 16 14 13 11 10 9 8 7 6 5 4 4 4 3 3 3 2 2 2 1 1 1 1 1 2 3
39 36 34 32 31 29 27 26 27 26 26 27 27 26 25 23 22 20 18 17 15 14 12 11 10 9 8 7 6 5 4 4 3 3 2 2 2 1 1 2 2 3 4
43 41 40 38 36 34 31 29 29 29 27 29 30 29 28 27 26 24 23 21 20 18 16 14 13 12 11 10 9 7 6 6 5 4 4 4 3 3 3 3 3 4 5
42 43 42 42 40 38 36 34 32 31 30 30 31 32 31 31 30 29 27 26 24 22 20 18 17 16 14 13 12 11 10 9 8 7 6 6 6 5 5 5 5 6 6
39 40 42 43 43 41 39 38 36 33 31 30 31 33 34 34 33 31 31 29 27 25 24 22 21 20 18 17 16 15 13 12 11 10 9 9 8 8 8 7 7 7 8
37 39 40 41 43 43 42 41 39 37 34 32 32 31 34 35 36 35 34 32 30 29 27 26 24 23 22 20 19 18 17 16 15 13 12 11 10 10 10 10 9 9 9
37 38 39 41 42 42 43 43 42 40 38 37 35 33 32 33 36 37 36 35 33 32 31 29 27 26 25 23 22 21 20 19 18 17 16 15 14 13 13 12 12 12 12
34 36 38 40 41 41 42 44 45 44 42 41 39 36 33 32 34 37 38 37 36 35 33 31 30 28 27 26 25 24 23 22 21 20 19 18 17 16 16 15 15 15 15
29 32 35 38 40 41 42 43 44 44 44 43 41 40 37 35 34 35 37 38 38 37 36 34 32 31 29 27 26 25 24 24 23 22 21 20 19 18 17 17 17 17 17
24 27 30 34 37 40 41 43 44 44 45 44 43 42 40 39 37 36 35 37 39 38 37 37 35 34 32 30 28 27 26 25 24 23 22 21 20 20 19 18 18 18 18
19 22 25 29 33 36 39 41 43 44 44 45 45 44 43 42 39 38 37 37 38 39 39 39 37 35 33 32 30 29 28 26 25 24 23 22 22 21 20 20 20 19 19
15 18 21 25 29 33 37 40 42 43 44 45 46 46 45 43 42 40 39 39 39 39 39 39 39 37 35 33 31 30 29 27 26 25 24 24 23 22 21 21 20 20 20
13 15 18 21 24 28 32 36 40 42 44 45 46 46 47 46 44 43 41 40 39 40 40 39 39 39 37 35 34 32 31 29 28 27 27 26 25 24 23 22 21 21 21
12 13 14 17 20 23 27 31 35 38 41 43 45 46 47 47 47 45 43 43 42 41 40 40 40 39 39 38 36 34 32 31 30 29 28 27 25 25 24 24 23 23 23
12 13 13 14 16 18 20 24 29 32 36 39 42 45 46 46 48 47 46 44 44 43 42 42 41 42 42 40 39 37 35 34 33 30 29 28 27 26 25 25 24 25 26
13 12 13 13 14 15 17 20 24 27 31 35 39 41 44 46 46 47 46 47 46 45 44 43 42 42 43 42 41 39 38 36 34 33 31 29 29 28 27 26 26 26 27
14 14 14 14 14 14 15 17 19 23 27 30 34 38 41 44 44 46 47 47 47 46 45 44 43 43 42 41 41 41 39 37 36 34 32 32 31 30 29 27 27 27 27
16 16 16 15 15 15 15 16 17 18 21 25 29 33 37 40 42 44 45 46 46 45 43 43 42 41 41 40 40 40 40 39 37 36 34 33 32 30 28 27 27 27 27
18 18 17 17 16 16 16 16 17 18 19 21 23 26 30 34 38 40 42 43 43 44 44 43 42 41 41 42 42 41 40 38 37 35 34 34 32 30 28 27 26 26 26
21 20 19 19 18 18 18 18 18 18 19 20 21 23 25 28 30 33 36 38 39 40 41 42 42 42 41 41 41 42 41 39 38 36 36 34 32 30 28 27 27 26 26
23 23 22 21 20 19 19 19 18 18 19 19 20 21 22 25 26 28 30 33 34 35 37 38 39 39 40 41 40 39 40 40 38 36 35 33 31 29 28 28 27 26 27
26 25 25 23 22 21 20 19 18 18 18 18 19 19 20 22 23 25 26 28 29 30 33 35 36 36 36 38 38 39 40 39 37 35 33 32 30 29 29 28 27 27 27
27 27 26 25 24 22 20 19 18 17 17 17 18 18 19 19 21 22 23 25 26 28 29 30 31 32 32 33 34 35 36 35 34 33 32 31 30 29 28 28 27 26 25
29 29 28 27 26 24 21 19 17 16 15 15 15 16 18 18 18 20 21 23 23 24 26 26 26 27 28 29 30 30 31 31 32 31 30 29 28 28 27 26 25 24 22
31 30 30 29 28 25 23 20 17 13 11 11 12 13 15 16 17 17 19 20 21 22 22 24 25 25 26 27 28 28 28 29 29 29 27 27 27 27 25 25 24 23 21

GEFSMA_500_meanwind_054.txt.gz
Wind_Speed
35 34 32 30 28 27 28 27 25 24 23 22 21 20 18 17 16 15 13 13 12 11 10 10 9 9 8 8 8 7 7 6 6 6 6 6 6 5 5 5 5 4 4
39 37 36 34 31 29 28 28 27 26 25 25 25 24 22 21 19 18 17 16 14 13 12 11 11 10 9 9 8 8 7 6 6 6 6 6 6 5 5 5 5 5 4
41 41 40 38 36 33 31 31 29 29 28 27 27 27 26 25 24 22 21 19 18 16 15 14 13 12 11 10 9 9 8 7 7 7 6 6 6 6 5 5 5 5 5
40 41 42 41 40 38 36 34 32 30 30 29 30 29 29 29 28 26 25 23 22 20 18 17 16 15 13 12 11 10 10 9 8 8 7 7 7 6 6 6 6 6 6
38 40 41 42 43 42 40 38 35 33 31 31 31 30 29 31 31 30 29 27 25 24 22 21 19 18 16 15 14 13 12 11 10 10 9 9 8 8 8 8 7 7 7
36 38 40 42 43 43 42 40 38 36 35 33 32 32 31 30 32 33 33 31 29 28 26 25 23 22 20 18 17 16 15 14 13 12 11 11 10 10 9 9 9 9 9
33 35 38 40 42 43 42 42 41 40 39 37 36 34 33 32 33 34 35 34 33 32 30 29 27 26 24 22 21 19 18 17 16 15 14 13 12 12 11 11 11 11 11
29 32 34 37 39 41 42 42 42 42 42 40 39 38 37 34 33 34 36 37 37 36 34 33 31 30 28 26 24 23 22 20 19 18 17 16 15 15 14 13 13 13 13
26 29 32 34 37 39 40 41 41 42 42 42 41 40 39 37 35 36 35 38 38 38 37 36 35 34 32 30 28 26 25 24 23 22 21 20 19 18 17 16 15 15 15
21 24 28 31 34 37 39 40 41 41 42 42 42 42 42 40 39 37 37 37 39 39 40 39 37 36 35 33 31 29 28 26 25 25 24 22 21 20 20 19 18 17 17
16 19 23 27 30 33 37 39 40 41 42 42 42 43 45 45 43 41 40 39 39 39 41 41 41 39 38 36 35 33 31 29 27 26 26 25 24 23 22 21 21 20 19
13 15 17 22 25 29 32 36 38 40 41 42 42 43 44 45 45 45 43 41 40 39 40 42 42 41 40 39 37 35 33 31 30 28 27 26 25 24 24 23 23 22 21
11 12 14 17 20 24 28 32 35 38 40 41 43 44 45 45 45 46 46 44 42 42 41 41 41 43 42 41 39 37 36 34 32 30 28 27 27 26 25 25 24 23 23
11 11 12 14 16 20 23 28 32 35 38 40 42 44 45 46 46 46 46 45 44 43 42 41 41 41 42 42 40 39 38 36 34 33 31 29 28 27 27 26 25 24 23
13 12 12 13 15 17 20 23 27 32 36 39 41 43 44 46 47 47 48 47 46 45 44 43 43 42 43 43 42 41 40 38 37 35 33 31 30 29 28 27 26 26 25
15 14 14 14 15 16 18 20 23 27 30 35 38 41 43 45 47 48 49 50 49 47 46 45 46 44 43 42 42 42 41 40 38 36 34 33 31 30 30 29 28 27 26
17 16 16 16 17 18 19 20 22 24 27 30 33 37 40 43 46 48 49 50 50 49 48 46 47 46 46 45 44 43 42 41 41 38 36 35 33 32 31 31 29 28 28
20 19 19 18 19 19 20 20 22 24 25 28 30 33 35 39 42 45 47 49 50 49 48 48 48 47 46 46 46 44 43 42 41 39 38 37 36 34 33 32 31 30 29
22 21 21 20 20 21 21 21 22 23 25 26 28 30 32 35 38 41 44 46 49 50 49 48 49 48 48 47 47 45 43 42 42 41 40 39 38 37 35 35 34 33 32
24 24 22 22 22 22 22 22 22 22 23 24 26 29 31 32 35 37 40 43 45 47 49 49 48 48 48 48 47 46 44 42 42 43 42 41 39 39 37 36 36 35 34
26 25 24 23 23 23 22 22 22 22 22 23 24 26 28 30 32 34 37 40 42 45 46 47 48 48 48 48 47 47 46 44 44 43 43 43 42 41 40 39 37 36 34
27 27 26 25 24 24 23 22 22 21 21 22 23 25 26 28 29 30 33 36 39 42 43 44 45 46 46 46 47 47 46 46 44 43 42 42 43 43 42 41 39 37 34
28 29 28 26 26 25 24 23 22 20 19 19 20 22 24 24 26 27 29 31 34 37 41 42 43 43 44 44 46 46 46 45 44 44 43 43 43 43 42 41 40 37 35
29 29 29 28 28 27 26 25 22 19 17 16 16 17 19 21 23 24 25 26 29 32 35 38 39 40 42 43 43 43 44 45 45 44 44 44 44 43 41 40 38 36 34
29 29 30 30 29 29 28 25 22 19 15 13 11 12 14 16 18 19 19 21 23 26 29 32 34 35 37 38 40 42 42 43 43 42 42 41 41 41 40 39 37 35 32
28 29 30 30 30 30 29 27 23 19 15 11 8 7 9 11 13 14 16 17 20 22 24 26 29 31 32 34 36 37 39 40 40 41 40 40 39 39 38 37 36 34 32

GEFSMA_500_meanwind_060.txt.gz
Wind_Speed
33 33 31 32 30 29 27 25 25 25 24 24 22 21 19 17 16 15 14 13 13 12 11 11 10 10 9 9 9 8 8 9 9 8 8 7 7 6 6 6 6 5 4
31 33 32 32 31 30 30 28 26 26 26 25 25 24 23 21 20 19 17 16 15 14 13 12 12 11 10 10 10 9 9 9 9 8 7 7 6 6 6 5 5 4 4
29 31 31 31 32 32 31 30 28 27 27 27 27 26 25 24 23 22 21 19 18 17 16 15 14 13 12 11 11 10 10 9 9 8 7 7 6 6 6 6 5 5 4
27 28 30 30 31 31 31 30 30 30 28 27 27 27 27 26 26 26 25 23 22 20 19 17 16 15 14 13 12 12 11 10 9 9 8 7 7 6 6 6 5 5 4
25 26 27 29 30 30 31 30 30 30 30 28 27 27 26 27 28 28 28 27 25 24 22 21 19 18 17 16 15 14 13 12 11 10 9 8 8 7 7 7 6 6 5
21 23 25 27 28 29 30 30 31 31 31 31 29 28 27 27 27 28 29 31 30 28 26 25 23 21 20 19 17 16 15 14 13 12 11 10 9 9 8 8 7 7 7
18 20 23 24 26 28 29 30 31 32 32 32 31 30 28 28 27 28 29 31 32 32 30 28 27 25 24 22 21 19 18 17 16 14 13 12 11 11 10 10 9 9 9
15 17 20 22 24 26 28 28 30 31 32 33 32 32 31 29 28 29 28 30 33 34 34 32 31 29 27 26 25 23 22 20 19 18 16 15 14 13 13 12 12 11 11
12 14 16 19 21 23 25 27 28 30 31 32 33 33 32 32 31 31 30 30 32 34 34 34 34 33 31 29 28 27 25 24 22 21 20 18 18 17 16 15 14 14 13
11 12 13 15 18 20 23 25 26 27 29 30 32 34 34 34 34 32 32 32 32 34 35 36 36 36 35 33 32 31 29 27 26 24 23 22 21 20 19 18 17 17 16
10 10 11 12 15 17 20 23 25 26 27 29 31 33 34 35 36 35 34 34 34 34 35 37 37 38 37 37 36 34 33 31 30 28 27 25 24 23 22 21 20 20 19
10 10 10 11 12 15 17 20 22 25 27 28 30 32 34 35 36 36 37 37 36 36 36 36 36 37 39 39 37 36 36 35 34 32 30 29 27 26 25 24 23 22 21
13 11 11 11 11 12 14 17 20 22 25 27 29 31 33 35 36 37 37 38 38 39 39 37 38 38 38 38 38 38 38 38 36 35 34 32 31 29 28 27 26 25 24
15 13 12 11 12 12 14 16 18 20 22 25 27 30 31 34 36 37 38 39 39 40 40 39 39 39 39 38 39 40 41 40 39 38 37 36 34 32 31 29 28 27 26
18 17 15 14 13 13 14 16 17 19 21 23 26 29 31 32 34 37 39 40 41 40 40 40 41 42 42 41 41 41 41 41 42 41 40 38 36 35 34 32 31 29 28
21 20 18 17 16 15 15 15 16 18 21 23 25 27 30 32 34 36 38 41 42 42 41 41 41 42 43 42 43 41 41 41 42 42 42 41 39 37 36 34 33 31 30
22 21 21 19 17 17 16 16 17 18 20 22 24 26 28 31 33 35 37 39 41 43 43 42 42 43 43 43 43 44 43 43 42 42 43 42 41 40 38 37 35 34 33
23 23 22 21 20 19 18 18 18 19 21 23 24 26 28 30 32 34 35 37 39 41 42 43 44 44 44 44 43 44 44 43 43 43 44 44 43 42 41 39 37 35 34
24 24 23 22 22 21 20 20 20 20 21 23 24 25 27 29 31 33 34 36 38 39 40 42 43 45 45 45 44 44 45 43 44 44 43 43 43 43 42 40 39 37 36
24 25 25 24 23 23 22 22 21 22 22 22 23 23 25 27 29 31 33 35 36 37 38 40 41 43 45 45 45 45 44 44 44 43 42 42 41 42 43 42 40 39 38
24 25 25 25 25 25 25 24 24 23 22 21 21 21 22 24 26 28 31 33 34 35 37 38 39 41 42 44 44 44 44 44 44 43 43 42 42 42 41 41 40 40 39
24 25 25 26 26 26 26 26 25 24 22 21 20 20 20 20 22 24 27 29 31 33 34 35 37 38 40 41 43 43 43 43 43 44 43 43 43 43 42 41 41 40 40
25 25 25 26 27 27 28 27 26 24 23 21 20 19 18 17 18 20 22 25 27 30 32 33 34 36 37 38 40 41 42 42 42 42 44 44 44 44 43 42 41 40 40
25 25 25 26 27 27 28 28 27 25 23 22 20 19 17 15 15 15 18 21 23 26 28 30 32 34 35 36 38 39 39 40 40 40 41 42 42 43 43 41 40 40 40
25 25 26 26 26 27 27 27 27 25 24 23 21 19 17 15 13 12 13 15 18 21 23 26 29 31 33 34 36 37 38 39 40 40 40 41 41 41 41 40 40 40 40
25 25 25 26 26 26 26 26 26 25 24 23 22 20 17 15 13 11 10 11 12 15 18 21 24 26 29 32 34 35 36 37 38 39 39 39 39 40 40 41 41 41 42

GEFSMA_500_meanwind_066.txt.gz
Wind_Speed
27 28 29 30 29 29 29 30 28 27 25 24 25 25 22 20 19 17 16 14 13 13 13 12 11 11 11 11 11 11 11 12 12 12 12 12 11 10 10 9 8 7 6
25 26 27 28 29 29 27 29 28 28 28 26 26 27 26 24 21 20 19 17 16 15 15 13 13 12 12 11 11 11 11 12 12 12 12 12 11 10 9 9 8 7 6
23 25 25 26 28 29 29 29 29 28 28 27 26 27 28 27 24 22 21 20 19 18 17 16 15 14 13 13 12 12 12 13 13 13 12 12 11 10 9 9 8 8 6
20 22 24 25 27 28 28 28 29 29 29 28 27 27 28 29 27 25 23 22 21 20 19 18 17 16 15 14 14 13 13 14 13 13 13 13 12 11 10 9 9 8 7
17 19 21 23 25 27 28 28 28 29 29 29 28 27 28 29 28 27 26 25 24 23 22 21 20 18 17 16 16 15 15 14 14 14 13 13 13 11 10 10 10 8 7
13 15 17 20 22 24 26 26 27 29 29 29 29 28 29 28 26 27 28 28 27 26 26 24 23 21 20 19 18 18 17 16 16 15 15 14 14 12 11 11 11 9 8
8 10 13 16 19 21 23 24 26 27 29 29 29 30 29 29 27 27 28 30 30 30 29 28 26 25 24 23 22 21 20 19 18 17 16 16 15 14 13 13 12 11 10
6 7 9 12 15 18 20 22 24 25 27 28 29 29 28 29 29 30 28 29 31 31 32 32 30 29 27 26 25 24 23 22 21 20 19 18 17 16 15 15 14 13 12
6 6 7 9 11 13 16 19 21 24 25 26 27 28 28 28 30 30 31 30 30 31 32 33 34 32 31 30 29 28 26 25 24 23 21 20 19 18 17 17 16 15 14
9 7 6 6 8 10 12 16 18 21 23 25 27 28 29 29 30 31 31 33 33 32 32 33 35 36 35 34 33 32 30 29 28 27 25 24 22 21 20 19 19 18 17
11 10 8 6 6 8 9 12 16 18 21 24 26 28 29 30 31 32 32 34 35 34 34 35 36 36 37 38 37 36 35 33 32 31 29 28 27 25 24 23 22 21 20
14 12 10 8 7 7 8 9 12 15 18 20 23 25 28 30 31 33 34 35 36 37 37 37 37 38 38 39 39 39 39 38 37 36 34 33 31 29 28 26 25 24 23
16 15 13 11 9 8 8 8 10 12 15 18 20 23 26 28 30 33 34 37 37 38 39 39 40 41 41 40 41 40 41 41 41 40 38 37 36 34 32 30 28 27 26
18 17 15 13 12 10 9 8 9 11 13 16 18 21 24 26 29 32 34 36 38 39 39 40 41 42 42 43 44 44 43 43 43 42 41 41 40 38 36 34 32 30 29
19 18 17 16 15 13 11 10 9 10 11 13 16 19 22 24 27 30 32 35 38 40 41 42 43 43 45 45 46 45 45 45 44 43 43 43 42 41 39 38 36 34 32
19 18 18 17 16 15 14 13 11 11 11 12 15 17 20 23 26 28 31 33 36 39 40 42 44 45 45 46 47 47 47 46 45 44 44 44 44 44 43 42 39 37 36
19 18 18 18 17 17 16 15 14 13 13 13 14 16 18 21 24 27 30 32 34 37 39 41 44 45 46 47 47 47 47 48 48 46 45 45 44 44 44 44 42 40 39
19 19 18 18 18 18 18 17 16 15 15 13 13 15 17 19 22 24 27 30 33 35 37 40 42 45 46 48 48 48 47 48 48 47 46 45 44 43 44 44 44 43 42
19 19 19 19 19 19 19 19 19 17 16 15 15 15 16 18 20 22 24 28 31 34 36 38 41 43 45 46 47 48 48 48 48 49 48 47 45 44 44 45 45 44 44
19 19 19 19 19 20 20 20 20 18 18 17 16 16 17 17 18 20 22 24 27 30 33 36 39 42 44 46 46 46 48 48 48 50 49 48 47 46 46 45 45 45 45
19 19 19 19 19 20 20 21 20 19 18 18 18 18 18 17 18 18 19 21 23 26 29 32 36 39 42 44 45 45 46 47 47 48 48 48 48 47 47 46 45 45 45
19 19 19 19 19 20 20 20 20 19 19 19 20 19 18 18 18 17 17 17 19 22 24 28 31 34 37 40 42 44 45 46 46 47 48 49 49 48 47 47 46 45 46
19 19 19 19 19 19 20 20 20 19 19 20 20 20 19 18 18 17 16 16 16 18 20 23 26 29 32 35 38 40 42 44 45 45 46 47 48 48 47 46 46 45 45
20 20 20 20 20 19 20 20 20 20 19 19 20 20 19 18 17 16 16 15 14 15 16 19 22 25 28 31 34 36 39 41 42 43 44 44 46 47 47 46 46 46 45
21 21 21 21 20 20 20 20 20 20 20 20 20 20 19 18 18 17 16 15 14 14 15 16 18 21 24 27 30 32 35 37 38 40 41 42 43 45 47 47 45 45 45
22 22 22 21 21 21 21 20 20 20 20 20 20 19 19 19 18 17 16 15 15 14 14 16 17 19 22 24 26 29 32 34 36 37 39 41 41 43 44 45 45 45 45

GEFSMA_500_meanwind_072.txt.gz
Wind_Speed
21 23 25 27 28 28 29 28 27 26 27 24 22 22 21 22 20 17 15 14 13 12 12 11 11 11 12 12 13 13 14 15 14 13 13 13 13 13 12 11 10 9 8
18 20 22 24 26 28 28 27 27 26 26 26 24 23 22 22 21 20 18 16 15 14 13 13 13 12 12 13 13 13 14 14 14 14 13 13 13 13 12 11 11 9 8
15 17 19 22 24 27 27 27 27 26 26 26 25 24 23 23 23 21 20 19 18 16 15 14 14 14 14 13 13 14 14 14 14 14 13 13 13 13 12 11 11 10 9
13 14 16 18 21 24 25 25 26 26 26 25 26 25 24 24 25 24 22 21 20 19 18 17 16 16 15 15 15 15 15 15 15 15 14 14 13 12 12 12 11 11 10
10 10 12 15 17 19 22 24 25 26 26 26 26 26 25 24 25 26 26 24 23 22 21 20 19 18 17 17 17 16 16 15 15 15 15 14 14 13 13 12 11 11 10
8 9 9 11 14 16 18 21 22 24 25 26 27 27 27 26 26 27 28 27 26 25 24 22 22 21 20 19 18 18 17 17 16 16 16 16 15 14 13 13 12 12 11
8 7 8 8 10 13 16 18 20 23 25 25 26 27 27 27 27 27 27 28 28 28 27 25 24 24 23 21 21 20 19 19 18 17 17 17 17 15 14 14 13 13 12
9 7 6 6 7 10 13 16 18 20 22 24 25 26 27 27 27 28 27 28 29 29 29 28 27 26 26 24 24 23 22 21 20 19 19 19 19 18 16 16 15 14 14
12 9 7 5 5 7 10 13 16 17 19 21 23 25 26 26 27 28 28 29 30 30 30 31 30 29 28 27 26 25 24 24 23 22 21 21 20 20 19 18 17 16 16
13 11 9 7 5 4 6 9 11 14 17 20 22 24 25 26 27 28 29 30 30 30 31 31 32 32 32 31 30 29 28 27 26 25 24 24 23 22 21 20 20 19 18
15 13 11 9 7 5 4 5 8 11 14 17 20 22 25 26 27 28 29 30 31 31 32 33 34 33 33 34 34 33 32 31 30 29 28 27 26 25 24 23 22 21 21
17 15 13 11 9 7 5 5 6 8 11 14 17 19 22 24 26 27 29 30 31 32 33 33 35 36 35 35 36 36 36 35 34 33 32 31 30 29 27 26 25 24 23
17 16 15 13 11 9 7 6 6 7 9 11 14 16 18 21 24 26 27 29 30 33 34 35 36 36 37 38 38 38 38 38 37 36 36 35 35 33 32 30 29 28 27
17 16 15 14 12 11 10 8 7 5 6 8 11 14 16 19 21 23 26 28 29 31 34 35 37 39 39 39 40 40 40 41 41 40 39 39 38 37 36 35 33 32 31
17 16 15 14 13 12 11 10 9 7 5 5 7 10 12 15 17 20 23 25 28 30 32 34 37 39 40 42 43 43 43 44 43 43 43 42 41 41 40 39 37 37 35
16 16 15 15 14 13 13 12 11 9 7 6 6 7 9 11 14 17 20 23 25 28 31 34 36 38 41 43 44 45 46 46 45 45 45 45 45 44 44 43 42 41 39
15 15 15 15 15 14 13 13 13 12 10 8 7 7 8 9 11 14 17 20 22 25 28 31 35 37 39 42 44 46 47 48 47 48 48 47 47 47 46 46 45 44 43
15 15 15 14 14 14 14 14 13 13 12 10 9 8 8 9 10 12 14 17 20 22 25 28 32 35 38 40 42 44 46 49 50 50 50 50 49 49 49 48 48 47 46
14 14 14 14 14 14 14 14 14 13 13 12 10 10 9 10 10 11 12 14 17 20 23 26 30 33 36 38 40 42 45 47 49 51 52 52 52 51 51 51 50 49 48
15 14 14 14 14 13 13 13 13 13 13 13 12 11 11 10 11 11 12 13 14 17 20 23 26 29 32 34 36 39 42 45 47 49 51 52 53 53 53 53 52 51 50
15 15 15 14 14 14 13 13 14 14 14 13 13 12 12 12 12 12 12 12 13 14 16 18 21 24 27 29 31 34 38 41 44 46 48 50 51 52 53 53 54 53 52
16 16 16 15 15 14 14 14 14 14 14 14 14 13 13 13 13 13 13 14 14 14 15 17 18 20 23 25 27 29 32 36 39 42 44 46 48 49 51 52 53 54 53
18 17 17 16 16 15 15 14 14 15 15 15 15 14 14 14 14 14 14 15 15 15 15 16 17 19 20 22 23 25 27 30 33 37 39 41 43 45 47 49 52 53 54
19 19 18 17 17 16 16 15 15 15 15 15 15 15 15 15 15 15 15 15 15 15 15 16 17 18 19 19 21 22 24 25 28 31 34 37 40 42 44 46 48 50 52
21 20 19 18 17 17 16 16 16 16 16 16 16 16 16 16 16 16 16 16 16 16 16 16 17 17 18 19 20 21 22 23 25 28 31 33 36 39 41 42 45 47 50
22 21 20 19 18 18 18 17 17 17 17 17 17 17 17 17 17 17 17 17 17 17 17 17 17 17 18 19 20 21 21 22 23 26 28 30 32 36 38 39 41 44 46

GEFSMA_500_meanwind_078.txt.gz
Wind_Speed
17 18 19 20 22 24 25 26 27 27 25 25 24 23 23 22 20 20 18 17 16 15 15 14 14 15 15 16 16 17 17 17 17 16 16 16 15 15 14 13 12 11 10
15 15 17 18 19 21 23 25 26 27 26 26 26 25 24 24 22 21 20 19 17 16 15 15 15 15 15 16 17 17 17 18 17 17 17 17 16 16 15 14 13 12 11
12 13 14 15 17 19 20 23 25 26 26 26 26 26 25 24 24 23 22 20 19 18 17 16 16 16 16 17 17 17 17 18 18 17 17 17 17 17 16 15 14 13 12
9 10 11 13 15 17 18 21 24 25 25 26 26 26 26 26 25 24 24 22 21 20 18 17 16 16 17 17 18 17 17 18 18 17 17 17 17 17 17 16 15 15 14
8 8 9 11 12 14 15 17 21 24 24 25 26 26 26 26 27 25 24 24 22 21 20 19 18 17 17 18 18 18 18 18 18 18 18 17 17 17 17 17 16 15 14
8 6 7 8 9 11 13 15 18 21 22 23 23 23 25 26 26 26 26 26 25 23 21 20 20 19 18 18 19 18 18 18 18 18 18 18 18 18 18 17 16 16 15
9 7 5 6 6 8 10 13 16 19 20 21 22 22 23 24 25 26 26 26 26 25 24 23 22 20 20 20 20 20 20 19 19 19 19 19 19 19 18 18 17 17 16
9 7 6 4 4 6 8 10 13 15 18 20 20 21 22 23 24 26 26 26 26 27 27 26 24 23 22 22 22 21 21 21 20 20 20 20 20 20 19 19 18 17 17
11 9 6 4 2 2 4 7 10 13 15 17 19 20 22 23 24 25 26 26 26 26 27 27 26 25 25 24 23 23 23 23 22 22 21 21 21 20 20 20 20 19 18
12 10 8 6 4 1 1 4 6 9 12 15 17 19 20 22 23 24 25 26 25 26 27 27 28 28 27 27 26 25 25 25 24 24 23 23 22 22 22 22 21 21 20
13 12 10 8 6 3 1 1 3 6 8 11 14 16 18 20 22 23 24 25 26 26 27 27 28 29 29 29 30 29 28 28 27 27 26 25 25 25 25 24 23 23 22
13 12 11 10 8 6 3 1 1 3 6 8 11 13 16 18 20 21 22 23 24 25 26 27 28 30 30 30 31 31 31 31 30 30 29 28 28 27 27 27 26 25 24
13 12 12 11 9 7 5 3 1 1 3 6 9 11 14 16 18 20 21 22 23 24 26 28 29 30 31 32 32 33 33 33 33 32 32 32 31 31 30 30 29 28 28
13 12 12 11 10 9 7 5 3 2 2 5 7 10 12 15 17 19 20 21 22 23 25 27 28 29 31 33 33 34 35 34 34 35 35 35 34 34 33 33 32 31 31
12 12 12 11 10 9 8 6 5 3 2 3 5 8 10 12 15 17 19 21 22 24 24 26 28 29 31 32 34 35 36 36 37 37 37 37 37 37 36 36 35 35 35
11 11 11 11 10 9 8 7 6 5 3 2 2 4 7 9 11 13 15 17 20 22 24 26 27 29 30 31 33 34 36 37 38 39 40 40 40 40 40 40 40 39 39
10 10 10 10 10 9 8 8 7 6 5 4 3 3 4 6 8 10 12 14 16 19 21 23 25 27 29 30 32 34 36 38 39 40 41 42 43 43 43 43 43 43 43
10 10 10 9 9 9 8 7 7 6 5 5 4 3 3 4 7 9 10 12 14 16 18 20 22 24 26 28 31 33 35 37 39 40 42 43 44 44 44 44 44 45 46
10 10 10 9 9 9 8 8 7 6 6 5 5 4 3 4 6 8 9 11 13 15 16 18 21 23 24 26 28 31 33 35 38 40 42 43 44 45 46 47 46 47 48
11 11 11 10 10 9 9 9 8 7 7 6 6 5 5 5 6 7 8 10 12 13 15 17 18 21 23 24 26 28 30 32 35 38 41 43 44 45 46 47 48 48 49
12 12 12 11 11 11 10 10 9 9 8 8 7 7 7 7 7 8 9 10 11 13 14 16 17 19 21 23 25 27 28 29 31 33 36 39 42 44 45 46 47 48 49
13 13 12 12 12 12 12 11 11 11 10 10 9 9 9 9 9 10 10 11 11 13 14 15 16 17 19 20 22 24 26 27 29 31 33 36 38 40 42 43 44 46 48
13 13 13 13 13 13 12 12 12 12 12 11 11 11 11 11 12 12 12 13 13 14 14 15 16 17 18 20 21 22 23 25 27 28 30 32 35 37 39 40 41 43 44
13 14 14 14 14 13 13 13 13 13 13 13 13 13 13 13 13 14 14 14 15 15 16 16 17 18 19 20 21 22 23 24 26 27 28 29 32 34 36 38 40 41 41
14 14 14 15 14 14 14 14 14 14 14 14 14 14 14 14 15 15 15 16 16 16 17 17 18 18 19 20 21 22 23 24 25 26 27 27 29 30 32 35 37 39 40
14 15 15 15 15 15 15 15 15 16 16 16 16 16 16 16 16 17 17 17 17 18 18 18 19 19 20 20 21 22 23 24 25 26 26 26 27 28 29 32 34 36 37

GEFSMA_500_meanwind_084.txt.gz
Wind_Speed
19 18 18 18 18 18 18 19 20 22 25 26 25 25 25 26 24 23 21 19 19 18 18 17 16 16 16 15 16 16 16 16 17 16 15 13 13 11 11 10 9 8 7
18 17 16 16 16 16 17 18 18 19 21 24 23 23 24 25 24 24 23 20 20 19 18 18 17 17 17 16 16 17 16 17 17 16 15 14 14 13 12 11 10 9 8
17 16 14 14 14 14 14 16 17 18 19 21 22 22 23 25 24 24 24 22 20 19 19 18 17 17 17 17 16 17 17 17 17 17 16 15 15 14 13 12 11 10 9
16 15 13 12 11 12 12 14 15 15 18 20 21 22 23 25 24 24 24 23 21 20 19 19 18 17 17 17 17 17 17 18 17 17 17 16 16 15 14 14 12 11 10
16 14 12 11 10 10 10 11 13 14 16 19 20 21 23 24 25 25 25 23 22 21 20 19 19 18 17 17 17 17 17 18 17 17 17 17 16 16 15 14 14 13 12
16 14 13 11 9 8 9 9 11 13 14 17 19 20 22 24 25 25 25 24 23 22 21 20 20 18 17 17 17 18 17 17 17 18 17 17 16 16 16 15 15 14 13
16 15 13 11 9 7 7 7 9 11 13 15 17 19 20 23 24 25 25 24 24 24 22 21 21 19 18 18 18 18 18 18 17 18 17 17 17 16 16 16 16 15 15
16 15 13 11 8 6 5 4 6 9 11 13 14 16 18 20 22 23 24 24 25 25 24 22 21 20 19 18 18 19 18 17 18 18 17 17 17 17 17 17 17 17 16
16 15 13 11 8 6 4 3 3 6 9 12 13 14 15 17 19 22 22 23 23 25 25 23 23 22 21 20 19 20 19 19 18 19 19 18 18 18 17 18 19 18 18
15 14 13 11 9 6 4 3 1 4 7 10 12 12 14 15 16 19 21 22 22 23 24 25 25 24 23 22 21 21 21 21 20 20 20 20 19 19 18 18 19 19 19
15 14 13 12 10 7 6 4 2 2 5 7 9 11 13 15 15 17 18 19 21 22 23 25 25 25 25 24 24 23 23 23 22 22 21 21 21 21 20 20 19 20 20
14 13 13 12 11 8 6 5 3 1 2 4 6 9 12 14 15 16 17 18 20 21 22 23 25 25 25 24 25 25 25 25 24 24 23 23 23 23 22 22 22 22 22
13 13 12 12 11 9 7 5 4 3 1 2 4 6 9 11 13 15 17 18 20 21 21 22 23 24 25 25 26 26 26 25 26 25 25 25 25 25 25 25 24 25 25
13 12 12 11 10 9 8 6 5 4 2 0 2 4 7 10 12 14 16 17 18 20 21 22 23 23 25 25 27 27 27 27 28 28 28 28 27 27 28 28 27 27 27
12 12 11 11 10 9 8 7 6 5 4 3 1 2 4 7 10 12 15 16 17 18 20 21 22 23 24 25 26 27 28 30 30 31 31 31 31 30 30 30 30 30 30
12 11 11 10 10 9 8 7 6 6 5 4 3 2 3 4 7 9 11 13 14 16 18 20 21 23 24 25 26 27 28 30 31 32 32 33 33 34 33 33 33 32 33
12 11 10 10 9 8 8 7 6 6 5 4 3 3 3 3 5 7 8 10 12 14 16 18 20 21 23 24 26 27 28 30 31 32 33 34 34 35 35 35 35 35 35
12 11 10 10 9 8 7 7 6 6 5 5 4 3 3 3 4 5 7 9 10 12 14 16 18 19 21 22 24 26 27 29 30 31 33 34 34 35 36 36 37 37 38
12 11 10 10 9 9 8 7 6 6 6 5 5 4 4 4 4 4 6 8 9 11 12 14 16 17 19 21 22 23 25 26 28 30 32 33 33 35 36 37 37 38 39
12 11 11 10 9 9 8 8 7 6 6 6 6 5 5 5 5 5 6 8 9 11 12 14 15 17 18 20 21 23 23 24 26 28 30 31 33 34 36 37 38 39 39
12 12 12 11 10 9 9 8 8 8 7 7 7 6 6 7 7 7 8 9 10 11 12 13 15 17 18 20 21 22 24 25 26 26 28 30 31 33 34 36 37 38 39
12 12 12 12 11 10 10 9 9 9 8 8 8 8 8 8 8 9 9 10 11 12 13 14 15 17 18 19 21 22 23 24 26 26 27 29 30 31 33 34 36 37 38
12 12 12 12 12 11 10 10 10 9 9 9 9 9 9 9 10 10 11 11 12 13 14 15 16 17 18 19 20 21 22 23 25 25 27 28 29 29 31 32 34 36 37
12 12 12 12 12 11 11 10 10 10 10 10 10 11 11 11 11 12 12 13 14 14 15 16 17 18 19 19 20 21 22 23 25 25 26 27 29 29 30 30 31 32 34
12 12 12 12 12 12 12 11 11 11 11 11 12 12 12 13 13 14 14 14 15 16 17 18 18 19 20 20 21 22 23 24 25 26 27 27 28 29 30 31 31 32 33
12 12 12 12 12 12 12 12 12 12 13 13 13 14 14 15 15 16 16 16 17 17 18 19 19 20 21 21 22 23 24 25 26 27 27 28 29 29 30 31 32 33 33

GEFSMA_500_meanwind_090.txt.gz
Wind_Speed
20 19 18 17 17 16 16 17 18 19 21 23 24 25 26 26 26 27 26 24 23 21 20 19 18 18 17 16 16 16 16 16 16 16 15 14 13 13 13 12 11 11 10
20 19 17 16 15 15 15 16 17 18 19 21 23 25 27 26 26 26 26 25 23 22 20 19 18 19 18 17 17 17 16 17 17 16 16 16 14 14 13 12 12 11 10
19 18 17 15 14 13 13 14 16 17 18 20 21 24 26 26 26 26 26 26 24 22 21 20 19 19 18 18 18 17 17 17 17 17 17 17 16 14 14 13 13 12 11
19 18 17 15 13 12 12 12 14 16 18 19 20 23 25 25 25 27 26 26 24 23 21 20 19 19 19 18 18 17 17 17 18 18 18 18 17 15 15 14 13 12 12
19 18 16 15 12 10 10 10 12 14 17 19 20 21 24 25 25 26 26 26 25 24 22 21 20 20 19 19 19 18 17 18 19 19 19 18 18 16 16 15 15 14 13
19 18 16 14 11 10 9 9 10 11 15 17 18 20 21 22 24 24 26 25 25 25 23 22 21 20 20 20 19 19 19 19 19 19 19 18 18 17 17 17 16 15 14
18 18 16 14 12 9 7 6 7 9 13 15 16 18 20 21 22 23 24 25 25 25 24 23 22 21 20 20 20 19 19 20 20 19 19 19 19 19 18 17 17 16 16
18 18 17 14 11 9 6 4 4 7 10 13 15 16 19 20 22 23 24 25 24 24 24 23 22 22 21 21 20 20 20 20 20 20 19 20 19 19 18 18 17 17 17
18 17 16 14 11 8 6 4 2 5 9 12 13 15 17 19 20 22 22 24 24 24 23 22 22 21 21 21 21 20 20 20 20 20 20 20 20 20 19 18 18 18 18
17 17 16 14 12 9 6 4 0 3 7 10 12 13 16 17 18 20 21 22 24 24 23 23 23 23 22 21 21 21 21 21 21 21 20 20 20 20 20 19 19 19 19
16 16 16 14 12 9 7 5 2 3 5 8 10 12 13 15 16 18 19 21 24 24 23 23 24 24 24 23 23 22 22 22 22 22 21 20 20 21 20 20 20 20 20
15 15 15 14 12 10 7 5 3 3 4 6 9 11 12 13 15 16 18 19 22 23 23 22 23 24 25 25 24 24 23 23 23 23 22 22 21 22 21 21 21 22 22
14 14 13 12 11 10 8 6 5 3 4 5 7 9 10 11 13 14 17 19 20 21 22 22 23 24 25 25 25 24 24 25 24 24 24 24 23 23 23 23 23 23 23
14 13 12 11 10 10 8 7 6 4 4 4 5 6 8 9 11 13 15 17 19 20 21 22 22 23 24 25 26 25 25 25 25 25 26 26 25 25 25 24 25 25 25
13 12 12 11 10 9 8 6 5 5 4 3 3 4 5 7 9 10 13 16 17 18 20 21 22 23 24 24 24 26 27 25 26 26 26 26 27 27 27 27 27 27 27
11 11 11 10 10 10 8 6 5 4 3 3 3 3 4 5 6 8 11 14 16 17 18 20 21 22 22 23 23 24 26 26 26 26 26 27 27 28 28 29 29 29 30
10 10 10 9 9 9 8 7 5 4 3 2 2 2 2 3 5 6 9 12 14 15 16 18 20 20 21 22 22 23 24 26 27 27 28 28 29 29 30 30 31 31 32
9 9 9 9 8 8 7 7 6 4 3 2 1 1 1 2 3 5 7 10 13 14 15 17 19 20 21 22 22 22 23 25 27 27 28 28 30 31 31 32 32 33 34
8 8 8 8 8 7 7 6 5 4 3 2 1 0 1 2 3 5 6 8 10 12 14 16 17 18 20 21 22 22 23 24 26 26 27 27 29 30 31 32 33 33 34
7 8 8 8 7 7 6 6 5 4 3 2 2 1 2 2 3 4 5 7 9 11 12 14 15 16 18 19 20 21 22 23 25 26 26 27 28 29 31 32 33 33 34
7 7 7 7 7 6 6 5 5 4 3 3 2 2 3 3 3 4 5 6 8 9 11 13 14 14 16 18 19 20 21 22 23 24 26 27 28 29 30 31 33 34 35
7 6 6 6 6 6 5 5 5 5 4 4 3 3 3 4 4 5 5 6 7 9 11 12 14 15 16 17 19 20 21 22 23 25 26 27 28 30 31 31 33 34 36
9 8 7 7 6 6 5 5 5 5 5 4 4 4 4 4 5 5 6 7 8 9 11 12 13 14 16 17 18 20 21 22 23 24 26 27 28 30 31 32 33 34 35
11 10 9 8 7 6 6 6 6 6 5 5 5 5 5 6 6 6 7 8 9 10 11 12 14 15 16 17 19 20 21 22 23 24 25 26 28 29 30 31 32 33 34
14 13 11 10 9 8 7 7 7 7 7 6 6 7 7 7 8 8 8 9 10 11 12 13 14 15 17 18 18 20 21 22 23 24 25 26 28 29 30 31 31 33 34
17 16 14 13 12 11 10 9 9 9 9 9 8 9 9 9 9 10 10 11 11 12 13 14 15 16 17 18 19 20 21 23 24 25 26 27 28 29 30 32 32 33 34

GEFSMA_500_meanwind_096.txt.gz
Wind_Speed
19 20 20 19 19 18 18 17 17 17 18 18 19 20 20 21 21 21 22 23 22 21 19 18 18 18 17 17 17 16 16 16 15 14 15 14 14 13 12 11 11 10 9
19 19 19 19 18 18 17 17 16 17 17 18 19 19 20 21 22 22 22 22 23 22 21 19 19 18 18 18 18 18 18 17 16 16 16 15 14 14 13 12 11 11 10
19 19 19 18 18 17 17 16 16 16 17 18 19 19 20 21 21 21 22 22 22 23 21 20 19 19 18 18 18 18 18 17 17 17 16 16 15 15 14 13 12 12 11
19 19 18 18 18 17 16 15 15 15 16 17 18 19 20 21 21 21 22 22 22 23 23 22 20 20 19 18 18 18 18 18 18 18 17 17 16 15 15 14 13 13 12
19 18 18 18 18 17 15 14 13 13 14 15 17 19 20 20 21 21 22 23 23 24 23 23 21 20 19 19 18 18 18 18 18 18 18 18 17 16 15 14 13 13 13
18 18 18 17 17 16 14 13 12 11 12 13 15 17 19 20 20 21 22 24 25 25 23 22 22 21 20 19 19 19 18 18 18 19 19 19 18 17 16 16 15 14 13
18 17 17 17 16 15 13 11 10 9 10 11 14 16 17 19 20 21 23 24 26 25 24 22 22 22 20 20 20 19 19 18 18 19 19 19 19 18 17 16 16 15 14
17 17 16 16 15 15 13 11 9 7 8 10 12 15 16 18 18 20 22 23 24 25 24 24 22 22 21 21 21 20 19 19 19 20 20 20 20 19 18 18 17 16 15
16 16 16 16 15 14 12 11 7 5 5 7 10 13 15 17 17 19 21 22 24 25 25 24 24 24 23 21 21 21 20 20 20 20 21 20 20 20 19 19 18 17 17
16 15 15 15 14 13 12 11 7 3 2 5 9 11 14 15 16 18 20 21 23 23 24 25 23 23 23 21 20 21 21 20 20 21 21 21 20 20 20 19 19 19 18
15 15 14 14 13 12 11 10 7 3 0 4 7 10 12 12 15 17 19 20 21 22 23 24 23 22 22 21 21 21 21 20 20 21 21 21 21 20 20 20 20 19 19
15 14 13 13 12 12 10 9 7 4 1 3 6 9 10 12 14 15 17 18 19 20 22 23 23 22 22 21 21 21 21 21 21 22 21 21 21 21 21 20 20 20 20
14 13 12 12 12 11 10 8 6 4 2 2 5 7 8 10 12 14 16 16 17 18 20 21 22 22 23 22 21 21 21 21 21 22 22 22 21 21 21 21 21 21 21
13 13 12 11 11 10 10 8 6 3 2 1 3 5 7 9 11 12 14 15 16 18 20 21 21 22 22 22 22 22 22 21 21 22 22 23 22 22 22 23 23 22 22
12 12 11 11 10 10 9 8 6 4 2 1 2 3 5 7 10 10 12 14 15 17 19 20 21 21 22 22 23 23 23 23 23 23 24 24 24 24 23 23 24 24 24
11 11 11 10 9 9 9 8 6 4 2 1 1 3 4 6 8 10 11 12 13 15 17 18 19 20 20 20 21 22 23 24 24 24 25 25 26 26 26 26 26 26 26
10 10 10 9 8 8 7 7 6 4 2 1 1 2 4 5 7 9 10 11 12 14 16 18 18 19 20 20 21 22 23 24 25 25 26 26 27 27 27 26 27 27 28
11 10 9 9 8 7 6 6 6 4 3 2 1 1 2 4 6 7 9 10 12 13 15 17 19 19 20 21 21 22 22 23 24 25 26 26 26 27 27 28 28 28 29
11 11 10 9 8 7 6 5 5 4 3 2 1 2 2 4 5 6 7 9 10 11 13 15 17 18 19 20 21 22 23 23 24 24 25 25 26 26 27 28 29 29 30
12 12 11 10 8 8 7 6 5 4 3 3 2 2 3 4 5 6 7 8 9 10 12 14 16 17 18 20 21 21 22 23 23 24 24 25 26 27 28 29 30 30 30
14 13 12 11 10 9 8 7 6 5 4 4 4 4 4 4 5 6 7 9 10 10 12 13 14 15 17 18 20 21 22 22 23 24 24 25 26 27 27 28 28 30 31
16 15 14 13 12 11 10 8 7 7 6 6 6 6 5 5 6 7 8 9 9 10 11 13 14 14 15 17 19 20 21 22 23 24 24 25 25 26 27 28 29 30 31
19 17 16 15 14 13 12 10 9 8 8 7 7 7 7 7 7 8 8 9 9 10 11 12 13 14 15 16 17 19 20 21 22 23 24 25 26 27 28 28 30 30 31
22 21 19 18 17 16 15 14 12 11 10 9 9 9 8 8 8 8 9 9 10 10 11 12 13 13 14 15 16 17 18 20 21 22 23 24 25 27 28 28 29 30 31
25 24 22 21 20 19 18 17 15 14 13 12 11 11 10 10 10 10 10 10 10 11 11 12 13 13 14 14 16 17 18 19 20 21 22 23 24 25 26 27 29 30 31
27 27 25 24 23 22 21 20 18 17 16 15 14 13 12 12 12 12 11 11 12 12 12 13 14 14 15 15 16 17 18 19 20 21 22 22 23 24 26 27 28 29 30

GEFSMA_500_meanwind_102.txt.gz
Wind_Speed
17 18 19 19 19 18 19 19 18 18 18 18 18 18 18 19 20 22 24 24 24 24 25 24 22 22 21 20 20 20 19 18 17 16 16 15 13 13 12 12 11 10 9
18 19 19 19 18 18 19 18 18 17 17 18 19 19 19 19 20 21 23 24 24 25 25 24 23 23 22 22 22 21 19 18 18 17 17 16 15 14 13 13 11 10 9
18 19 19 18 18 19 18 17 17 16 16 17 18 18 19 20 21 21 23 24 25 26 26 25 24 24 23 23 23 22 21 19 18 17 17 17 16 15 14 13 12 11 10
18 19 19 18 18 18 18 16 16 15 15 15 16 18 19 20 21 21 22 24 25 26 26 26 25 24 24 23 23 23 22 21 19 19 18 18 17 16 15 14 13 12 11
18 18 18 18 18 18 17 16 15 14 13 13 15 17 18 19 21 21 22 24 25 26 26 26 26 25 25 24 23 23 23 22 21 20 19 19 18 17 16 15 14 13 12
18 18 17 17 18 17 16 15 13 12 12 12 13 15 18 20 20 21 22 24 24 26 26 26 27 25 25 24 24 23 23 23 22 22 21 20 19 18 17 16 15 14 13
18 17 17 17 17 17 15 13 12 11 10 11 12 14 16 18 20 21 22 24 24 25 26 27 27 26 25 25 25 24 23 23 22 22 22 22 21 19 18 17 16 15 14
17 17 16 16 16 16 15 13 12 10 9 9 10 12 15 18 20 21 21 23 24 25 26 27 27 26 25 24 24 24 23 22 22 23 22 22 22 21 20 18 17 16 15
17 17 16 16 16 15 14 13 11 9 7 6 8 10 13 16 18 20 21 22 24 24 24 26 27 26 25 25 24 24 24 23 22 23 23 23 23 22 21 20 19 17 17
17 17 16 16 15 14 13 12 10 7 5 4 6 9 12 15 17 19 20 22 23 24 24 26 26 25 25 25 25 24 24 24 23 22 23 23 24 23 23 21 20 19 18
17 17 16 16 15 14 12 11 9 7 4 3 4 7 10 13 15 17 18 21 23 24 24 25 26 25 25 25 25 25 25 24 23 22 22 23 23 24 24 23 22 21 20
16 16 16 15 15 14 12 10 9 7 4 2 3 6 9 12 13 16 17 19 21 23 24 25 25 24 25 24 24 24 24 24 24 23 23 23 23 24 24 23 23 22 21
15 15 15 15 14 13 12 10 8 7 5 1 2 5 7 10 12 14 16 18 20 22 22 24 24 25 25 24 24 24 24 24 24 24 23 24 24 24 24 24 23 23 23
15 15 15 15 14 13 12 10 8 7 4 2 1 4 6 9 11 13 15 17 18 20 21 23 24 25 25 24 24 24 24 24 23 23 23 23 24 24 24 24 24 24 24
15 15 14 14 14 13 11 11 9 7 5 3 2 3 5 8 10 13 14 16 17 18 19 21 23 24 25 25 25 25 24 24 24 24 24 23 24 24 24 24 25 25 25
15 15 14 14 14 13 11 10 10 8 6 4 2 2 4 7 9 12 13 15 16 17 19 21 22 23 25 25 25 25 25 25 25 25 25 25 24 24 25 24 24 25 26
16 15 14 14 14 13 12 11 10 9 7 5 4 3 4 6 9 10 12 13 15 17 19 19 21 22 23 24 25 25 26 26 26 26 26 25 25 25 25 26 26 25 26
16 16 15 14 14 13 12 11 10 9 8 6 5 4 5 7 8 9 11 12 14 15 17 18 20 21 23 24 24 24 25 25 25 26 26 26 26 26 27 27 27 27 27
17 16 16 15 14 13 12 12 11 10 9 8 6 6 6 7 9 10 11 12 13 14 16 17 18 19 21 23 23 24 24 24 25 25 26 26 27 27 27 27 28 28 28
18 17 17 16 15 14 13 13 12 11 10 9 8 7 7 8 9 10 11 12 13 14 15 16 17 18 18 21 22 23 23 24 25 25 26 26 27 28 28 28 28 28 28
20 19 18 18 17 16 15 14 14 13 12 11 10 10 9 9 9 10 11 12 14 14 15 17 17 18 18 19 21 23 24 25 26 26 26 26 27 27 28 27 27 28 29
21 21 20 20 19 19 18 17 16 15 14 13 12 12 11 11 11 11 12 13 14 15 16 17 18 19 20 19 21 22 24 24 25 26 27 27 28 28 28 28 28 28 29
24 24 23 23 22 21 21 20 19 18 17 16 15 14 14 13 14 14 13 14 15 16 17 17 18 19 20 21 21 22 23 24 24 26 26 27 27 27 27 28 28 29 29
26 26 26 26 25 24 23 23 22 21 20 19 18 17 17 16 16 16 16 16 16 16 17 18 18 19 20 21 21 21 22 23 23 24 25 26 26 27 27 27 27 28 30
30 29 29 29 28 28 27 26 25 24 24 23 22 21 20 19 19 19 19 18 18 18 18 18 18 19 20 20 21 22 22 22 22 23 24 24 25 25 25 26 27 27 27
33 33 32 32 31 31 31 30 29 28 27 26 25 24 23 22 21 21 21 21 21 20 20 20 20 20 20 21 21 22 22 22 22 22 23 23 23 24 24 24 25 25 26

GEFSMA_500_meanwind_108.txt.gz
Wind_Speed
18 19 19 19 19 19 19 18 18 18 18 17 17 17 16 17 18 18 19 20 21 22 23 23 23 22 21 20 19 18 17 16 15 14 13 11 10 10 9 9 9 9 9
19 19 19 20 20 19 19 19 19 18 17 17 16 16 16 16 17 18 18 20 21 22 23 22 22 22 21 21 19 18 18 18 16 15 14 13 12 11 10 9 9 8 8
19 19 19 20 19 19 19 18 18 17 16 16 15 15 15 16 17 17 17 19 21 23 23 23 23 22 22 22 21 20 20 20 18 16 15 15 14 12 12 11 9 9 9
19 19 20 20 19 18 18 18 17 16 15 14 14 13 14 15 17 17 17 19 21 22 24 24 23 23 23 22 22 21 21 20 19 18 17 16 15 14 13 12 10 9 9
19 19 20 19 19 18 18 17 16 15 14 13 12 12 13 14 16 17 17 19 20 22 23 24 24 24 24 24 23 23 22 21 20 19 18 18 17 16 14 13 12 11 10
19 20 20 19 19 18 18 17 16 14 13 12 11 10 11 13 15 17 17 19 20 22 22 23 24 24 24 24 24 24 23 22 21 20 19 19 18 17 16 14 13 12 11
19 19 19 19 19 18 17 16 15 14 13 12 10 9 8 10 12 15 17 19 20 22 22 22 23 24 24 24 24 24 23 22 22 21 20 21 19 18 17 16 14 13 12
18 19 19 18 18 18 17 16 15 14 13 11 9 7 7 8 11 14 16 18 19 21 22 22 23 25 25 24 24 24 23 22 22 22 21 21 20 19 18 17 15 14 13
18 18 19 18 18 18 17 16 14 13 12 10 8 6 5 7 9 12 15 17 18 19 21 22 23 24 25 25 25 24 24 23 23 23 22 21 21 20 19 18 17 16 15
18 18 19 18 18 17 16 15 14 13 12 10 8 6 4 6 8 11 13 16 17 18 19 21 21 22 23 23 25 24 24 24 24 23 23 22 22 21 21 20 19 18 16
17 18 18 18 17 17 16 16 14 13 12 10 8 6 4 4 6 9 12 14 16 17 19 20 21 22 22 23 25 25 25 25 24 24 23 23 23 22 22 22 21 19 18
17 17 18 18 17 17 16 16 15 13 12 10 8 6 4 3 4 7 10 13 15 16 18 20 20 22 23 23 24 25 24 25 24 24 24 24 24 24 24 23 22 21 20
17 17 17 17 17 17 16 15 15 13 12 10 8 6 4 3 3 6 8 11 13 14 16 17 19 20 22 23 23 24 23 24 24 24 23 23 23 24 24 24 24 23 22
18 17 17 17 17 16 16 15 15 14 12 10 9 6 4 3 2 4 6 8 11 13 15 17 18 20 21 22 22 23 23 23 23 24 24 23 22 23 24 24 24 24 24
18 18 18 17 17 17 16 16 15 15 13 11 9 7 5 4 3 4 6 7 9 12 14 16 18 19 20 22 22 22 23 23 23 23 24 23 23 24 24 24 24 25 25
18 19 18 18 17 17 17 16 15 14 13 11 10 8 6 5 4 5 6 7 9 11 13 15 17 19 20 21 22 22 22 23 23 24 24 23 23 23 24 25 24 25 25
18 19 19 19 18 18 18 16 15 14 13 12 11 9 8 7 6 5 6 8 9 11 13 14 16 18 19 21 21 22 23 23 23 23 23 23 24 23 23 24 25 26 26
19 19 19 19 19 19 18 18 16 15 14 13 12 10 9 9 8 8 8 9 10 11 13 14 15 17 18 19 20 22 23 24 24 24 23 24 24 25 25 25 25 25 26
21 21 21 20 20 20 19 18 18 16 15 14 13 12 11 10 10 10 10 11 11 12 13 14 15 16 18 19 20 20 22 23 24 24 24 24 24 24 25 26 26 26 26
22 22 22 22 21 21 20 20 19 18 16 15 14 13 12 12 12 12 11 12 13 13 15 15 16 17 18 19 20 20 21 22 23 24 25 25 25 25 25 26 26 27 27
23 23 23 23 23 23 22 22 21 20 19 18 17 15 14 14 13 13 13 13 14 15 15 16 17 18 18 19 20 22 22 23 24 25 25 26 26 27 27 27 28 28 28
24 25 25 25 25 24 24 24 23 22 21 20 19 18 17 16 16 15 15 15 16 16 16 16 17 19 19 20 21 22 23 24 24 25 26 26 27 27 27 27 28 28 29
27 27 27 27 27 27 27 27 26 26 24 23 23 22 20 19 19 19 18 17 17 18 19 19 19 19 20 21 22 23 23 23 24 24 26 26 27 27 27 28 28 29 29
30 30 30 30 31 30 30 30 30 29 28 27 26 25 24 23 22 22 22 21 20 20 21 21 21 22 22 22 23 24 24 25 25 25 26 26 27 27 28 28 29 29 29
32 33 34 34 34 34 34 33 33 32 31 30 29 29 28 27 26 26 25 25 24 24 23 24 24 24 24 24 25 25 26 26 26 26 27 27 28 28 28 28 28 29 29
35 36 37 38 37 37 37 36 36 36 35 34 33 33 32 31 30 29 29 28 27 27 26 26 26 26 26 27 27 27 27 27 27 27 28 28 29 29 28 29 28 28 28

GEFSMA_500_meanwind_114.txt.gz
Wind_Speed
12 12 13 13 14 14 14 14 14 15 14 15 15 15 15 15 15 15 16 17 17 18 18 19 19 19 19 19 18 17 15 15 14 13 12 11 10 11 11 11 12 13 13
12 13 13 13 14 14 14 14 14 14 14 14 13 13 13 14 16 16 16 17 17 18 19 19 20 20 20 20 19 18 17 16 15 14 13 12 12 12 12 11 12 12 13
12 13 13 13 14 14 14 14 14 13 13 12 12 12 12 13 14 16 17 17 18 18 19 20 21 21 21 21 20 19 18 17 16 16 15 14 13 13 13 12 12 12 12
12 13 13 13 14 14 15 14 13 12 11 11 11 11 11 11 13 15 16 17 18 18 19 20 21 22 22 22 21 20 19 18 18 17 16 15 14 15 14 13 12 13 13
12 13 13 13 14 15 15 13 12 12 11 10 10 10 10 10 12 13 15 17 18 19 20 21 22 22 22 22 22 21 20 19 19 18 17 16 16 16 15 14 13 13 13
12 13 13 13 15 15 14 13 12 11 10 9 9 8 8 8 9 11 14 16 18 19 20 21 22 23 23 23 23 22 21 21 20 19 18 18 18 17 16 15 14 13 13
12 13 13 14 15 15 14 13 12 11 9 8 7 6 5 6 8 10 12 15 17 19 20 21 22 23 23 23 23 22 21 21 21 21 19 19 19 19 18 16 16 14 14
13 13 14 14 14 14 14 13 12 11 9 8 7 5 3 4 6 9 11 13 16 17 19 20 22 22 23 23 23 22 21 21 22 22 21 20 20 20 19 18 17 16 15
13 13 13 14 15 14 14 13 13 12 10 9 7 5 3 2 4 7 10 13 15 17 18 19 21 22 22 23 23 23 22 22 22 22 22 21 21 20 20 19 19 18 17
13 13 13 14 14 14 14 13 13 12 11 9 7 5 3 1 3 5 8 11 13 15 17 18 20 21 21 23 24 22 22 22 23 23 22 22 22 22 21 21 20 19 18
14 14 14 14 14 14 14 13 13 12 12 10 8 6 4 1 1 4 6 9 11 14 16 18 19 20 22 22 23 23 22 23 23 23 24 23 22 23 23 22 22 21 20
14 14 14 14 15 15 14 13 14 13 12 11 9 7 5 2 1 3 5 8 10 12 14 16 17 19 21 22 23 23 23 23 23 23 24 24 23 24 24 24 23 22 21
14 15 15 15 15 16 15 14 14 14 13 11 9 8 6 4 2 2 4 6 9 10 13 15 16 17 19 21 23 23 23 23 24 24 24 24 24 24 25 24 24 24 23
14 15 16 16 17 16 16 15 14 14 13 12 10 8 6 4 3 0 2 5 7 9 11 14 15 16 18 20 22 22 23 24 24 24 25 25 25 25 25 25 25 25 25
14 15 15 16 16 17 16 16 14 14 13 13 11 9 7 5 3 2 2 4 6 9 10 13 15 17 18 19 21 23 24 24 24 25 25 26 26 26 26 26 26 26 26
14 15 15 16 16 17 17 17 15 14 13 13 11 9 7 6 4 3 3 4 6 8 10 12 14 16 18 19 20 22 24 24 25 26 26 26 26 26 26 26 26 26 26
14 15 15 16 16 17 17 17 16 15 13 13 12 10 8 7 6 5 4 4 6 7 9 11 13 15 17 19 21 22 24 24 25 26 27 27 26 26 26 27 27 27 27
14 15 16 16 16 17 17 17 17 16 15 13 13 12 10 9 8 7 6 7 7 8 10 11 13 15 17 19 21 22 24 25 25 26 27 27 27 27 27 27 27 28 28
15 16 16 17 17 17 17 17 17 17 16 15 14 14 13 11 10 9 9 8 9 10 11 12 14 15 17 19 20 22 24 25 25 26 27 27 28 28 27 28 29 29 29
15 16 17 18 18 18 18 18 18 18 18 17 16 16 15 14 13 13 12 12 11 12 13 14 15 16 18 19 20 22 24 25 25 25 27 28 29 29 29 29 29 30 30
17 18 19 19 19 19 19 20 20 20 20 19 19 19 18 16 16 15 15 15 15 15 15 16 17 18 19 21 21 22 24 26 26 26 27 29 29 30 31 31 31 31 31
18 19 20 21 21 21 21 21 21 22 22 22 22 22 21 20 19 18 18 17 18 18 18 19 19 20 21 22 23 24 25 26 27 28 28 29 30 30 31 31 32 32 32
20 21 22 23 23 23 23 24 24 24 25 25 25 24 24 24 23 22 22 21 21 21 21 22 22 23 23 24 25 26 26 28 28 29 30 30 31 31 32 32 33 33 33
23 24 25 26 26 26 27 27 28 28 29 28 28 27 26 26 26 26 25 26 26 25 24 24 25 26 26 27 27 28 29 29 29 30 31 31 32 32 33 33 33 34 34
26 27 28 28 29 29 30 31 32 32 32 32 31 31 30 30 30 30 29 29 29 30 29 28 28 28 29 30 30 31 32 32 32 33 33 33 33 33 34 34 34 34 34
29 30 31 31 32 32 33 35 35 35 35 35 34 34 34 34 34 34 33 33 33 33 33 32 32 32 32 33 34 34 34 34 34 35 36 35 35 35 35 35 35 35 36

GEFSMA_500_meanwind_120.txt.gz
Wind_Speed
13 12 13 13 13 12 12 12 11 11 11 11 11 11 11 12 12 12 13 14 14 15 16 16 17 17 17 17 16 15 15 14 13 12 11 10 10 10 11 12 12 12 12
12 12 13 13 12 12 12 12 11 11 11 11 11 10 10 10 11 12 13 14 15 15 17 17 18 18 18 18 18 17 16 15 14 13 12 11 11 11 11 11 12 12 12
13 13 13 13 13 13 12 12 11 11 11 10 10 9 9 10 10 11 13 14 15 16 18 18 18 18 19 19 19 18 18 17 16 14 13 12 11 11 11 11 11 12 12
13 13 13 13 13 13 13 12 11 11 11 10 9 9 9 9 10 11 12 14 15 17 18 19 19 19 19 20 20 20 20 19 17 16 15 14 13 12 12 11 11 12 13
13 13 13 13 13 14 13 12 11 11 10 9 8 8 7 7 8 9 11 13 14 16 18 19 19 20 20 21 20 20 21 20 19 17 16 15 14 13 13 13 12 12 13
13 13 13 13 14 14 13 12 12 11 10 9 7 6 5 5 6 8 9 12 13 15 17 18 19 20 21 21 21 21 21 21 20 19 18 17 16 15 14 14 13 13 13
13 13 13 14 14 14 13 13 12 12 11 9 7 5 4 3 4 6 8 10 13 14 16 17 19 19 21 22 22 21 21 21 21 20 19 18 17 17 16 15 15 14 14
14 14 14 14 15 15 14 13 13 12 12 10 8 5 3 2 2 4 6 9 11 13 15 17 19 19 21 21 22 22 22 22 21 22 20 20 19 19 18 17 17 16 15
14 14 15 15 16 16 15 14 13 13 12 11 9 7 4 3 1 2 4 7 10 12 14 17 18 19 20 21 22 22 22 21 22 22 21 21 20 20 20 19 19 18 17
15 15 15 16 16 16 16 15 14 13 12 12 10 8 6 4 2 1 2 5 8 10 13 16 16 17 19 20 21 22 22 22 22 23 22 21 22 21 21 21 20 20 19
15 16 16 16 16 17 17 16 15 15 14 13 11 9 8 6 4 3 1 3 6 8 10 14 15 17 19 20 21 21 22 23 23 23 22 22 22 22 23 22 22 21 21
16 16 17 17 17 17 17 17 16 15 15 14 12 11 9 7 6 4 2 1 4 6 9 12 14 16 18 19 20 21 22 23 23 23 23 23 23 24 24 24 24 23 23
15 16 17 17 17 17 17 18 17 16 15 14 14 12 11 9 7 5 3 0 2 5 8 10 12 15 17 18 19 21 22 23 24 24 23 23 24 24 25 25 26 26 25
14 15 16 17 17 17 17 17 17 16 15 14 14 13 12 11 9 7 5 2 1 3 6 9 11 13 15 17 19 21 22 23 24 25 24 24 24 25 25 26 27 28 27
14 15 16 16 16 17 17 16 16 16 15 14 14 13 12 11 10 8 6 4 2 3 5 7 10 11 14 16 18 20 22 23 24 24 24 24 25 25 26 28 28 28 29
13 14 15 16 16 16 17 17 16 16 15 14 14 13 12 12 11 9 7 6 5 4 5 7 9 11 12 15 17 20 21 23 24 25 24 25 25 25 26 28 29 29 29
12 13 14 15 16 16 16 16 16 16 16 15 14 14 13 12 12 11 10 9 8 7 7 8 9 11 13 14 17 19 21 23 25 26 26 26 27 27 27 28 29 30 30
11 12 13 14 15 16 16 16 16 16 16 16 15 14 14 14 13 12 11 10 10 10 9 9 10 12 13 14 16 18 21 23 25 26 27 27 28 28 29 30 30 31 32
11 12 13 14 15 16 16 17 16 16 16 16 16 16 15 15 15 14 14 13 12 12 12 12 12 13 14 15 17 18 20 23 24 26 28 28 29 30 30 30 31 32 32
12 12 13 14 15 16 17 17 17 17 17 17 17 17 17 17 16 16 16 15 15 14 14 14 14 15 16 17 18 19 20 22 25 26 28 28 30 30 31 32 32 32 33
13 13 14 15 16 17 18 18 18 18 18 18 19 19 19 19 18 18 18 18 18 17 17 17 18 18 18 19 20 21 22 23 25 26 27 28 30 31 32 32 33 33 33
15 15 16 17 18 19 20 20 20 20 20 20 21 21 21 22 22 21 21 21 21 21 20 20 21 20 20 21 22 23 24 25 26 28 29 29 30 30 31 32 32 33 34
17 18 18 19 20 21 22 23 23 23 23 23 24 24 25 25 25 25 25 24 24 24 23 23 23 24 24 24 24 25 26 26 27 29 31 31 32 33 33 33 34 34 34
20 20 21 22 23 24 25 26 26 26 26 27 28 28 28 29 29 29 29 28 27 27 27 27 27 28 28 27 28 28 29 29 30 31 32 33 34 34 34 35 35 36 36
23 24 24 25 26 27 28 29 29 29 30 31 32 32 32 33 33 33 33 31 31 31 30 30 31 31 32 32 32 32 32 33 33 34 35 35 35 36 36 36 37 38 38
26 27 28 29 30 30 31 32 32 32 33 34 35 36 36 37 37 36 36 34 33 33 34 33 34 34 35 35 35 35 36 36 36 36 37 38 38 39 39 39 39 39 39

GEFSMA_500_meanwind_126.txt.gz
Wind_Speed
11 11 11 11 10 10 10 9 9 9 9 9 10 10 10 10 11 12 13 13 14 15 16 16 16 16 16 16 16 15 13 12 11 10 8 8 8 9 10 11 12 13 13
11 10 10 10 10 10 10 9 9 9 9 9 9 10 9 10 11 11 12 13 14 15 15 17 18 17 17 17 16 16 15 13 13 11 10 9 9 9 10 11 12 13 13
10 10 10 10 10 9 9 8 7 7 7 8 8 8 8 8 9 10 12 13 14 15 16 16 18 18 18 18 17 17 17 15 14 12 12 11 10 10 10 10 11 12 12
10 10 10 11 10 10 9 8 8 7 6 6 5 5 5 6 7 9 10 12 14 15 16 16 17 18 18 18 18 18 18 16 15 13 12 12 11 11 11 11 11 12 12
11 11 11 11 10 10 10 9 8 7 6 5 4 3 3 4 6 8 9 11 12 14 15 16 17 18 19 18 18 18 18 17 16 15 14 13 12 11 12 12 11 12 12
12 12 12 12 11 11 10 9 9 7 6 5 4 2 2 3 4 6 8 10 11 13 14 15 16 18 19 19 18 19 19 18 17 16 15 15 13 13 13 13 13 13 13
13 13 13 13 12 11 11 10 10 9 7 6 4 3 2 1 3 5 7 8 10 12 13 14 15 17 18 19 19 19 19 20 19 18 17 16 15 15 14 14 14 14 14
13 14 14 13 13 12 12 12 11 10 9 7 6 5 4 2 2 3 5 7 8 10 12 13 14 17 18 19 19 19 19 20 20 19 18 18 17 16 16 15 15 14 15
14 14 15 15 15 14 14 13 12 11 10 9 8 7 6 5 4 3 4 5 6 8 10 12 13 15 17 18 19 19 19 20 20 21 20 19 19 18 18 17 16 15 16
14 15 15 16 16 16 16 15 14 13 12 11 9 8 7 6 5 4 3 4 5 6 8 10 12 14 16 17 18 19 19 20 20 21 21 21 20 20 20 19 18 17 16
15 15 16 16 17 17 17 17 16 15 13 13 12 10 9 8 7 5 4 3 3 5 7 9 11 13 15 17 17 19 20 20 20 21 22 22 22 21 21 21 20 19 18
14 15 16 16 16 17 17 17 17 16 15 14 13 12 11 9 8 6 4 3 2 3 5 7 9 11 13 16 17 18 20 20 20 21 22 23 23 23 22 22 22 22 21
13 14 15 15 15 16 16 17 17 17 16 15 14 13 11 10 8 7 5 4 2 2 3 6 8 10 12 14 16 17 19 21 21 22 22 23 24 23 23 24 24 23 23
13 13 14 14 14 15 15 15 16 15 15 15 14 13 12 11 10 8 6 5 3 1 2 4 7 8 10 12 14 16 18 20 21 22 23 23 23 24 25 25 26 25 24
11 12 12 12 13 13 13 14 14 15 14 14 13 13 12 11 10 9 7 5 4 2 2 3 5 7 9 11 13 15 17 19 20 22 23 24 24 24 25 25 26 26 26
9 10 11 11 11 12 12 13 13 14 14 13 13 12 11 11 10 9 8 7 5 4 4 4 5 6 8 10 12 14 16 18 20 22 23 24 25 25 26 26 27 28 28
7 8 9 10 11 11 11 12 12 13 13 13 12 12 11 11 10 10 9 8 7 6 5 6 7 7 8 10 12 13 15 17 19 21 23 24 26 26 26 27 28 29 29
6 7 8 9 10 10 11 11 12 12 13 13 12 12 11 11 11 11 10 9 9 9 8 8 8 9 10 11 12 13 14 16 18 21 23 24 26 27 27 28 28 30 30
6 6 7 8 9 10 10 11 12 12 13 13 12 12 11 11 12 12 12 12 11 11 11 10 11 11 12 13 14 15 16 17 18 20 22 23 25 27 27 28 29 30 31
6 7 8 9 10 10 11 11 12 13 13 13 12 12 12 13 13 13 14 14 14 14 14 13 13 14 15 16 16 17 18 19 20 21 22 23 25 26 28 28 29 30 30
7 8 10 11 11 12 12 13 14 14 15 15 14 14 14 15 16 16 16 17 17 17 17 17 17 17 18 18 19 19 20 21 22 23 24 25 26 27 29 29 30 31 31
9 10 11 12 13 14 15 15 16 16 17 17 17 17 17 18 18 19 19 20 20 21 21 21 21 21 21 22 22 23 23 24 24 25 26 27 28 29 30 31 31 32 32
11 12 13 14 15 16 17 18 18 19 19 19 20 20 21 22 22 23 23 24 24 24 24 24 25 25 25 26 26 26 27 27 27 28 29 29 31 32 32 33 34 34 34
13 15 16 17 18 19 20 21 21 22 22 22 23 23 24 25 26 26 27 27 27 27 27 27 28 28 29 30 29 29 30 30 30 31 32 32 33 34 35 35 36 36 36
16 17 19 20 21 22 23 24 25 25 25 25 26 27 28 28 29 30 30 29 29 29 30 30 30 30 30 30 31 32 32 33 33 34 34 35 35 37 38 38 39 39 38
19 20 22 23 24 25 26 27 27 27 27 28 29 30 31 31 31 32 32 32 32 33 33 33 33 32 32 32 33 34 35 36 36 36 37 38 38 39 40 40 41 41 41

GEFSMA_500_meanwind_132.txt.gz
Wind_Speed
11 11 10 9 8 8 7 7 7 7 7 7 7 8 7 8 9 9 10 11 11 12 12 12 12 13 12 11 10 10 8 7 6 5 5 4 5 5 5 4 5 8 10
11 10 10 9 8 8 7 7 6 6 6 6 6 6 6 7 7 8 9 10 11 11 12 12 11 12 12 12 11 10 9 8 6 6 5 5 5 5 6 5 6 8 11
11 11 10 10 9 8 7 6 6 5 4 4 4 5 5 5 5 6 8 9 9 10 11 11 11 11 12 12 11 10 10 9 7 6 6 7 6 5 6 7 9 11 12
12 12 11 10 10 8 7 6 6 5 4 4 3 3 3 3 3 5 6 7 8 9 10 10 11 11 11 12 12 11 10 9 8 7 7 7 5 5 5 7 9 10 11
12 12 12 11 11 10 8 7 6 5 4 3 2 2 1 1 2 3 5 7 7 8 9 10 10 10 10 11 12 12 11 10 10 8 7 6 5 5 5 6 7 8 10
13 13 12 12 12 11 10 9 8 6 4 3 2 2 1 1 1 2 4 5 6 7 8 9 10 10 10 11 11 12 11 10 10 9 8 7 6 6 6 5 6 6 8
13 13 13 13 13 13 11 11 10 8 6 5 4 3 3 2 2 2 3 4 5 6 7 8 9 10 10 11 11 11 11 10 10 10 10 9 8 8 7 7 7 7 7
14 14 14 14 14 14 13 13 12 11 9 7 6 5 4 4 3 2 2 3 4 5 6 7 8 9 10 11 11 11 12 11 11 11 11 10 9 8 8 9 9 8 8
14 14 14 14 15 15 14 14 14 13 11 10 9 7 6 5 4 4 3 3 3 4 5 6 7 8 9 10 11 11 12 12 11 11 12 12 11 10 10 10 9 10 10
13 14 14 15 15 15 15 14 14 13 12 11 10 9 8 7 6 6 5 3 2 3 4 5 6 7 8 9 10 11 11 12 13 12 12 12 12 12 11 12 11 11 11
13 14 14 15 15 16 15 15 15 14 14 12 11 10 9 8 8 7 6 5 3 2 2 3 5 6 7 8 9 10 11 11 12 13 13 14 14 14 13 13 14 14 14
13 14 14 14 15 15 15 15 15 14 14 14 12 11 10 9 8 8 7 6 4 2 1 1 3 5 6 7 8 9 11 12 12 13 14 15 15 15 15 15 16 16 15
11 12 13 14 14 14 15 15 15 14 14 14 13 12 10 9 8 8 7 6 5 4 2 0 2 4 5 7 7 8 10 11 13 14 15 15 16 16 17 17 17 17 17
10 11 12 12 13 13 14 14 14 14 14 13 13 13 11 9 8 7 7 7 6 5 3 2 2 3 4 6 8 9 10 11 13 14 15 16 17 17 18 19 19 19 19
8 9 10 10 11 12 12 13 13 13 13 13 13 13 12 10 9 8 7 7 7 6 5 4 3 2 4 5 7 8 10 11 12 14 15 17 18 19 19 20 20 21 21
7 8 9 9 10 10 11 12 12 12 12 13 13 13 12 11 10 9 9 8 7 6 6 6 5 5 6 8 8 9 10 11 12 14 15 17 18 19 20 21 22 22 22
5 7 8 8 9 10 10 11 11 12 12 12 13 13 13 12 11 10 9 8 8 7 7 7 7 7 7 8 9 10 11 12 13 14 16 17 18 19 20 21 23 24 25
5 6 7 8 8 9 9 10 10 11 11 12 12 13 13 12 11 11 10 9 9 9 9 9 9 9 9 10 10 11 12 13 14 15 16 17 18 19 19 20 21 23 25
5 5 6 7 8 8 9 9 9 10 11 11 12 12 12 12 12 12 12 11 11 12 12 12 12 12 12 12 13 13 14 15 16 16 17 18 18 19 20 21 22 22 24
5 6 6 7 8 9 9 9 10 10 11 12 12 12 13 13 13 13 13 13 14 14 15 15 15 15 15 15 16 16 17 17 18 18 19 19 20 21 22 22 24 24 25
6 7 7 8 9 10 10 10 11 12 12 13 13 13 13 14 14 15 15 15 16 17 17 17 17 17 18 19 19 20 20 21 21 22 22 22 23 24 24 25 26 27 27
8 8 9 10 10 11 12 12 13 13 14 14 14 15 15 16 17 17 17 18 19 20 20 20 20 21 21 21 21 23 24 24 24 25 25 25 26 26 27 28 28 29 30
10 10 10 11 12 12 13 14 15 16 16 16 16 16 17 18 19 20 20 21 22 22 22 23 23 24 24 23 24 25 26 27 27 28 28 28 29 30 31 32 32 33 33
12 12 12 13 13 14 15 16 17 17 18 18 18 19 20 21 22 22 23 24 25 25 26 26 26 26 26 26 27 27 28 29 30 30 31 32 32 32 33 34 35 36 36
14 14 14 15 15 16 17 18 19 19 20 20 21 21 23 24 25 25 26 27 27 28 28 28 28 28 28 29 30 30 31 31 32 33 34 34 34 35 35 36 37 38 39
15 16 17 17 17 18 19 20 21 21 22 23 24 25 26 27 27 28 29 29 30 30 31 30 30 30 31 31 32 33 34 34 34 35 36 36 37 37 37 38 39 40 41

GEFSMA_500_meanwind_138.txt.gz
Wind_Speed
7 7 8 8 8 7 7 7 6 6 6 5 6 6 6 6 8 8 9 10 10 9 10 10 10 10 10 10 9 8 7 6 6 5 5 5 4 4 5 5 5 6 7
8 8 8 8 7 7 6 5 5 5 5 5 5 5 5 5 6 7 8 9 9 9 9 9 10 10 10 10 9 8 7 7 6 6 5 5 4 5 5 5 6 6 8
9 9 9 9 8 7 6 5 5 4 4 3 3 3 3 4 5 6 6 8 8 9 9 9 9 9 9 9 9 8 7 7 7 6 5 5 5 5 5 5 5 7 8
10 10 9 9 8 7 6 5 4 4 3 2 2 2 2 3 4 5 5 7 8 8 9 9 9 9 9 9 8 7 7 6 6 6 5 5 6 6 5 6 6 7 9
11 11 10 10 9 9 8 6 5 4 2 1 1 0 1 2 3 4 5 6 7 7 8 8 9 9 9 9 8 7 6 6 6 6 5 6 6 5 6 6 6 7 9
12 12 12 11 11 11 10 9 7 7 5 4 4 3 3 3 4 5 5 6 6 7 8 8 8 9 9 9 8 7 6 6 6 6 6 6 6 6 6 7 7 7 8
12 13 13 13 12 12 12 11 9 9 8 7 6 6 5 5 5 6 5 6 7 7 8 8 8 9 9 9 8 7 6 6 6 6 6 6 6 7 6 6 7 7 8
13 13 13 14 14 13 13 12 11 10 9 8 7 7 7 6 6 6 6 6 7 7 7 7 8 8 9 8 8 8 7 7 6 6 6 6 6 7 7 7 6 7 8
12 13 13 14 14 14 14 13 12 11 11 10 9 8 8 7 7 6 6 6 6 6 6 6 7 7 8 8 8 8 7 6 6 7 7 6 6 6 7 7 7 7 8
12 13 13 13 14 14 14 13 13 12 11 11 10 9 8 7 7 6 6 5 5 5 5 5 6 6 7 7 8 8 7 7 7 7 7 7 8 8 8 8 8 8 9
12 12 12 13 14 14 14 14 13 13 12 11 11 10 9 8 7 6 6 5 4 4 4 4 4 5 5 6 6 7 7 7 7 7 8 8 9 9 9 9 9 10 10
11 12 12 13 13 13 13 13 13 13 12 11 11 10 9 9 7 7 6 5 4 3 3 3 3 4 4 4 5 6 7 7 7 7 8 9 10 11 11 10 10 11 11
10 10 11 11 12 12 13 13 13 13 12 11 11 10 9 9 8 7 6 5 4 3 3 2 2 3 4 4 5 5 6 6 7 7 8 9 10 11 12 12 12 12 13
8 9 9 10 11 12 12 13 13 12 12 11 11 10 9 8 8 7 6 5 4 3 2 2 1 1 2 3 4 5 6 7 8 8 9 10 11 12 13 14 15 15 15
7 8 8 8 9 10 11 11 11 11 11 11 10 10 9 8 7 8 6 5 4 3 2 1 1 0 1 2 3 4 6 7 8 9 9 11 12 13 13 15 16 17 18
5 6 6 7 7 8 9 9 10 10 10 10 10 10 9 9 8 8 8 6 5 4 3 2 2 2 2 3 4 5 6 7 8 9 10 11 12 14 15 16 17 17 18
4 4 4 5 6 6 7 8 8 9 9 9 9 9 9 9 8 8 7 6 5 5 4 3 3 4 4 5 5 6 7 8 9 10 11 12 13 15 16 17 18 19 19
1 2 3 4 4 5 6 7 7 8 8 7 7 8 8 8 8 7 7 7 6 5 5 5 5 5 6 7 8 8 9 10 11 12 13 13 14 16 17 18 19 20 20
1 1 1 2 3 4 5 6 6 6 7 7 7 7 7 7 7 7 8 7 7 7 7 7 7 8 9 9 10 11 12 13 13 14 15 16 17 17 19 20 21 22 23
3 2 2 2 2 3 4 5 5 6 6 7 7 7 7 7 7 8 9 9 9 9 10 10 9 10 11 12 12 14 15 16 17 18 19 20 20 21 22 23 24 25 25
4 4 3 3 3 4 4 5 6 6 7 7 7 7 7 8 9 10 10 11 11 12 12 12 13 13 14 14 15 17 18 18 19 20 21 23 24 24 25 26 26 27 28
6 5 5 5 5 5 6 7 7 8 8 8 9 8 9 10 11 12 12 13 13 14 14 15 15 15 16 17 18 20 21 21 22 23 24 25 26 27 28 28 29 29 30
8 8 7 7 7 7 8 8 9 9 10 10 10 10 11 12 13 14 14 15 15 16 16 17 18 19 19 19 20 21 22 23 25 25 26 27 28 29 30 31 31 32 33
10 10 10 9 9 9 10 10 10 11 12 12 12 12 13 14 15 16 16 17 18 18 19 20 21 21 21 22 22 23 24 25 26 27 28 28 29 30 32 33 34 35 36
12 12 12 11 11 11 11 12 13 13 14 14 15 15 16 17 18 18 19 20 20 21 22 23 24 24 24 24 24 25 26 27 28 29 30 30 31 32 33 34 36 37 38
14 14 14 14 14 14 14 14 15 16 16 17 17 18 19 19 20 21 21 22 23 24 25 26 26 26 27 27 28 28 28 29 30 31 31 32 33 34 34 36 38 39 40

GEFSMA_500_meanwind_144.txt.gz
Wind_Speed
6 7 7 8 8 7 6 6 5 5 4 3 3 4 5 5 6 7 8 8 8 8 8 8 8 7 7 8 8 9 8 7 7 6 5 4 4 5 5 4 4 4 5
6 7 8 8 8 7 6 5 5 4 3 3 3 2 3 4 5 7 8 8 8 8 7 8 8 7 7 7 7 8 7 7 6 5 4 5 5 5 5 5 4 4 5
7 8 8 8 7 6 6 5 4 3 3 2 1 1 2 3 5 6 7 8 8 8 8 7 7 7 6 6 7 7 6 6 6 5 6 5 5 5 5 5 4 5 6
8 8 8 8 7 7 7 6 5 4 3 2 1 0 1 2 4 5 7 7 7 7 7 8 7 7 6 6 6 6 6 6 6 6 6 6 5 6 6 6 5 5 5
9 9 9 9 9 8 8 7 6 5 4 3 3 3 2 3 4 5 6 7 7 7 7 8 8 7 7 6 6 6 6 6 6 7 6 6 5 6 6 6 5 6 7
10 10 10 10 10 10 9 9 8 8 7 6 5 5 5 5 5 5 5 6 6 7 7 7 7 7 7 7 6 6 6 6 6 7 6 6 6 6 7 6 6 6 7
10 10 10 10 10 10 10 10 10 9 9 8 7 7 7 6 6 6 6 6 6 6 7 7 7 7 7 7 6 6 6 6 6 6 6 6 6 6 6 6 6 6 7
10 11 11 11 11 11 11 10 10 10 9 9 9 8 7 7 7 7 6 6 6 6 7 7 7 7 6 6 5 5 5 6 6 6 6 5 6 6 6 5 5 7 7
10 11 11 11 11 11 11 11 10 10 9 9 9 8 8 7 7 7 6 6 5 5 6 6 7 6 6 6 5 4 4 5 6 6 6 5 5 5 5 5 5 5 6
9 10 11 11 11 12 11 11 11 11 10 9 9 8 8 8 7 6 6 5 4 4 5 5 6 6 6 6 5 5 4 4 4 5 5 6 6 5 5 5 5 5 5
8 9 10 10 11 11 12 11 11 11 10 10 9 8 8 7 7 6 5 5 4 3 3 4 6 6 6 6 5 5 5 4 4 5 5 5 6 5 6 5 6 6 7
7 8 9 10 10 11 11 11 11 10 10 9 9 8 7 7 7 6 5 4 3 2 2 3 4 5 5 5 6 6 6 5 5 5 5 5 5 6 6 6 6 7 8
6 7 8 9 10 10 10 11 10 10 9 9 8 8 8 7 7 5 5 4 3 2 2 2 3 3 4 4 5 6 7 7 7 7 7 6 7 7 8 8 8 9 10
5 6 6 7 8 9 9 10 10 9 9 9 9 8 8 8 7 6 5 4 3 2 1 1 2 2 3 4 4 5 6 7 7 8 8 8 8 9 9 10 11 11 11
4 4 5 5 6 7 8 8 9 9 9 9 9 8 9 8 7 7 6 5 4 3 2 1 1 1 2 3 4 5 5 6 7 8 8 9 10 10 10 11 12 13 13
2 2 3 4 4 5 6 7 7 8 8 8 8 8 7 8 8 7 6 5 4 4 3 2 1 2 3 4 6 6 6 7 8 8 9 10 11 11 12 13 13 14 15
1 1 1 2 3 4 4 5 6 6 6 7 6 6 6 7 7 6 6 5 4 4 4 3 3 5 6 6 7 6 7 7 8 8 9 10 11 12 13 14 15 16 16
2 1 0 0 1 2 3 3 4 4 4 5 5 5 6 6 6 6 6 5 5 5 5 5 6 6 6 7 8 7 8 9 10 10 11 12 13 14 15 16 16 17 18
4 3 2 2 1 1 2 2 3 3 3 4 4 5 5 5 5 5 6 6 6 6 7 7 8 8 8 8 8 8 10 11 11 12 14 15 16 17 17 18 19 20 21
6 5 4 4 3 3 3 3 3 3 3 3 4 4 4 5 5 5 6 6 7 8 9 9 10 10 10 10 10 11 13 14 14 15 17 18 19 20 20 21 22 23 24
8 8 7 6 6 5 5 5 5 5 5 5 5 5 5 6 6 7 7 8 9 10 11 11 12 13 13 13 14 14 15 16 18 19 20 21 22 22 23 24 25 26 27
9 9 9 9 8 8 7 7 7 7 7 7 7 7 7 8 8 9 10 10 11 12 13 14 14 15 16 16 17 17 18 19 20 21 22 23 24 25 26 27 28 28 29
11 10 10 10 10 10 10 9 9 9 9 9 9 9 9 10 10 11 12 13 13 13 15 15 16 17 17 18 19 19 20 21 22 23 24 25 25 26 28 29 30 30 31
13 12 12 12 12 12 11 11 11 11 11 10 11 11 11 12 12 13 14 15 15 16 17 17 18 19 19 20 21 22 23 24 24 25 26 26 27 28 29 31 32 33 34
15 15 14 14 13 13 13 13 13 13 13 13 13 13 14 14 15 16 16 17 17 18 19 19 21 21 22 23 24 24 25 26 27 27 28 28 29 30 31 33 35 36 37
18 17 16 16 15 15 15 15 15 15 15 15 15 16 16 17 17 18 19 20 20 20 21 22 23 24 25 26 26 27 28 28 29 29 30 31 32 32 32 34 36 38 39

GEFSMA_500_meanwind_150.txt.gz
Wind_Speed
5 5 6 6 6 6 6 5 4 3 4 4 5 6 6 7 8 9 10 11 11 11 10 10 10 10 10 10 10 9 9 9 8 8 8 8 8 8 8 8 7 7 8
5 5 6 6 5 5 4 3 2 2 2 2 3 5 6 7 7 8 9 9 10 10 10 9 9 9 9 9 9 9 9 8 8 8 7 6 5 6 7 7 6 5 6
5 5 6 6 5 5 4 3 2 1 1 1 2 4 5 6 7 8 8 8 9 10 9 9 9 9 9 8 8 9 9 9 8 8 7 7 6 6 7 7 6 6 6
5 6 6 6 6 5 4 3 3 2 1 2 3 4 5 5 7 7 8 8 8 10 10 9 9 9 9 8 8 8 9 9 8 7 7 7 6 6 5 6 7 6 6
6 6 7 7 6 6 5 4 4 4 3 3 3 4 4 4 6 7 8 8 8 8 9 9 9 8 8 8 8 7 7 7 7 7 7 7 6 5 6 6 7 8 8
6 7 7 7 7 6 6 5 5 5 4 4 4 4 5 5 5 7 8 8 8 8 8 8 8 8 7 7 7 6 6 6 6 7 6 7 6 6 6 6 7 7 8
7 7 7 7 7 7 6 6 6 6 5 5 5 6 6 5 6 7 7 8 8 8 8 8 8 7 6 6 6 6 6 6 6 7 6 6 6 6 6 7 7 7 7
7 7 8 8 7 7 7 7 7 6 6 6 6 6 6 5 6 6 6 6 7 7 8 8 8 7 6 5 5 5 5 6 6 6 6 6 6 6 5 6 7 7 8
7 8 8 8 8 7 7 7 7 7 7 6 6 6 5 6 6 6 6 6 6 6 7 7 7 6 6 5 5 5 6 6 6 6 6 6 6 6 6 6 7 7 8
7 8 8 8 8 7 7 7 7 7 7 6 6 6 6 6 6 6 5 5 5 5 5 5 6 6 5 5 5 4 5 6 6 6 6 7 7 6 6 7 7 8 8
6 7 8 8 8 8 7 7 7 7 7 6 6 6 6 6 6 5 5 4 4 4 4 4 5 5 5 5 4 5 5 6 7 7 6 7 7 7 7 7 8 8 8
5 6 7 8 8 8 8 8 8 7 6 6 6 6 5 5 5 5 4 4 4 4 4 4 4 4 5 5 5 5 6 7 7 7 6 7 7 7 8 8 8 8 8
4 6 6 7 8 8 9 8 8 8 7 7 6 6 5 4 4 4 4 3 3 3 3 3 3 3 4 4 5 5 6 6 7 6 6 7 7 8 8 8 8 8 8
4 5 5 6 7 7 8 8 9 8 8 7 7 6 5 5 3 3 3 3 2 2 1 1 1 2 3 4 5 5 5 6 6 6 6 7 7 8 8 9 9 9 10
3 3 4 5 5 7 8 8 8 8 8 7 6 6 6 5 5 4 4 3 3 2 2 1 0 2 2 3 4 5 6 6 6 6 7 7 8 8 8 9 10 10 11
2 2 2 3 4 5 6 6 7 7 7 7 7 6 6 5 5 5 4 4 3 2 2 2 1 1 2 3 4 5 6 6 6 7 7 7 8 8 9 10 11 12 13
3 2 1 1 2 3 4 4 5 5 6 6 5 5 5 5 4 4 4 3 3 2 2 2 2 3 3 4 4 5 6 6 7 8 8 9 10 11 11 11 12 13 14
4 3 2 1 0 1 2 3 3 4 4 4 4 3 3 4 3 3 3 3 3 3 3 3 3 4 5 5 5 6 6 7 8 9 10 10 12 13 13 13 14 15 16
6 5 3 2 2 1 2 2 3 3 3 3 3 2 2 2 3 2 2 3 3 4 5 4 5 6 7 7 8 8 8 9 10 10 11 12 13 14 15 16 17 18 19
7 7 6 5 4 3 3 3 3 3 3 4 3 3 3 3 3 3 4 4 5 5 6 6 7 8 9 10 10 10 11 11 12 12 13 15 16 17 18 20 20 21 21
9 8 8 7 6 5 5 5 5 5 5 5 5 5 5 5 5 5 5 6 6 7 8 9 9 10 11 11 12 12 13 13 14 15 17 18 19 20 21 22 22 23 24
10 10 9 9 8 8 8 7 7 7 6 6 6 6 6 7 7 8 8 8 9 10 10 11 11 12 13 13 14 14 15 15 16 17 18 19 20 21 22 23 24 25 27
12 11 11 11 11 10 10 10 9 9 9 8 8 8 9 9 10 10 10 10 11 12 13 13 14 15 15 16 16 17 17 18 19 19 20 22 23 24 25 26 27 28 29
14 13 12 12 12 12 12 11 11 11 11 11 11 11 11 11 12 12 12 13 14 14 15 16 16 17 17 18 19 19 20 20 21 22 23 25 26 27 28 29 30 31 32
15 15 14 14 13 13 13 13 13 13 13 13 13 13 13 14 14 14 15 15 16 16 17 18 19 19 20 21 21 22 23 24 24 26 27 28 28 29 30 31 32 33 35
16 16 16 16 16 15 15 15 16 15 16 16 16 16 16 17 17 17 17 18 18 19 19 20 21 22 23 23 24 25 26 27 28 29 30 31 32 32 33 34 35 36 37

GEFSMA_500_meanwind_156.txt.gz
Wind_Speed
6 6 6 7 7 6 6 6 6 5 5 5 5 5 5 6 6 6 7 8 9 9 9 9 9 9 8 7 7 7 7 6 6 6 6 7 8 8 7 6 7 6 5
6 6 6 7 7 6 6 5 4 4 3 3 3 4 4 5 5 5 6 7 8 8 8 8 8 8 8 8 7 7 6 6 6 7 6 7 6 6 5 5 7 5 5
5 6 6 7 7 7 6 5 4 4 3 2 1 2 2 4 4 4 5 6 7 7 7 7 7 7 7 8 7 7 7 7 7 7 7 6 5 5 5 5 5 5 5
5 6 7 7 7 7 7 5 5 4 4 3 2 1 1 2 3 3 4 4 5 6 7 7 6 6 6 7 6 6 7 7 7 7 6 6 5 5 5 5 5 4 4
6 6 7 7 7 7 7 6 5 5 4 4 3 3 2 1 2 2 3 3 4 5 6 6 6 6 6 6 6 6 6 7 7 7 6 6 6 5 5 4 4 4 4
6 7 7 7 7 7 7 6 6 5 4 4 4 3 2 2 1 2 2 2 3 5 5 5 5 4 5 5 5 5 5 5 6 5 5 5 5 5 5 4 4 4 4
6 7 8 7 7 7 7 6 6 5 4 4 4 3 3 2 2 2 2 2 3 4 4 3 3 3 3 3 4 4 4 5 4 5 5 5 5 5 5 4 4 4 4
7 7 7 7 7 7 7 6 6 6 5 4 4 3 3 3 2 2 2 2 2 3 3 3 2 2 2 2 2 2 3 4 4 4 4 4 4 5 4 4 4 5 5
7 7 7 7 7 7 7 7 6 6 5 5 4 4 4 4 3 2 2 2 2 2 2 2 1 1 1 2 2 3 3 4 4 5 5 5 5 5 4 4 5 5 6
6 7 7 7 7 7 7 7 6 6 5 5 5 4 4 4 3 3 2 2 2 1 1 1 1 0 1 2 3 3 4 4 4 4 5 5 6 6 5 5 6 6 6
5 6 7 7 7 7 7 7 6 6 6 5 5 4 4 4 4 3 3 2 2 1 1 1 0 1 1 2 3 4 4 5 5 5 5 6 6 6 6 6 6 6 6
5 5 6 7 7 6 6 6 6 7 6 6 5 5 4 4 3 3 3 2 2 2 1 0 1 1 2 2 3 4 4 4 5 5 6 6 6 6 6 7 7 7 7
4 4 5 6 6 6 6 6 6 7 6 6 5 5 4 4 4 3 3 2 2 2 2 1 2 2 2 3 4 4 4 4 5 5 6 6 7 7 7 7 8 8 8
2 3 4 5 6 6 6 6 6 6 6 6 5 5 4 4 4 4 3 2 2 2 2 2 2 3 3 4 4 5 4 4 5 5 6 6 7 7 7 8 8 8 9
1 2 3 4 5 5 6 6 6 6 6 6 5 5 4 3 4 4 3 3 3 2 2 2 2 3 4 5 5 5 4 4 4 5 6 6 6 7 7 8 8 9 10
0 1 2 3 3 4 4 5 5 5 6 6 5 5 5 4 4 4 4 4 4 3 3 3 4 4 5 5 5 6 6 5 4 5 7 7 7 7 8 10 10 10 11
2 1 0 1 1 2 3 3 4 4 5 5 4 4 4 4 3 3 3 3 4 4 4 4 4 5 5 6 6 6 7 6 6 6 8 8 9 9 9 11 11 11 12
4 3 2 1 1 1 2 2 3 3 4 4 3 3 3 3 3 3 3 3 4 4 4 4 5 5 6 6 7 7 7 8 8 8 8 9 10 11 11 12 13 13 13
6 5 4 4 3 3 3 3 3 3 3 4 4 4 4 3 3 3 3 4 4 5 5 5 6 6 6 7 8 8 9 9 10 10 10 11 12 12 13 14 15 15 15
8 7 6 6 5 5 5 4 4 4 4 5 5 5 5 4 4 4 5 5 5 6 6 7 8 8 8 8 9 10 10 11 11 12 12 13 13 15 15 16 17 18 18
10 9 8 7 7 7 7 6 6 6 6 6 6 6 6 6 6 6 6 7 7 8 8 9 9 10 10 11 11 12 12 12 13 13 14 15 16 17 17 18 19 20 20
11 11 10 9 9 9 8 8 8 8 8 8 8 8 8 8 7 7 8 8 9 9 10 11 11 12 13 13 14 14 14 14 15 16 17 18 18 19 20 21 22 22 23
12 12 12 11 11 11 11 10 10 10 10 9 10 9 9 9 9 10 10 10 11 12 13 14 14 15 15 16 16 16 17 17 18 18 19 20 21 21 23 24 25 26 27
13 13 12 12 12 12 12 12 12 12 11 11 11 11 11 11 12 12 13 13 14 14 15 16 16 17 17 18 18 18 19 20 20 21 22 22 23 25 26 27 28 29 29
14 14 14 14 14 14 14 14 14 14 13 13 14 13 14 14 15 15 16 16 16 17 17 18 18 19 20 21 21 22 22 23 24 25 26 26 27 28 29 30 31 32 33
15 15 15 14 14 14 15 15 15 15 15 15 16 16 17 17 18 18 18 19 19 19 20 21 21 22 23 23 24 25 25 26 27 28 29 30 31 31 31 32 34 35 35

GEFSMA_500_meanwind_162.txt.gz
Wind_Speed
3 4 3 4 4 4 3 3 3 3 4 4 4 4 4 5 5 5 5 6 7 8 8 8 8 8 7 7 7 6 6 5 5 5 6 6 6 6 7 7 7 7 8
3 3 4 3 3 3 3 3 3 3 2 2 3 3 3 4 4 4 5 5 6 7 7 7 8 7 7 7 6 6 6 5 5 5 5 5 5 6 6 7 7 7 7
3 3 4 3 3 3 3 2 2 2 2 1 1 1 1 2 3 3 4 5 5 6 6 7 7 6 6 7 6 6 6 6 6 5 5 5 5 4 5 6 6 6 6
3 3 3 4 4 3 3 2 2 3 2 1 1 1 0 0 1 2 3 4 4 5 5 6 5 5 5 5 6 6 6 6 6 5 5 4 3 3 3 5 5 5 5
4 3 3 4 4 4 4 3 3 3 3 2 2 2 1 1 2 2 3 3 3 4 4 4 4 4 4 4 5 5 5 5 5 5 5 4 3 3 3 3 4 4 4
4 4 4 4 5 5 4 4 4 4 4 3 3 3 3 2 3 3 3 3 3 3 4 4 3 3 3 3 4 4 4 5 5 5 5 4 4 4 3 3 4 4 5
4 4 4 5 5 5 5 4 4 4 4 4 3 4 3 3 3 3 2 3 3 3 3 3 2 2 3 3 3 3 4 4 4 5 5 4 4 4 4 4 4 5 5
4 4 4 4 5 5 5 5 4 5 5 5 4 4 4 4 3 3 2 3 4 4 4 3 2 2 2 2 2 2 3 4 4 4 4 3 3 4 4 4 4 5 7
4 4 4 4 5 5 6 5 5 5 6 5 5 4 4 4 3 4 3 3 4 3 3 3 2 2 2 2 2 2 3 3 4 4 4 4 4 4 4 5 5 5 6
3 4 4 4 4 5 5 5 5 6 6 5 5 5 5 4 4 4 4 3 3 3 2 2 1 2 1 1 1 2 3 4 4 4 4 5 4 4 5 5 5 6 7
3 4 4 4 5 5 6 6 6 6 6 6 5 5 5 5 4 3 4 3 3 3 2 2 1 1 0 1 2 2 3 3 4 4 4 5 5 5 5 6 6 6 7
3 3 4 4 5 5 6 6 6 6 6 5 5 5 4 4 4 4 4 4 3 3 2 2 1 0 1 2 2 2 2 2 3 3 4 5 5 5 5 6 7 7 7
2 3 3 4 4 5 5 5 6 6 5 5 5 4 4 3 4 4 4 3 3 3 2 2 2 1 2 3 3 2 2 2 2 3 4 4 5 5 6 6 7 7 8
2 2 3 3 4 4 5 5 5 5 5 4 4 3 3 3 3 3 3 3 2 2 2 2 2 2 3 3 3 2 2 2 2 2 3 4 5 5 6 7 8 8 9
2 2 3 3 4 4 4 4 4 4 4 3 3 3 3 3 3 3 3 2 2 2 2 2 2 2 2 3 3 3 3 3 3 3 3 4 5 6 7 8 9 10 11
3 2 3 3 3 3 3 3 3 3 3 3 2 2 2 2 2 2 2 2 2 2 2 2 3 2 3 4 4 4 3 3 3 4 5 5 6 7 7 8 9 10 11
5 3 3 2 2 2 2 2 3 3 3 2 2 1 1 1 1 1 1 1 1 1 2 3 3 4 4 4 4 4 4 4 5 5 5 6 7 7 8 9 10 11 12
7 5 4 3 2 1 1 0 1 1 2 2 2 2 1 1 1 1 1 1 1 2 2 3 4 5 5 5 6 6 6 6 6 6 7 8 9 9 10 10 11 12 13
8 7 6 5 4 3 2 2 2 2 2 3 3 3 3 3 2 2 2 2 3 3 4 4 5 6 6 7 7 7 7 8 8 9 9 10 11 12 13 13 13 14 15
10 9 8 7 6 5 5 4 4 4 4 4 4 3 4 4 4 3 4 4 4 5 5 6 6 6 7 8 8 9 9 10 11 11 12 13 13 14 15 16 16 17 18
12 11 10 9 8 7 7 7 7 6 6 5 5 5 5 6 5 5 6 6 6 7 8 8 8 9 9 10 11 11 12 12 13 14 15 15 16 17 18 19 19 20 20
13 12 11 10 9 8 8 9 9 9 8 8 8 7 7 7 7 8 8 9 9 9 10 10 11 11 12 13 13 14 14 15 16 17 17 18 19 20 20 21 22 23 23
13 12 12 12 11 10 10 10 10 10 10 10 9 9 9 9 10 10 10 11 11 12 12 13 13 14 15 15 16 16 17 17 18 19 20 21 22 22 23 24 25 25 26
13 13 13 13 13 12 12 12 11 11 12 11 11 11 11 12 12 12 12 12 13 14 15 16 16 17 17 18 19 19 19 20 21 21 22 23 24 25 26 27 28 29 29
14 13 13 13 13 14 13 13 13 13 14 14 14 13 14 13 14 14 15 16 16 17 18 18 19 20 20 21 21 22 23 23 24 24 25 26 27 28 29 30 31 32 32
15 15 14 14 14 14 14 14 14 14 14 14 15 15 16 16 17 17 17 18 19 20 20 21 22 23 23 24 24 24 25 26 26 27 28 29 30 30 31 32 33 34 35

GEFSMA_500_meanwind_168.txt.gz
Wind_Speed
3 4 4 4 4 4 4 4 4 4 5 5 5 6 6 5 4 5 5 5 5 6 7 7 7 8 8 7 7 7 6 6 6 6 6 8 7 7 7 9 8 8 9
3 4 4 3 4 4 4 4 4 4 4 4 5 4 4 3 3 4 4 4 5 5 6 6 6 7 8 7 7 6 6 6 6 6 6 7 7 7 8 8 8 9 9
3 4 3 3 3 3 3 3 3 3 4 4 4 3 2 2 1 2 3 3 4 4 4 4 5 6 7 6 6 6 6 6 6 6 7 7 8 7 7 8 8 8 8
3 3 3 2 2 2 3 3 3 3 3 3 2 1 1 1 1 1 2 2 3 3 3 3 4 4 5 6 6 6 6 6 6 6 6 7 7 6 6 7 7 8 7
2 2 2 2 2 2 2 3 2 3 2 2 2 1 1 1 1 0 1 1 2 2 2 3 3 3 4 4 5 5 6 6 6 6 6 6 6 5 5 5 6 7 7
2 2 2 2 2 2 3 3 2 2 2 2 2 2 1 1 1 2 1 1 1 1 2 2 2 3 3 3 3 4 4 5 5 6 6 5 5 5 4 4 5 6 7
2 2 2 2 2 2 3 3 3 2 2 2 2 2 2 2 2 2 2 1 1 1 1 2 2 2 2 2 2 3 3 4 4 4 5 5 5 5 5 5 5 6 6
1 2 2 2 2 2 3 3 3 3 3 2 2 3 3 3 3 2 2 2 2 1 0 1 1 1 2 1 1 2 3 3 4 4 4 4 4 5 5 5 5 5 6
1 2 2 2 2 3 3 3 3 3 3 3 3 3 3 4 3 3 2 2 1 0 1 1 0 0 1 2 2 2 3 3 4 4 4 4 4 4 5 5 6 6 7
2 1 1 2 2 2 2 2 3 3 3 3 3 4 3 3 3 3 3 2 1 1 1 1 2 2 1 2 2 3 3 4 4 4 4 4 5 5 5 6 7 7 8
1 1 1 1 1 2 2 2 3 3 4 4 4 4 4 3 3 3 3 2 1 1 1 2 3 3 3 3 2 3 3 3 3 4 4 5 5 5 5 6 7 8 8
1 1 1 1 1 2 2 2 2 2 2 3 3 3 3 3 3 3 2 2 2 1 1 2 3 3 4 3 3 2 3 3 3 4 4 4 4 4 5 5 6 7 8
2 1 1 1 2 2 2 2 2 2 2 3 3 3 2 2 2 2 2 2 2 1 2 3 3 4 4 4 3 2 2 3 3 4 4 4 4 5 5 5 6 7 8
3 2 1 1 1 1 1 1 2 2 2 2 2 2 2 2 2 2 2 2 2 2 2 3 3 4 4 3 3 3 3 3 3 4 4 5 5 6 6 7 7 7 7
4 3 2 1 1 1 1 0 1 1 1 1 1 1 1 1 1 1 1 1 2 2 2 3 4 5 4 4 4 4 4 4 4 4 5 6 6 7 7 8 8 9 9
6 4 3 2 2 1 0 0 0 1 1 1 1 2 2 2 2 2 2 2 2 3 3 4 4 5 5 5 5 5 5 5 5 6 6 6 7 7 8 9 10 11 11
7 5 4 4 3 2 1 1 1 1 2 2 2 3 3 3 3 3 3 3 3 4 4 4 5 5 5 5 5 6 7 7 7 8 8 9 9 10 10 10 11 12 13
9 7 6 5 4 4 3 3 3 3 3 3 3 3 4 4 4 4 4 5 5 5 5 5 6 6 6 7 7 8 8 9 9 10 11 11 11 12 12 13 13 13 14
10 9 8 7 6 5 5 4 4 4 4 5 5 5 4 4 5 5 5 5 6 6 6 6 7 8 8 8 9 10 10 11 11 12 12 13 13 14 14 15 15 16 16
11 10 9 8 8 7 7 6 6 6 6 6 6 6 6 6 6 6 6 7 7 7 8 8 9 9 10 10 11 11 12 13 13 14 14 15 15 16 16 16 17 17 18
12 12 11 10 10 10 9 9 8 8 8 8 8 8 7 8 8 8 9 9 9 9 10 10 11 12 12 13 13 14 15 15 16 16 17 17 18 18 19 19 19 20 21
12 12 12 11 11 11 11 11 10 10 9 9 9 9 9 9 9 9 10 11 11 12 12 13 13 14 15 16 16 17 17 18 18 19 19 20 20 21 21 22 22 23 23
13 13 13 12 12 12 12 12 12 12 12 11 11 11 11 10 10 11 12 12 13 14 15 15 16 17 18 19 19 20 20 20 21 21 21 22 23 23 24 24 25 25 26
12 13 13 13 13 12 12 12 12 12 12 12 13 12 12 13 13 14 14 15 15 16 17 18 19 19 20 21 21 22 22 23 23 24 24 24 26 26 27 27 28 29 29
13 13 14 14 14 14 14 14 14 13 14 14 14 14 14 14 15 16 17 17 18 19 20 21 22 22 23 23 24 25 26 26 26 27 27 28 28 29 30 31 31 32 33
15 15 15 15 15 15 15 15 15 15 14 14 14 15 16 16 17 18 19 19 19 20 21 22 24 24 25 26 26 27 28 28 29 29 30 30 31 31 31 32 34 35 35

GEFSMA_500_meanwind_174.txt.gz
Wind_Speed
4 3 3 4 4 4 4 4 4 4 4 4 4 4 4 3 3 4 5 5 6 6 7 7 7 8 8 8 9 9 8 9 10 10 10 11 12 12 12 13 12 11 11
2 1 2 2 2 2 3 3 2 3 3 3 3 3 2 2 3 3 3 4 5 5 6 6 7 7 8 8 8 9 9 9 9 10 10 10 10 10 10 11 11 11 11
1 1 1 1 1 1 2 2 2 2 2 2 2 2 2 1 1 2 2 3 4 5 5 5 6 6 6 8 8 8 9 9 9 9 10 10 9 9 8 9 10 11 11
1 1 1 1 1 1 1 1 1 1 2 2 1 1 1 0 0 1 1 2 3 3 3 3 4 5 6 6 6 7 8 8 8 9 9 9 9 9 9 8 9 10 11
1 1 0 1 1 1 1 1 1 1 1 1 1 1 1 1 0 0 0 1 1 2 1 2 3 4 4 5 6 6 7 7 7 8 8 8 8 9 8 8 8 8 9
1 1 0 1 1 1 1 2 1 1 1 1 1 1 2 1 1 1 1 1 1 1 1 2 2 3 3 3 4 5 6 6 6 7 7 8 7 8 7 7 7 7 8
1 1 1 1 2 2 2 2 2 2 2 2 2 2 2 2 2 2 1 1 0 1 1 1 2 2 3 3 3 4 5 6 6 6 7 7 7 8 7 7 7 7 8
2 1 1 2 2 2 2 2 2 2 2 2 3 3 3 2 2 2 2 1 1 1 1 2 2 2 2 2 2 3 4 5 5 5 6 7 7 7 7 6 6 7 8
2 2 1 1 2 2 2 2 2 2 2 2 2 2 2 2 2 2 1 1 2 2 2 2 2 2 3 2 2 3 3 3 4 4 5 5 5 6 6 6 6 7 8
3 2 1 1 2 2 1 2 2 2 1 2 2 2 1 1 1 1 0 1 2 2 2 2 2 2 3 2 2 2 2 2 3 4 5 5 5 5 5 6 6 7 8
3 2 2 1 2 2 1 1 1 1 1 2 2 1 1 1 1 0 0 1 1 1 1 2 2 3 3 2 2 2 2 2 3 3 4 5 5 5 5 6 7 7 8
4 3 2 2 1 1 0 0 1 0 1 2 2 1 1 1 0 0 0 1 1 2 2 2 3 2 3 3 3 3 2 2 3 3 4 4 5 5 6 6 7 7 8
4 3 3 2 1 0 0 0 1 1 1 1 1 1 1 1 0 0 1 1 2 2 2 2 3 2 2 3 3 4 3 3 3 4 4 5 5 6 7 7 7 7 8
5 4 4 2 1 1 1 1 1 1 1 1 1 0 1 1 0 1 1 2 2 2 2 2 2 3 3 4 3 3 4 4 4 4 5 6 7 7 8 8 8 8 9
7 5 4 3 2 2 2 1 2 1 1 0 0 1 1 1 1 1 2 2 2 2 3 3 3 4 4 5 4 4 5 5 6 6 7 7 8 9 10 10 10 11 11
8 6 5 4 3 2 2 2 2 1 1 1 1 2 2 3 2 3 3 4 4 4 4 4 4 5 5 5 5 5 6 7 7 8 8 9 10 11 11 11 11 12 13
9 8 6 5 4 3 2 2 2 2 2 2 3 3 3 4 4 4 4 5 5 5 5 5 5 6 6 6 7 8 8 9 9 9 10 10 11 12 12 13 13 14 15
10 9 7 6 5 4 3 3 3 3 3 3 4 4 5 5 5 5 6 6 6 6 6 6 6 7 7 8 8 8 9 9 9 10 11 12 13 14 14 15 15 15 16
11 10 9 7 7 6 5 5 5 5 5 5 5 6 6 6 6 6 6 6 7 7 7 7 7 8 9 9 9 10 11 11 12 13 14 14 15 16 16 17 17 18 19
11 10 9 8 8 7 7 7 7 7 7 7 7 7 7 7 8 8 8 8 9 8 9 9 10 11 11 12 12 13 13 14 15 16 16 17 17 18 19 19 20 20 21
12 11 10 9 9 8 8 8 8 8 8 8 8 8 9 9 9 9 10 10 10 10 11 12 12 13 13 14 14 15 16 16 17 18 18 19 20 21 22 22 22 23 23
12 11 11 10 10 10 9 9 9 9 9 9 9 9 10 10 10 10 11 11 12 12 13 14 14 15 16 16 17 18 18 19 20 20 22 22 23 23 24 24 24 24 25
12 12 12 11 11 11 11 11 11 11 11 11 11 11 11 11 11 11 11 12 13 13 14 15 16 17 18 18 19 20 21 21 22 22 23 24 25 26 26 26 27 27 28
13 13 13 13 12 12 12 12 12 13 12 12 13 13 12 12 12 12 13 13 14 15 16 16 17 18 19 21 22 23 23 24 24 25 25 26 27 28 29 29 30 30 31
14 14 13 13 13 13 13 13 13 13 13 13 13 13 13 12 13 14 14 15 15 16 17 18 19 20 21 22 23 24 24 25 25 26 27 28 29 29 30 31 32 32 33
15 15 14 14 14 14 14 14 13 13 13 14 14 14 14 14 15 16 17 17 18 18 19 20 21 22 23 24 25 25 26 26 27 27 28 29 30 31 32 33 34 35 35

GEFSMA_500_meanwind_180.txt.gz
Wind_Speed
6 5 4 4 4 4 4 4 3 3 4 4 4 4 4 5 5 4 5 6 6 6 7 7 8 8 9 10 10 11 11 11 12 13 13 13 13 14 14 13 12 11 10
5 4 2 2 3 3 3 3 2 3 4 4 4 4 4 4 3 4 4 4 5 5 5 6 7 7 8 9 9 9 8 9 10 11 12 12 12 13 13 13 12 11 10
3 2 1 2 2 2 2 3 3 2 3 3 3 3 3 3 3 3 3 4 4 4 4 5 5 5 6 7 8 7 8 8 9 10 10 10 11 11 10 11 11 11 11
2 1 1 1 1 2 2 3 2 2 3 3 3 2 2 3 2 3 3 3 3 4 4 4 5 5 6 6 7 7 8 8 9 8 8 8 8 8 7 8 8 8 9
1 1 1 1 1 1 2 2 2 2 2 3 2 2 2 3 2 2 2 3 4 4 4 4 4 5 5 5 6 6 7 8 8 7 7 7 7 7 6 6 7 8 9
1 1 0 0 1 1 1 2 2 2 2 2 2 2 2 3 3 2 3 4 4 4 5 5 4 5 5 5 6 6 6 7 7 6 6 6 6 6 6 6 6 6 7
2 1 1 1 1 1 1 2 2 2 2 2 2 2 2 3 3 2 3 4 4 5 5 5 5 6 6 5 5 5 5 5 5 6 5 6 6 6 6 7 6 6 6
2 2 1 0 0 1 1 1 2 2 2 2 2 2 2 2 3 3 3 4 4 5 5 5 5 6 7 5 5 5 5 5 5 6 6 6 6 6 6 6 6 6 6
2 2 1 1 1 1 1 2 2 2 2 2 2 2 2 2 3 4 4 4 4 4 5 6 6 6 7 6 5 3 4 5 6 5 6 6 6 5 5 6 6 6 6
3 2 2 1 1 0 0 1 1 2 2 2 1 1 2 2 3 3 4 4 4 4 5 6 6 6 6 7 6 5 5 5 5 5 6 6 7 7 6 5 5 5 6
3 2 2 1 1 1 1 1 1 1 1 2 2 2 2 2 3 3 4 5 5 5 5 6 6 6 6 7 7 7 6 5 5 5 5 6 6 7 7 6 7 7 7
3 3 3 2 2 1 1 1 1 1 1 2 2 2 3 3 3 4 4 4 5 5 6 6 6 6 6 6 7 7 7 7 6 6 6 6 6 7 7 7 7 8 8
4 4 3 2 2 1 1 1 1 2 2 2 2 2 3 4 3 3 4 5 5 6 6 6 6 6 6 6 7 7 7 7 7 7 7 7 7 7 8 8 8 8 9
5 4 3 2 2 1 1 1 2 2 2 2 2 3 3 3 3 4 4 5 5 6 6 6 6 6 7 7 7 7 8 8 8 8 8 9 9 9 9 10 10 10 11
6 5 4 3 3 2 2 1 1 1 2 2 2 3 4 4 4 4 4 5 6 6 6 7 7 7 7 8 8 8 8 8 9 9 10 10 11 11 10 11 11 11 12
7 7 6 5 4 3 2 2 2 2 2 2 3 4 4 5 5 5 5 6 7 7 7 7 7 8 7 8 8 9 9 9 10 10 11 11 12 13 12 13 13 14 15
8 8 7 6 5 4 3 4 4 3 3 4 4 5 5 6 6 6 6 7 8 7 8 8 8 8 8 8 9 10 10 10 11 12 12 13 13 14 15 15 15 16 17
9 8 8 7 6 5 5 4 4 4 5 5 6 6 7 7 7 7 8 8 8 8 9 9 9 9 9 9 11 11 12 12 13 13 14 15 15 16 16 17 18 18 18
10 9 9 8 7 6 6 5 6 6 6 6 7 7 8 8 8 8 8 9 9 9 10 10 10 11 11 11 12 13 14 14 14 15 16 17 17 18 19 19 20 20 20
11 10 9 9 8 7 7 6 6 6 6 7 7 8 8 8 9 9 9 9 9 10 10 11 12 12 12 13 14 15 15 16 16 16 17 18 19 20 20 21 22 22 22
11 11 10 10 9 9 8 8 7 7 7 7 8 8 9 9 9 10 10 10 11 11 12 12 13 13 14 14 15 16 17 17 18 18 18 19 20 21 22 22 23 24 25
11 10 10 10 9 10 10 9 9 9 9 10 10 10 10 10 10 11 12 12 13 13 14 14 14 15 15 16 16 17 18 18 19 20 20 21 22 23 24 25 25 26 27
10 10 10 10 10 10 11 11 11 11 11 11 11 11 12 12 13 13 13 13 14 15 15 15 16 16 16 17 18 19 20 20 21 21 22 23 24 25 26 27 27 28 30
11 11 11 11 11 12 12 12 12 13 12 12 13 13 14 14 14 14 14 14 15 16 16 16 17 17 18 19 20 21 22 22 23 24 25 26 27 27 28 28 29 30 31
13 12 12 12 13 13 13 13 14 14 14 14 14 15 15 15 15 16 16 16 16 17 17 18 19 19 20 21 22 23 24 24 25 26 27 28 28 29 30 31 32 32 33
14 14 14 13 13 13 14 14 14 14 15 15 15 16 15 15 16 16 16 17 17 18 18 19 20 21 22 23 24 25 25 26 27 28 29 29 30 31 31 32 33 34 35

GEFSMA_500_meanwind_186.txt.gz
Wind_Speed
7 7 7 7 6 5 5 4 4 3 3 3 4 4 4 4 3 3 4 4 5 6 7 7 8 8 9 10 10 11 12 13 13 14 14 13 13 14 14 14 13 12 12
6 7 6 6 5 4 4 4 3 3 3 3 3 3 3 3 3 3 3 3 4 5 6 6 6 7 8 8 8 10 12 12 12 12 12 12 12 13 13 13 13 12 11
5 4 5 5 4 3 3 3 3 3 3 3 3 3 2 3 3 3 3 4 4 4 5 5 5 6 6 6 7 8 9 8 9 10 9 10 11 12 12 13 13 13 12
4 3 4 4 3 3 2 2 2 2 2 2 3 3 2 2 3 3 3 3 3 3 4 4 4 5 5 6 6 7 6 5 7 8 8 9 9 10 11 12 13 13 12
4 4 4 4 4 3 2 1 1 1 1 1 2 1 2 2 3 3 3 3 3 3 3 4 4 4 5 6 6 6 5 5 5 6 7 7 8 8 8 9 10 11 11
4 3 3 4 4 3 2 2 1 1 0 0 0 1 1 2 2 2 2 2 3 3 3 3 4 4 5 5 5 5 5 5 5 6 6 6 6 6 7 7 8 8 8
4 3 3 4 3 3 2 2 1 1 1 1 0 0 1 2 2 2 2 3 3 3 4 4 5 5 5 6 5 5 5 5 5 5 5 6 5 5 5 5 5 5 5
4 4 4 3 3 3 2 2 2 2 1 1 1 1 1 1 2 2 2 3 3 3 4 4 5 6 6 6 5 4 4 4 4 5 5 5 4 4 4 4 4 4 4
4 4 4 3 3 3 2 2 2 2 1 1 0 1 1 1 1 2 2 2 3 3 4 5 6 6 6 6 5 5 5 5 4 3 4 3 3 4 3 3 3 4 5
5 4 4 3 3 2 2 2 2 2 1 1 0 0 0 1 1 1 2 2 3 4 5 6 6 5 5 6 5 5 4 5 5 4 4 4 3 3 4 4 4 5 6
5 5 4 3 3 2 2 2 2 2 1 1 0 0 1 1 1 1 2 2 3 4 5 5 6 6 5 6 5 4 4 5 5 5 5 4 4 4 4 4 5 5 6
5 5 5 4 3 3 2 2 2 2 2 1 1 1 1 1 1 1 2 3 4 5 5 5 6 6 5 6 6 5 5 5 6 5 5 5 6 6 6 6 6 6 6
6 5 5 4 4 3 3 2 2 2 2 1 1 1 1 1 1 2 2 3 4 5 5 5 6 6 6 6 6 6 6 6 6 6 6 6 6 6 6 6 7 7 8
7 6 5 5 4 4 3 3 3 2 1 2 2 2 1 2 2 2 2 3 4 5 6 6 6 7 7 7 6 6 6 7 7 7 7 7 7 8 8 8 7 8 9
7 7 6 5 5 4 4 3 3 2 2 2 2 2 2 3 3 3 4 5 5 6 6 6 6 7 7 7 6 7 7 7 7 7 8 8 9 9 10 10 10 11 12
7 7 7 6 6 5 4 3 3 2 2 2 2 3 3 4 4 4 5 5 7 7 7 7 7 7 7 7 7 7 7 7 8 9 9 10 11 11 12 12 13 14 15
8 8 8 7 6 6 5 4 4 3 3 3 3 3 3 4 4 5 5 6 7 7 8 8 8 8 9 9 9 9 9 9 10 10 11 12 12 12 13 14 15 16 16
10 9 8 8 8 7 6 5 5 4 4 4 4 4 5 5 5 6 6 7 7 8 8 8 9 9 10 10 10 10 11 11 11 12 13 14 14 15 15 16 17 17 17
10 10 9 8 8 8 7 6 6 5 5 5 6 6 6 6 7 7 7 7 8 8 8 9 10 10 10 10 10 11 12 12 13 14 15 16 17 17 18 18 19 19 20
11 10 10 10 9 8 8 7 7 6 6 6 6 6 6 7 7 7 7 8 8 9 9 10 11 11 11 11 11 12 13 14 15 16 16 17 18 18 19 19 20 21 22
11 11 10 10 10 9 9 9 8 8 8 8 7 7 8 8 7 7 8 9 10 11 11 11 12 12 12 13 14 14 15 16 16 17 18 19 19 20 20 21 22 23 23
12 12 11 10 10 11 10 10 10 10 10 10 9 9 9 9 9 9 10 11 11 12 12 12 13 13 14 15 15 15 16 17 18 19 20 21 21 22 23 24 24 25 25
12 12 12 12 12 12 12 12 12 12 12 11 11 11 11 11 11 11 12 12 13 13 13 14 14 15 15 15 16 17 18 19 19 20 21 23 24 25 26 26 27 27 27
13 13 13 13 13 13 13 13 13 13 13 13 13 13 13 12 12 13 13 14 14 14 15 15 15 16 16 16 17 18 19 20 21 22 23 24 25 27 28 28 28 29 30
14 14 13 14 14 13 13 14 14 14 14 15 15 15 14 14 14 14 15 15 15 16 16 16 16 17 17 18 19 20 21 22 23 23 25 26 27 28 30 30 31 32 32
15 15 15 15 14 14 14 14 14 14 14 15 15 15 15 15 15 16 16 16 16 16 17 17 18 19 19 20 22 23 24 24 25 26 28 29 29 30 31 32 33 34 34

GEFSMA_500_meanwind_192.txt.gz
Wind_Speed
6 7 7 7 8 7 7 7 6 6 6 5 4 4 4 5 5 5 5 5 6 6 7 7 8 8 8 9 10 11 12 12 12 12 12 13 13 13 13 13 12 12 13
6 6 6 6 6 6 5 6 5 5 5 4 4 4 4 4 4 5 5 5 5 6 6 7 7 8 8 9 10 11 11 11 12 13 12 13 13 13 13 13 13 12 12
6 6 5 5 5 4 4 4 5 4 4 4 4 4 4 4 4 5 5 5 5 5 6 7 7 7 8 9 9 10 10 12 12 12 12 12 12 13 13 13 13 12 12
5 5 5 4 4 3 3 4 4 4 4 3 3 3 4 4 4 4 4 4 5 5 6 6 6 7 8 9 9 10 10 11 11 10 10 11 11 11 12 13 13 13 13
4 4 4 4 3 3 3 4 4 4 3 3 3 3 3 3 3 2 3 4 4 5 5 5 6 7 8 9 9 10 10 9 8 8 8 9 9 9 10 12 12 13 13
4 4 4 3 3 3 4 4 3 3 2 2 2 2 2 2 2 2 3 3 4 5 6 6 6 7 8 9 9 9 8 7 6 6 6 6 7 8 9 9 10 11 12
4 4 4 3 3 3 4 3 3 3 2 2 2 1 1 2 2 2 2 3 4 5 6 6 6 7 8 8 9 8 8 7 6 6 5 5 6 6 7 7 8 8 8
4 4 3 4 4 4 4 3 3 2 2 1 1 1 1 1 1 2 2 3 4 5 6 6 7 8 8 9 8 7 8 8 6 6 5 5 5 5 5 5 6 6 6
5 4 4 4 4 4 3 3 3 2 2 2 2 1 1 1 1 1 2 3 4 5 6 7 7 8 8 8 8 8 7 6 6 6 6 5 5 5 5 5 5 6 6
5 4 4 4 4 3 3 3 3 2 2 2 1 1 1 2 2 2 3 4 5 5 6 7 7 7 7 7 7 8 7 7 7 6 6 5 5 6 6 6 6 6 6
4 5 4 4 4 4 4 3 3 2 2 2 2 1 2 2 2 2 2 3 4 5 6 6 6 7 7 7 7 7 7 7 7 7 6 6 6 6 6 6 6 6 7
4 4 4 5 4 4 4 3 3 3 2 2 2 2 2 2 2 2 3 3 4 5 6 6 6 7 7 7 7 7 7 7 7 7 7 7 7 7 7 7 7 8 8
6 5 5 5 5 4 4 4 3 3 3 2 2 2 3 3 3 3 3 3 4 5 6 6 7 7 7 8 8 7 7 7 7 7 7 7 7 7 8 8 9 9 10
7 6 6 6 5 5 5 4 4 3 3 3 3 3 3 3 3 3 3 4 5 5 6 7 7 7 7 8 8 7 7 7 7 8 8 8 9 9 10 10 11 11 12
7 7 6 6 5 5 5 5 5 4 4 4 4 4 4 4 4 4 4 5 5 5 6 7 8 8 8 8 8 8 8 8 9 9 10 10 10 11 12 12 12 13 14
7 7 7 6 6 6 6 5 5 4 4 4 5 5 5 5 5 5 5 5 5 6 7 8 9 9 9 9 9 9 9 9 10 10 10 11 11 12 12 13 14 14 15
8 8 8 7 7 6 6 6 6 6 5 5 5 5 5 5 6 6 6 7 7 7 8 9 9 9 10 10 9 10 10 11 11 11 11 12 13 13 14 14 15 15 16
10 9 8 8 7 7 6 6 6 6 6 5 5 5 6 6 6 6 7 7 8 8 9 9 9 9 10 10 10 10 10 11 11 12 13 13 14 14 15 16 16 16 17
11 10 10 9 8 8 7 7 7 6 6 6 6 6 6 7 7 7 7 7 8 8 8 9 9 10 10 10 10 11 11 12 12 13 14 14 15 15 16 16 17 18 19
12 11 11 10 9 8 8 8 7 7 7 7 7 7 7 7 7 8 8 9 9 9 9 10 10 11 11 11 12 13 13 13 15 14 15 15 16 17 17 18 19 20 21
12 11 12 11 10 9 9 9 9 8 7 7 7 8 8 8 8 9 9 10 10 10 10 11 11 11 12 13 13 14 15 16 16 16 16 17 17 18 19 20 21 21 22
12 12 12 12 12 11 10 10 10 9 9 8 8 9 9 9 9 10 10 10 10 11 11 12 12 13 14 14 15 15 16 17 18 18 18 19 19 20 21 21 22 23 24
13 12 12 12 12 12 11 11 10 10 11 11 10 11 11 10 11 11 11 12 12 13 13 14 14 14 15 16 16 16 17 18 19 20 20 21 22 22 23 24 25 26 26
13 13 13 13 13 13 13 13 13 12 12 12 12 13 13 13 13 13 13 14 14 15 15 16 16 17 17 17 17 18 19 20 21 22 23 23 24 25 26 27 28 28 29
13 13 14 14 13 13 14 13 13 13 13 13 13 14 14 14 14 15 15 15 16 16 17 17 18 18 18 19 20 21 22 23 23 24 25 26 26 27 28 29 30 30 31
14 14 14 13 14 14 14 14 14 14 14 14 14 15 16 16 16 16 16 17 17 18 19 19 19 19 20 21 22 23 23 24 25 25 26 27 27 28 29 30 32 33 34

GEFSMA_500_meanwind_198.txt.gz
Wind_Speed
7 7 7 7 8 9 9 8 8 8 7 7 7 6 6 6 6 6 6 6 6 6 7 7 7 8 9 9 10 10 12 13 14 14 15 16 16 16 16 16 15 15 15
7 6 6 6 6 7 8 8 8 8 7 7 6 6 6 5 5 5 6 6 6 6 6 7 7 8 8 8 9 10 10 11 12 13 14 15 16 16 16 15 15 16 15
7 7 6 6 7 7 7 8 8 7 7 6 6 5 5 5 4 5 5 5 6 6 6 6 6 7 7 8 9 9 10 10 11 12 14 14 15 15 15 15 15 15 15
7 6 6 6 6 6 6 6 7 6 6 6 5 5 5 4 4 4 4 5 5 5 5 5 6 6 7 8 8 9 10 10 11 12 13 14 14 14 14 14 15 15 15
6 6 6 6 6 6 6 7 7 6 6 6 5 5 4 4 4 4 3 3 4 5 5 5 5 5 6 7 8 9 9 10 10 11 11 12 12 12 12 13 14 14 15
6 6 6 6 6 6 6 6 6 6 6 5 5 5 4 4 4 3 3 3 4 4 4 5 5 6 6 7 8 9 9 10 11 11 10 9 10 10 11 11 13 13 14
6 6 6 6 6 6 5 5 5 5 5 5 5 4 4 3 3 3 3 3 3 3 4 5 5 5 6 7 7 8 8 9 10 9 7 7 7 8 9 10 11 11 12
6 6 6 6 6 6 5 5 5 5 5 5 4 4 3 3 3 2 2 3 3 3 4 5 5 5 6 6 6 7 7 8 8 8 6 5 5 6 6 7 9 9 10
6 6 6 6 6 6 5 5 5 5 5 4 4 3 3 2 2 2 2 2 3 4 4 4 5 5 6 6 6 6 7 7 7 7 6 5 4 4 5 6 7 7 8
6 6 6 6 6 6 6 5 5 5 4 4 4 3 3 2 2 2 2 2 3 4 4 4 4 4 5 6 6 7 7 7 7 7 6 6 5 5 6 6 6 6 6
6 6 6 7 6 6 6 5 5 5 4 3 3 3 3 2 2 2 2 3 3 4 4 4 4 5 5 6 6 7 7 7 6 6 6 7 6 6 6 6 6 6 6
7 7 6 6 6 6 6 5 5 5 4 4 4 3 3 3 3 3 3 3 3 3 3 4 4 5 5 5 6 6 7 7 6 6 7 7 7 7 8 8 8 8 8
7 7 7 6 6 6 6 6 6 5 5 4 4 3 3 3 3 4 3 3 3 3 3 4 5 5 5 6 6 6 6 7 7 7 8 8 8 9 9 9 9 9 9
7 8 7 7 6 6 6 6 6 6 5 5 5 4 4 4 4 4 3 3 3 4 5 5 6 6 7 7 8 8 8 8 8 9 9 9 9 10 10 10 10 10 11
8 8 8 7 7 7 7 6 6 6 6 5 5 5 5 5 4 4 4 5 5 5 6 6 7 7 8 9 9 10 10 9 9 10 10 10 11 11 11 11 11 11 12
8 8 8 7 7 7 7 6 6 6 5 5 5 5 5 5 5 6 6 6 6 6 7 7 8 8 9 9 9 10 10 10 10 10 10 11 11 11 12 12 12 13 13
9 8 8 8 7 7 7 7 6 6 6 6 5 5 5 6 6 6 7 7 7 7 7 8 8 9 9 10 10 10 10 10 10 11 11 11 11 12 13 13 13 14 14
10 9 8 9 8 8 7 7 7 6 6 6 6 5 5 6 5 6 7 7 7 7 7 7 8 8 9 9 10 10 10 11 11 12 12 12 13 13 14 14 15 15 16
10 10 9 8 8 8 8 8 7 7 6 6 6 6 6 5 5 6 6 7 7 7 7 8 9 9 10 10 11 11 11 12 12 13 13 14 14 15 15 16 16 17 18
11 11 10 9 9 9 9 8 7 7 6 6 6 5 6 6 6 6 7 7 8 8 9 9 10 10 11 12 12 13 13 13 14 15 15 15 16 17 17 18 18 19 20
11 11 11 11 10 9 9 9 8 7 7 6 5 5 6 6 7 8 8 9 9 10 10 11 11 12 13 14 14 14 14 15 16 16 17 17 18 18 19 19 20 21 22
12 11 11 11 11 11 10 9 9 9 8 7 7 7 7 8 9 9 9 10 10 11 11 12 12 13 14 15 15 15 16 16 17 17 18 19 20 20 21 22 22 23 24
11 11 11 12 12 12 12 11 10 11 10 9 9 9 10 10 10 11 11 11 11 11 12 13 13 14 15 16 16 17 17 17 17 18 19 20 21 22 23 24 25 25 26
11 11 12 12 13 13 13 13 12 12 12 11 11 12 12 12 12 12 12 12 12 12 13 13 14 15 15 16 17 17 17 18 19 20 21 22 23 24 25 26 26 27 28
11 12 12 13 13 13 14 14 13 13 13 13 13 13 13 14 14 14 14 14 14 14 15 15 16 16 17 17 18 18 19 20 21 21 22 23 24 25 26 27 28 29 30
13 13 13 13 13 13 13 14 14 14 15 14 14 15 15 15 15 15 15 15 15 15 16 16 17 18 18 19 19 19 20 21 22 22 23 25 26 27 27 28 30 31 32

GEFSMA_500_meanwind_204.txt.gz
Wind_Speed
9 8 8 9 9 9 8 8 8 8 8 8 7 7 7 6 6 6 7 7 7 7 8 8 8 9 9 9 9 10 10 11 12 12 13 14 15 16 17 17 17 17 17
9 8 8 8 8 9 8 8 8 8 7 7 7 7 6 5 5 6 6 6 7 7 8 8 8 8 8 9 9 9 10 10 11 12 13 13 14 15 16 16 16 16 16
8 8 8 7 7 8 8 7 7 7 6 6 6 6 6 5 5 6 6 6 6 7 8 8 8 8 8 9 9 9 9 10 11 12 13 13 14 14 15 15 16 15 16
8 7 7 7 6 6 7 7 6 6 5 5 5 5 5 5 5 5 6 6 6 7 7 7 7 8 8 9 9 9 10 11 12 12 13 13 13 14 14 14 15 14 14
7 7 7 6 5 5 6 6 5 5 4 4 4 5 5 5 5 5 5 5 6 6 6 6 7 7 8 8 9 9 10 11 12 12 13 13 13 14 13 13 13 13 13
7 7 6 6 5 5 5 5 5 4 4 4 4 4 5 5 5 5 4 4 5 5 6 6 6 7 7 7 8 9 9 10 11 12 12 13 13 13 12 12 12 12 13
6 6 6 6 6 5 5 5 5 4 4 4 4 4 4 4 4 4 4 4 5 5 6 6 6 6 7 7 8 9 9 10 11 12 12 13 12 12 10 10 11 11 11
7 6 7 6 6 6 5 5 5 4 4 4 4 4 3 3 4 4 4 4 4 4 5 6 6 6 7 7 8 9 9 10 11 11 11 11 10 9 8 8 9 10 11
6 6 6 6 5 5 6 5 5 4 4 3 3 3 3 3 3 3 3 3 4 5 5 6 6 7 7 8 8 9 9 9 10 11 11 10 9 8 7 7 8 9 10
6 6 5 6 6 6 6 6 5 4 4 3 3 4 4 4 4 3 3 4 4 5 5 6 6 7 7 8 9 9 9 9 10 11 11 10 9 8 7 7 8 8 9
6 6 6 6 6 6 6 6 6 5 4 4 4 4 3 3 3 3 4 4 5 5 5 6 7 7 8 8 8 9 9 9 10 11 11 11 10 9 8 7 7 8 8
6 6 6 6 6 6 7 7 6 6 6 5 5 5 4 4 4 4 4 4 5 5 5 6 7 8 8 8 9 9 9 10 11 11 11 11 10 10 9 9 9 9 9
6 6 6 6 6 6 7 7 7 6 6 6 5 5 4 4 4 4 4 4 5 5 6 7 7 8 8 9 9 10 10 10 11 11 11 10 10 10 9 9 9 10 10
7 6 6 6 5 6 6 6 6 6 6 6 6 5 5 5 5 5 4 5 5 6 6 7 8 9 9 9 10 11 11 12 11 12 11 11 11 10 10 10 11 11 11
6 6 6 5 5 6 6 6 6 6 6 6 6 5 5 5 5 5 5 5 6 7 7 8 9 9 10 10 11 11 11 12 12 12 13 12 12 11 11 11 11 11 12
7 7 7 7 6 6 6 6 6 6 6 6 6 5 5 4 4 5 6 6 6 7 8 9 9 10 10 11 11 11 11 12 12 13 13 12 12 12 11 12 12 12 13
8 8 7 7 7 7 7 7 7 7 6 6 6 6 5 5 5 5 6 7 7 7 8 9 9 9 10 10 10 11 11 11 12 12 13 13 13 13 13 13 14 14 15
8 8 8 8 8 8 8 7 7 7 7 7 7 6 6 6 6 6 6 6 7 7 8 8 9 9 10 10 11 11 12 12 13 13 13 13 13 14 14 15 15 16 16
8 8 9 9 9 9 9 9 8 7 7 7 7 7 7 7 7 6 6 6 7 7 8 8 9 10 11 11 11 12 12 13 14 14 14 14 14 15 16 16 17 17 18
9 9 10 9 10 10 10 9 9 8 8 7 7 7 7 7 7 7 7 7 8 8 9 9 10 11 11 12 13 13 13 14 14 15 15 16 16 17 17 18 18 19 19
9 9 9 10 10 10 10 10 9 9 8 8 8 8 8 8 8 8 8 8 9 9 9 10 11 12 12 12 13 13 14 15 15 16 16 16 17 18 19 20 20 20 21
10 10 9 9 10 10 10 10 10 9 9 9 9 9 9 9 9 9 9 9 10 10 11 11 12 12 13 13 14 14 14 15 16 17 17 18 18 19 20 20 21 21 23
10 10 11 11 10 10 10 10 10 11 11 10 10 10 11 11 11 11 11 11 11 12 12 13 13 14 14 15 15 15 15 16 17 18 18 19 19 20 21 22 22 23 24
11 11 10 11 11 11 11 11 11 11 11 12 13 12 12 12 12 12 13 13 13 13 14 14 14 14 15 15 15 16 16 17 18 19 19 20 21 21 22 23 23 24 25
12 12 11 11 11 11 11 11 11 12 12 13 13 13 13 14 14 14 14 15 15 15 15 15 15 16 16 17 17 17 17 18 18 19 20 22 22 22 22 23 24 25 27
13 13 13 12 13 13 13 13 12 13 13 13 13 13 13 14 14 15 15 15 15 15 16 16 17 17 17 17 18 19 19 19 20 21 22 23 24 24 24 24 26 28 29

GEFSMA_500_meanwind_210.txt.gz
Wind_Speed
8 7 7 7 7 8 8 8 8 8 8 8 8 7 7 7 7 7 7 8 7 7 7 7 7 8 8 9 9 9 10 10 11 12 13 13 14 15 15 15 16 16 16
7 7 7 7 7 7 7 7 8 8 7 7 8 7 7 7 6 6 6 6 7 7 7 7 7 8 8 9 9 9 10 10 11 11 12 13 14 14 15 15 16 16 16
6 6 6 6 7 7 7 7 8 8 7 7 7 7 7 7 6 6 6 5 5 6 6 6 7 7 7 8 8 9 9 10 10 11 12 13 14 14 14 14 14 15 14
6 6 6 6 6 6 6 7 8 7 7 7 7 6 6 6 6 6 6 5 5 5 5 6 6 6 7 7 7 8 9 10 10 11 12 12 13 14 13 13 13 13 13
6 6 6 5 6 6 6 6 7 7 7 6 7 6 6 6 6 6 6 5 5 5 5 5 5 6 6 6 7 7 8 9 9 10 11 11 11 12 12 12 13 13 13
6 6 6 5 5 5 5 6 6 6 6 6 6 6 6 6 5 5 5 4 4 4 4 5 5 5 6 6 7 7 8 9 9 9 10 10 10 11 12 12 11 11 12
6 6 5 5 5 5 5 5 5 6 6 6 6 6 6 5 5 5 5 4 4 4 5 4 4 4 5 5 6 6 7 8 8 9 9 10 11 11 12 11 10 10 11
6 6 6 6 6 6 5 5 6 6 6 6 6 6 5 5 5 5 5 5 4 4 4 3 3 4 4 5 5 6 7 7 8 9 9 9 10 10 11 10 10 10 10
6 7 6 6 6 6 6 6 6 6 6 6 5 5 4 4 4 4 4 4 4 4 3 3 4 4 5 5 5 6 6 7 8 9 9 10 11 11 11 11 10 9 9
6 6 6 6 6 7 6 6 7 7 7 6 5 5 4 3 3 3 4 4 4 4 3 3 4 4 5 5 5 6 6 7 8 9 9 10 11 11 11 10 8 7 7
6 7 7 6 6 7 7 7 7 7 7 7 6 5 5 4 4 3 3 3 3 4 3 4 4 4 5 5 5 6 6 7 9 9 9 9 10 11 10 9 7 6 6
7 8 8 7 7 7 7 7 7 7 7 7 6 6 5 5 5 4 4 4 4 4 4 5 5 5 5 6 6 6 7 8 9 9 9 10 10 10 9 8 7 7 6
7 8 8 8 8 8 7 7 7 7 7 7 6 6 6 5 5 6 5 5 4 4 4 5 5 6 6 6 7 7 7 8 9 9 9 10 10 10 9 8 7 7 7
8 8 8 8 8 8 7 7 8 7 6 6 6 6 5 5 5 5 5 4 4 5 5 5 5 6 6 7 7 7 8 8 9 9 10 10 10 10 10 9 8 9 9
7 7 7 7 8 8 7 7 7 7 7 6 5 5 5 5 5 5 5 4 5 5 5 6 6 6 7 7 8 8 8 8 8 9 10 9 9 9 8 8 9 9 10
7 7 7 8 8 8 7 7 7 7 6 6 6 6 5 5 4 5 5 5 5 5 5 5 6 7 7 7 8 8 8 8 9 10 10 10 10 10 10 10 10 10 11
7 6 6 7 7 8 7 7 7 7 7 7 6 6 5 5 5 5 5 5 5 5 5 5 6 6 7 7 8 8 9 9 10 10 11 10 10 11 11 12 12 12 13
8 8 8 8 8 8 8 8 8 8 8 7 7 6 6 6 6 5 5 6 5 5 5 5 6 6 7 7 8 9 9 10 11 10 11 11 11 12 12 12 13 14 15
9 9 9 9 9 9 9 9 9 9 8 8 7 7 6 6 6 6 6 6 5 5 5 6 7 7 7 8 8 9 10 11 11 11 12 12 12 13 13 13 14 15 16
9 9 9 9 9 9 9 10 10 10 9 9 8 8 8 7 7 6 6 6 6 6 7 7 7 7 8 9 10 10 11 11 12 12 13 13 14 14 14 14 15 16 17
10 9 9 9 9 9 9 10 10 10 10 10 9 9 9 8 8 8 7 7 7 8 8 8 8 9 10 11 11 11 12 12 12 13 14 14 14 15 16 16 17 18 18
10 10 10 9 9 9 10 10 10 10 10 10 10 10 10 9 9 9 9 8 9 9 9 9 10 11 12 12 12 12 12 13 13 14 15 15 16 17 17 18 18 19 20
10 11 11 10 9 9 10 10 11 11 11 11 11 10 10 10 9 10 10 10 10 11 11 11 12 12 13 13 13 13 14 14 15 16 16 17 18 17 18 19 20 21 21
11 11 11 11 11 10 10 10 11 11 12 12 12 11 11 10 10 10 10 11 11 12 12 12 12 13 13 14 14 15 15 16 16 17 17 18 18 18 19 21 22 23 23
12 12 11 12 12 11 11 11 11 12 12 13 12 12 11 11 11 12 12 12 12 12 13 13 14 14 15 15 16 16 17 17 17 18 18 18 19 20 21 22 23 24 25
12 13 13 12 13 13 13 12 12 13 14 13 14 14 13 13 13 12 13 13 14 14 14 14 15 15 15 16 16 17 18 18 18 19 19 19 20 21 22 24 25 25 26

GEFSMA_500_meanwind_216.txt.gz
Wind_Speed
8 8 8 8 9 9 9 9 9 9 9 10 9 9 9 8 8 8 8 8 8 9 9 9 9 9 9 10 10 10 10 11 11 11 12 11 12 14 15 15 15 15 15
8 7 7 8 8 8 7 8 9 9 9 9 9 9 8 8 7 7 7 7 8 8 8 8 8 8 8 8 8 9 9 9 10 11 11 12 13 14 14 15 15 15 15
8 7 6 6 7 7 7 8 8 8 8 8 8 8 8 7 7 6 7 7 7 7 7 7 8 8 8 8 8 8 8 9 9 10 11 12 12 13 14 14 14 14 14
7 7 7 6 7 7 7 7 7 7 7 7 7 7 7 7 6 6 7 8 7 8 8 7 7 8 8 7 7 7 7 8 8 9 10 11 11 12 12 12 12 13 13
6 6 6 7 7 7 7 7 6 6 6 6 7 7 7 7 6 6 7 7 7 7 7 7 7 7 7 7 7 7 7 8 9 9 10 10 10 10 10 11 11 12 12
6 6 6 6 6 7 7 6 6 6 6 6 6 7 7 7 6 6 6 6 6 6 6 6 6 6 7 6 6 7 7 8 8 8 8 9 9 10 10 11 11 11 12
5 6 6 6 6 5 5 5 5 6 6 6 6 6 6 6 5 4 5 5 5 5 5 5 5 5 6 6 6 6 7 7 7 6 7 8 9 9 10 10 10 10 11
5 6 6 6 5 5 4 4 5 5 5 5 5 5 5 5 4 4 4 4 4 5 5 5 5 4 5 5 6 7 7 7 6 7 7 8 8 8 10 11 10 9 9
6 7 6 6 6 5 5 5 5 5 5 5 5 5 4 5 5 5 4 4 4 4 4 4 5 5 5 6 6 6 6 7 7 7 7 8 9 10 11 11 10 9 9
6 7 7 7 7 6 6 6 5 5 5 5 5 5 5 5 5 5 5 4 4 4 4 4 5 5 6 6 6 6 6 6 6 7 8 9 9 10 11 11 11 11 11
7 8 8 8 8 7 7 6 6 6 6 5 5 5 5 5 5 5 5 5 5 4 4 5 5 5 5 5 5 5 6 6 7 8 8 9 9 10 11 12 12 12 11
8 8 8 7 8 7 7 7 7 6 6 6 6 6 5 5 5 5 4 4 5 5 5 5 5 5 6 6 6 6 6 7 8 8 9 9 9 10 11 12 12 12 12
7 8 8 8 8 7 7 7 7 7 6 6 6 6 5 5 5 5 5 5 5 5 5 5 5 5 6 6 7 7 7 7 8 9 9 9 10 11 11 12 13 12 12
8 8 8 8 8 8 7 7 7 6 6 6 6 6 6 6 6 5 5 5 5 5 6 6 6 5 6 6 7 7 7 8 8 9 9 9 10 11 12 13 13 12 12
8 8 8 8 8 8 8 7 7 7 7 7 7 6 6 6 6 5 5 6 6 5 5 5 5 5 6 7 7 8 8 8 9 9 10 10 11 12 12 13 12 12 12
8 7 7 7 8 7 8 7 7 7 7 6 6 7 7 7 6 6 6 6 6 6 6 5 5 6 6 7 8 8 8 8 9 9 9 10 11 12 13 12 12 12 13
8 7 8 8 8 8 8 8 8 7 7 7 7 7 6 6 6 6 6 6 6 6 6 6 6 6 7 7 8 8 8 8 9 9 10 11 12 12 13 13 13 13 14
8 8 8 8 9 8 8 8 8 8 8 7 7 7 6 6 6 6 6 6 6 6 6 6 6 7 8 8 8 9 9 9 10 11 11 11 12 13 14 14 13 14 15
9 9 9 9 9 9 9 9 8 8 8 8 8 7 7 7 6 6 6 6 6 6 6 6 7 8 8 9 9 10 10 11 11 12 12 12 13 14 14 14 14 14 15
9 9 9 9 9 9 10 9 9 9 8 8 8 8 8 8 8 7 7 7 7 7 7 7 8 8 9 9 10 10 11 11 12 12 13 14 14 14 15 15 15 15 15
10 10 10 10 10 10 10 10 9 9 9 9 9 9 9 9 9 8 8 8 8 8 8 8 9 9 10 10 10 11 12 12 13 13 14 14 15 15 15 15 16 16 17
11 11 11 11 11 11 10 10 10 10 10 9 9 9 9 9 9 9 9 9 9 10 10 10 10 11 11 11 12 12 13 13 13 14 15 15 16 16 16 16 17 18 18
12 12 12 12 12 12 11 11 11 10 11 10 10 10 10 10 10 10 10 10 10 10 10 10 11 11 12 12 13 13 13 14 14 15 15 16 17 17 18 18 18 19 19
13 13 13 12 12 12 13 12 11 11 11 11 11 11 11 11 11 11 11 11 11 11 11 11 12 12 12 13 13 14 15 15 16 16 17 17 18 19 19 20 20 21 21
13 13 13 13 13 14 14 14 13 13 13 12 12 12 13 12 12 12 12 12 12 12 12 12 13 13 14 15 15 16 16 17 17 18 18 18 19 20 20 21 22 22 23
14 14 14 15 15 15 15 15 15 15 14 14 14 15 15 14 14 14 14 14 14 14 15 15 15 16 16 17 17 18 18 18 18 18 19 20 21 21 21 21 22 23 24

GEFSMA_500_meanwind_222.txt.gz
Wind_Speed
9 9 9 9 9 10 10 9 9 9 9 9 10 10 9 10 9 9 9 9 9 9 9 10 10 10 10 11 12 12 12 12 12 12 12 13 14 14 14 15 15 16 16
9 9 9 9 9 9 9 9 9 8 9 9 9 10 10 10 10 9 9 9 9 9 9 9 9 9 9 10 10 10 10 11 11 11 12 13 13 14 14 14 15 15 15
8 8 9 9 9 9 9 10 9 9 9 9 9 9 9 9 9 9 9 9 9 9 8 8 8 8 9 9 9 9 8 9 9 10 10 11 12 13 13 13 13 14 14
8 8 9 9 9 8 8 9 9 9 9 9 9 8 8 8 8 9 9 9 9 9 8 8 7 7 7 8 8 8 8 8 9 9 9 10 10 11 11 11 12 12 13
7 8 8 8 8 8 8 8 9 9 9 9 9 8 8 7 7 8 8 8 8 9 9 8 7 7 7 7 7 7 7 8 8 8 9 9 9 9 9 10 10 11 12
7 7 7 7 8 8 8 8 8 9 9 9 8 8 8 8 7 7 8 8 9 9 8 7 7 7 7 7 7 7 7 7 7 7 7 8 8 8 9 9 10 10 10
7 7 7 7 8 7 8 8 8 9 8 8 8 8 8 8 7 7 7 8 8 8 7 7 7 7 7 6 5 6 6 6 6 6 7 7 8 8 9 9 10 10 10
7 6 6 7 7 8 7 7 7 7 7 7 7 7 7 6 6 7 6 6 6 6 6 6 6 6 6 5 5 6 6 6 6 6 7 7 8 8 9 10 10 10 10
7 7 7 8 8 8 8 7 6 6 6 6 6 6 6 6 6 6 6 5 5 4 5 5 5 5 5 5 6 6 6 6 7 7 8 8 8 9 9 9 9 10 10
9 9 9 8 8 9 8 7 6 6 6 6 7 7 7 7 7 6 6 5 4 4 4 4 4 4 4 5 5 6 6 6 7 8 9 8 8 9 9 10 10 11 11
8 8 9 8 8 8 8 7 7 7 7 7 7 7 7 7 7 6 5 5 5 5 5 5 4 4 4 5 5 5 6 6 7 8 8 8 8 8 9 10 10 11 12
8 8 8 8 8 9 9 8 7 7 6 6 7 7 6 7 7 6 5 5 5 5 5 5 5 5 5 5 5 5 5 6 6 7 7 8 7 8 8 9 10 11 12
9 8 8 8 8 9 9 8 8 7 7 6 6 7 6 7 7 7 6 5 5 6 5 5 5 5 5 5 5 6 6 6 6 7 7 8 8 8 8 10 11 12 12
8 8 8 8 8 8 8 8 8 8 8 7 7 7 7 7 7 7 6 6 5 5 5 5 5 5 5 5 6 6 6 6 7 7 8 9 9 9 9 10 10 11 12
9 9 9 8 8 8 8 8 8 8 8 8 8 7 7 7 8 7 7 7 6 5 5 5 5 5 5 5 6 6 6 7 8 8 9 9 9 9 10 10 10 11 12
10 9 9 9 9 9 9 9 9 9 9 9 8 8 8 8 8 8 8 7 7 7 6 6 6 6 6 6 7 7 7 8 8 9 9 9 9 9 10 11 11 11 12
9 10 10 9 10 10 10 10 9 9 9 9 9 9 8 8 8 8 8 8 7 7 7 7 7 7 7 7 7 8 7 8 8 9 8 9 9 10 11 11 11 11 12
10 10 10 10 10 10 10 10 10 9 9 9 9 9 9 9 8 8 8 7 7 7 7 7 7 7 7 7 7 7 7 8 8 8 8 9 10 11 11 12 12 13 13
11 11 11 11 11 11 11 11 11 10 10 10 10 9 9 9 8 8 8 8 8 8 8 8 8 8 8 8 8 8 8 8 9 9 9 10 11 11 12 12 13 14 14
12 12 12 12 12 12 12 11 11 11 11 10 10 10 9 9 9 9 9 8 8 8 8 8 9 9 9 8 8 9 9 9 10 10 11 11 12 13 13 13 13 14 15
13 12 12 13 13 13 13 13 13 12 12 11 10 10 10 10 10 10 10 10 9 9 9 9 9 9 9 9 9 9 9 10 10 11 11 11 12 13 13 14 14 15 16
13 13 12 13 14 13 13 13 13 13 12 12 11 11 11 11 11 11 11 12 11 10 10 10 10 10 10 10 10 10 10 11 12 12 12 13 13 13 14 14 15 16 17
14 13 13 13 14 15 14 14 14 13 13 13 13 12 12 12 12 12 12 12 12 11 11 11 11 11 12 12 12 12 13 13 13 14 14 14 15 15 16 16 16 17 17
15 14 14 14 15 15 15 15 15 14 14 14 14 14 14 14 13 13 13 13 13 13 13 13 13 13 14 14 14 14 14 14 15 15 16 16 16 17 17 17 18 19 19
16 15 15 15 15 15 15 14 15 15 15 15 15 15 15 15 15 15 15 14 13 13 14 13 14 14 15 15 15 16 16 16 16 17 17 18 18 19 19 19 19 20 20
18 17 16 16 16 16 15 15 15 15 15 16 16 16 16 16 16 16 16 15 15 15 15 15 15 16 16 17 17 18 18 19 19 19 19 19 20 20 20 20 20 21 21

GEFSMA_500_meanwind_228.txt.gz
Wind_Speed
9 10 10 10 9 9 9 9 9 10 10 10 9 9 9 10 9 9 10 10 10 10 11 11 11 10 11 12 12 12 12 12 12 12 12 12 13 13 13 13 14 15 15
10 10 10 9 9 9 9 9 10 9 9 9 8 8 9 9 9 10 10 10 10 10 10 10 10 10 10 10 10 11 11 11 11 11 11 12 13 13 12 12 13 14 14
9 9 9 9 9 9 9 9 9 9 8 8 8 8 8 9 9 9 9 9 9 9 9 9 9 9 9 9 9 9 10 10 10 10 10 11 11 12 12 12 12 12 13
9 9 9 9 9 9 8 9 9 9 9 9 8 8 8 9 8 8 8 8 8 8 8 8 8 8 8 8 8 9 9 9 9 10 10 10 10 10 10 11 10 11 11
9 9 9 9 8 9 8 8 8 9 9 9 9 9 8 9 9 8 8 8 8 8 8 7 7 7 8 8 8 8 8 8 8 9 8 8 9 9 9 9 9 10 10
8 8 8 8 8 8 8 8 8 8 8 9 9 8 8 8 8 8 7 8 8 8 8 7 7 7 7 8 7 7 7 7 7 7 7 8 8 8 8 9 9 10 10
8 8 8 8 8 8 8 8 8 8 8 8 8 8 8 7 7 7 7 7 7 8 7 7 7 7 7 7 7 6 7 7 7 7 7 7 8 8 9 9 10 10 10
8 8 9 9 9 9 9 8 8 8 8 8 8 8 8 7 7 7 8 8 8 7 7 7 7 7 7 6 6 6 6 7 7 7 7 8 8 9 9 10 10 10 11
8 8 8 9 9 9 8 8 8 7 7 7 8 8 8 8 8 8 8 8 7 7 7 8 7 7 6 7 7 6 6 6 6 7 8 8 9 9 10 10 10 11 11
9 8 8 8 8 8 8 8 7 7 7 7 7 7 8 8 8 7 7 7 6 6 6 7 6 6 6 6 6 6 6 6 6 7 8 8 9 9 10 10 10 10 11
8 8 8 8 8 8 8 8 8 8 7 7 7 7 8 8 8 8 7 6 6 6 6 6 6 6 6 6 6 6 6 6 6 7 8 9 9 9 9 9 10 10 11
8 8 8 9 9 8 8 8 8 7 7 8 8 8 8 8 8 7 7 6 6 6 6 6 6 6 6 5 6 6 6 7 7 7 8 9 9 9 9 9 10 10 11
9 9 9 9 9 9 9 8 8 8 7 7 7 7 7 7 7 7 7 7 7 6 6 6 6 6 6 6 6 7 7 8 8 8 9 10 10 10 9 9 9 10 11
9 9 9 9 9 8 8 9 9 9 8 8 8 7 7 6 6 6 7 7 7 7 7 7 6 6 6 6 6 7 7 8 8 9 9 9 9 9 8 9 9 10 11
10 10 10 9 9 9 9 9 9 9 8 8 8 8 8 7 7 7 8 8 8 7 7 7 7 7 6 6 7 8 8 8 8 8 8 8 9 9 9 9 9 10 10
12 11 11 10 9 9 9 8 9 9 9 9 9 8 8 7 8 8 8 8 8 8 7 7 8 8 7 7 8 8 8 8 8 8 8 9 9 9 9 9 10 10 11
11 10 10 11 11 10 10 10 10 9 9 9 9 9 8 8 8 8 8 8 8 7 7 7 8 8 8 8 9 9 8 8 9 8 9 10 10 10 10 10 11 11 13
11 10 11 11 11 11 10 10 10 10 10 9 9 9 9 9 9 9 9 9 9 8 8 8 8 8 9 9 9 9 9 9 9 9 10 10 10 10 11 11 12 12 13
12 11 12 12 11 11 11 11 11 11 11 11 10 10 10 9 9 9 9 9 9 9 9 9 9 9 9 9 9 10 10 10 10 10 10 11 11 12 12 12 13 13 14
14 13 13 13 13 12 12 11 11 12 11 11 11 11 10 10 9 9 10 10 10 10 10 10 10 10 10 10 10 10 10 11 11 11 11 12 12 13 13 14 14 14 15
15 14 14 14 14 13 13 12 12 12 12 12 12 12 12 11 10 10 10 10 11 11 11 11 11 11 11 11 11 11 11 11 12 12 12 13 13 14 14 15 15 15 15
16 16 15 15 15 14 14 13 13 13 13 13 13 13 12 12 11 11 11 11 11 12 12 12 12 11 11 12 12 13 13 13 13 13 14 14 15 16 16 17 17 17 17
18 18 17 16 16 16 15 14 14 14 14 14 14 14 13 13 13 12 12 12 12 13 13 12 12 12 12 13 13 14 14 15 15 15 15 15 16 17 17 18 18 18 18
19 19 19 18 17 17 16 15 15 15 15 15 14 15 14 14 14 14 14 14 14 14 14 14 14 14 14 14 15 15 15 16 16 16 16 16 17 17 18 18 19 19 19
20 19 20 19 19 18 17 17 16 16 16 16 16 15 15 15 15 15 15 15 15 16 15 15 16 16 16 16 16 16 16 16 17 17 17 18 18 18 19 20 20 21 21
22 21 21 20 20 19 19 18 18 18 17 16 16 16 16 16 16 16 17 16 16 16 16 16 17 17 17 17 17 18 18 18 18 19 19 20 20 20 20 20 21 22 22

GEFSMA_500_meanwind_234.txt.gz
Wind_Speed
7 7 8 8 8 8 7 7 7 7 8 8 9 9 8 8 7 7 8 8 8 8 9 8 9 9 9 9 10 10 10 10 11 11 11 11 11 11 11 11 12 12 12
7 7 7 8 7 7 7 7 7 7 7 8 8 8 8 8 7 7 7 7 7 8 7 7 8 8 8 8 8 8 9 9 10 10 10 11 10 10 11 11 11 11 12
6 6 7 7 7 7 6 6 7 7 7 7 7 7 7 7 7 7 7 7 7 7 6 6 7 7 7 7 8 8 7 9 9 9 9 9 10 10 10 10 10 11 11
6 6 6 7 6 7 7 7 7 8 7 7 7 8 7 8 8 7 7 7 7 7 6 6 7 7 7 7 7 7 7 7 7 7 8 8 8 9 9 9 9 10 10
6 6 6 7 7 8 8 8 8 8 8 7 7 7 7 8 7 7 7 7 7 7 7 6 7 7 7 7 7 7 7 7 7 6 6 7 7 7 8 8 8 8 9
6 6 6 6 7 7 7 7 8 7 7 7 6 6 7 7 7 7 7 7 7 6 6 6 7 7 7 7 6 6 7 7 6 6 6 6 6 7 7 7 8 8 8
7 7 7 7 7 7 7 7 7 7 7 7 7 6 7 7 6 7 7 6 6 6 6 7 7 7 7 7 6 6 7 6 6 6 6 6 7 7 7 7 8 8 8
6 6 6 6 7 7 7 7 7 7 7 7 7 7 6 6 6 7 7 6 6 7 7 7 8 8 7 7 6 6 7 6 6 6 6 7 7 7 7 8 8 8 8
6 6 6 7 7 7 7 7 7 7 7 7 6 7 6 6 7 6 6 7 7 7 7 7 7 6 6 7 6 7 7 6 6 6 7 7 7 7 8 8 9 9 9
6 6 7 7 7 6 7 7 7 6 6 6 6 6 6 7 7 7 7 7 7 7 8 8 7 6 6 7 7 7 7 6 6 6 7 8 8 9 9 9 9 9 9
6 7 7 7 8 8 7 7 6 6 6 6 6 6 6 7 7 7 7 7 7 7 7 7 7 6 6 6 6 6 6 6 7 7 7 8 8 9 9 9 9 9 9
7 8 8 9 9 9 8 7 7 7 7 7 7 7 7 7 7 8 8 7 7 7 7 7 6 6 6 6 6 6 6 6 6 7 7 7 7 8 8 8 8 8 8
9 9 9 9 9 9 9 8 7 7 7 7 7 7 7 6 6 6 7 7 8 7 7 7 7 6 6 6 6 6 6 7 7 8 8 8 8 8 8 8 8 8 8
9 9 9 10 10 10 10 9 8 8 8 7 7 7 7 6 6 6 6 7 8 8 7 7 7 6 6 6 7 7 7 7 8 8 8 8 8 8 8 8 8 9 9
9 9 10 10 10 10 10 10 10 9 8 8 8 7 7 7 7 7 7 7 7 8 8 7 7 7 7 7 7 7 8 8 8 8 9 9 8 8 8 9 9 9 8
11 10 10 10 10 10 11 10 10 10 9 9 9 8 8 8 8 8 8 8 7 7 7 8 8 7 7 7 8 8 8 8 8 8 8 9 9 9 9 9 9 9 8
12 12 11 11 11 10 11 11 11 10 10 9 9 9 9 9 9 8 8 8 8 8 8 8 8 8 8 8 8 8 8 8 8 8 8 8 8 8 8 9 9 9 9
13 13 13 12 12 12 11 11 11 11 11 10 10 10 9 9 8 8 8 7 8 8 8 8 8 8 8 8 8 8 8 8 8 8 8 8 9 9 9 9 10 10 10
15 15 14 14 13 13 12 12 12 12 11 11 11 11 11 10 9 9 8 8 8 8 8 8 9 9 9 9 9 9 9 9 9 9 8 9 10 10 10 11 10 11 11
17 16 15 15 15 14 14 14 13 13 12 12 12 11 11 11 10 10 9 8 8 9 9 9 9 10 10 10 10 10 9 9 9 10 10 10 11 11 12 12 12 12 12
19 18 17 16 16 16 16 15 15 15 14 13 13 13 12 12 12 12 10 10 10 10 10 10 11 11 11 11 10 10 10 10 10 11 11 11 12 12 13 13 13 13 14
20 19 19 18 17 17 17 16 16 16 14 14 14 13 13 13 13 12 12 11 11 12 12 12 11 11 11 11 11 11 11 11 11 12 12 12 13 13 14 14 14 14 14
22 21 21 20 19 18 18 18 18 17 16 15 15 15 15 14 14 14 14 13 13 13 13 13 13 12 12 13 13 13 13 13 13 13 13 13 14 15 15 15 16 16 15
23 22 22 21 21 20 20 19 19 18 18 18 17 16 16 16 16 15 15 14 14 14 14 14 14 14 14 14 14 15 15 15 15 15 15 15 15 16 16 17 17 18 17
24 23 24 23 22 21 21 21 20 20 19 19 20 19 18 17 17 16 16 16 15 15 15 15 16 16 16 16 16 16 16 16 16 16 16 16 16 17 17 18 18 19 19
24 25 25 24 24 23 22 22 22 22 21 21 21 20 20 20 19 18 18 18 17 16 17 17 17 17 18 18 18 18 17 17 17 17 18 18 18 18 18 19 19 20 20